GFSNW_925_spd_000.txt.gz
Wind_Speed
29 30 31 33 35 35 15 3 1 13 43 7 3 4 5 4 5 1 3 3 4 6 7 6 5 8 6 6 9 9 9 4 6 14 4 12 13 11 12 5 5 4 3 16
28 29 32 33 34 28 14 3 2 20 27 3 4 4 3 3 3 4 5 4 5 4 6 3 7 5 6 9 10 10 9 5 3 3 2 4 8 12 15 13 3 8 4 8
27 28 31 33 35 36 22 3 2 5 5 3 8 9 4 3 1 4 3 4 4 4 6 5 3 4 4 11 9 9 12 5 7 8 3 2 6 12 16 16 8 14 17 17
27 28 30 35 36 36 9 1 3 3 5 4 10 5 6 5 2 1 6 4 8 5 4 6 8 7 6 5 11 8 7 6 11 19 20 9 6 10 17 21 19 11 16 19
28 28 30 32 34 31 7 2 3 1 6 9 10 6 6 11 7 4 5 6 7 8 5 7 2 3 6 5 8 9 4 5 5 10 15 18 14 17 15 21 23 24 20 22
27 27 29 31 33 24 4 6 5 2 11 8 9 8 5 6 7 6 6 10 8 9 13 13 14 9 7 4 5 8 2 3 3 6 8 12 11 24 21 14 19 18 17 25
26 27 26 27 29 23 10 7 5 0 5 9 8 11 10 5 5 4 0 6 6 1 2 3 2 5 11 11 12 10 6 3 2 5 4 3 2 4 22 24 12 21 22 11
25 26 26 26 27 24 16 9 3 1 3 9 10 7 5 8 1 2 5 9 6 3 1 3 2 1 3 6 10 14 11 3 3 3 2 5 3 1 4 12 13 17 19 19
23 24 25 27 28 27 25 17 5 4 3 9 6 8 4 3 3 1 3 1 1 2 3 3 3 3 1 4 3 2 5 3 1 4 3 4 3 1 7 7 4 17 19 18
23 23 23 25 27 28 26 9 15 5 1 1 6 5 5 4 3 1 2 2 1 4 3 3 3 2 3 2 2 3 2 2 4 4 3 5 2 3 6 2 5 5 16 15
22 24 24 24 25 25 23 12 13 6 2 0 1 5 5 3 3 3 3 0 2 2 3 3 3 3 4 2 4 4 6 4 3 1 2 3 3 4 3 3 4 3 3 4
21 21 22 22 22 24 21 7 22 12 2 2 1 2 2 4 6 4 3 1 1 2 2 2 2 3 2 3 3 0 2 5 3 6 4 3 3 4 4 3 3 0 6 6
20 21 21 21 21 22 20 15 16 7 2 2 2 3 5 9 7 6 3 2 3 3 1 2 2 3 4 3 4 2 3 3 2 2 2 3 2 1 3 4 2 2 8 11
20 21 22 21 21 21 21 14 14 6 3 1 3 0 2 2 7 10 4 4 2 1 1 2 2 2 2 3 2 3 4 1 2 4 6 6 3 2 4 5 8 12 10 10
22 23 23 22 21 22 25 25 16 13 3 1 1 1 1 1 5 7 6 3 2 2 2 3 3 2 3 1 1 3 4 6 4 4 4 2 1 6 6 7 7 9 15 13
24 25 26 24 22 19 18 3 7 1 4 2 1 2 3 2 4 5 3 3 3 2 1 3 2 2 3 3 3 5 5 2 2 3 2 3 5 5 3 7 7 8 10 13
27 28 27 26 23 17 5 4 1 11 8 1 2 1 2 4 3 2 2 3 2 2 2 3 2 2 2 1 3 5 5 6 3 3 6 4 3 5 6 9 10 12 12 13
31 33 30 24 17 12 10 15 13 11 5 2 1 2 1 6 2 2 3 2 2 2 2 2 1 1 2 4 8 3 3 6 6 1 2 1 9 9 8 10 13 13 11 11
37 32 14 1 3 3 5 8 6 15 3 2 2 3 3 3 1 1 1 1 2 0 2 2 1 2 4 7 7 6 8 7 9 6 6 8 11 11 10 11 10 15 11 10
27 11 5 1 3 19 11 4 4 2 2 2 2 3 3 3 2 1 0 1 1 2 0 1 2 4 8 8 7 3 8 10 13 11 5 7 7 12 11 9 8 12 12 11
8 4 2 10 17 4 2 1 2 2 2 3 3 4 4 2 2 2 1 1 0 1 3 1 2 4 4 3 8 6 8 12 7 3 5 7 12 15 12 10 9 11 13 12
10 14 15 5 3 1 3 3 0 3 5 1 3 3 3 2 1 2 1 2 1 3 3 1 3 4 3 5 1 5 8 10 6 4 10 11 13 13 13 12 12 12 19 21
2 2 2 1 2 2 1 2 1 1 1 3 3 2 3 2 1 2 2 1 3 1 0 4 4 3 4 2 1 4 6 7 7 8 8 12 11 17 18 13 18 22 21 22
2 3 5 1 3 3 3 2 3 2 3 1 1 2 3 2 3 2 3 1 0 2 3 5 3 4 3 0 2 5 6 7 8 9 11 13 13 12 17 20 22 24 20 21
1 1 2 2 2 3 3 2 1 2 2 1 1 2 2 1 3 1 2 1 4 5 5 3 3 3 2 3 3 6 7 7 7 8 10 12 15 14 16 19 23 25 24 23
1 1 3 4 3 4 5 3 3 2 2 2 1 3 2 3 4 3 7 6 6 4 3 3 2 0 2 3 5 6 7 8 9 9 12 15 16 16 19 22 23 23 25 24
2 0 1 0 4 4 3 4 3 4 2 2 2 4 7 2 3 3 4 6 3 3 3 2 2 2 3 5 6 7 9 10 11 14 17 18 23 25 23 14 16 24 24 25

GFSNW_925_spd_003.txt.gz
Wind_Speed
32 31 31 30 34 38 9 4 2 14 6 5 2 2 5 5 4 3 3 4 5 4 6 4 5 6 5 6 8 10 8 4 6 14 8 14 15 12 15 7 5 5 2 13
29 30 31 31 34 34 20 2 1 15 11 3 3 3 4 4 3 2 2 4 4 3 5 4 6 4 5 8 9 9 7 4 4 6 0 3 8 14 16 13 4 15 7 8
29 31 32 33 35 36 25 1 1 3 2 2 6 5 3 4 4 3 3 4 5 4 4 4 3 4 3 10 7 8 11 5 7 10 8 2 5 14 19 14 7 10 18 21
29 30 33 34 39 45 9 3 1 1 3 2 4 4 4 5 3 1 3 3 3 5 4 6 5 5 3 5 10 7 9 8 11 19 22 15 10 13 18 19 22 12 10 15
29 29 31 34 39 40 7 4 2 1 3 8 7 3 3 5 3 4 4 2 8 7 5 6 4 4 5 5 4 8 5 5 4 15 17 19 18 16 18 20 21 21 19 25
29 29 30 32 35 33 5 6 6 1 7 6 4 3 6 7 6 2 2 4 4 8 10 8 9 7 4 3 5 10 4 3 3 10 3 8 7 16 21 18 18 13 17 23
27 28 28 29 30 30 15 4 3 1 3 6 7 8 5 4 5 2 2 4 3 0 3 1 2 4 8 10 13 10 4 3 3 6 6 3 4 3 12 21 21 21 16 12
26 25 26 27 28 27 21 9 3 2 1 5 7 7 5 3 2 2 1 4 4 2 1 3 1 1 2 7 12 11 14 3 3 3 4 6 2 4 1 8 8 21 19 20
24 24 23 24 24 27 28 8 11 3 1 7 6 4 5 3 3 1 3 2 1 2 2 2 3 3 3 3 2 5 8 4 2 3 4 4 3 4 3 3 2 2 21 17
23 24 24 24 24 26 26 7 17 3 3 2 5 5 5 4 3 1 1 2 2 3 1 1 3 3 2 3 3 4 3 3 4 4 4 6 4 2 4 4 5 7 4 8
23 22 22 21 22 21 22 13 13 7 4 2 3 4 5 3 3 3 2 1 1 2 1 2 2 3 4 2 3 4 6 5 4 2 2 5 2 2 1 2 5 3 3 4
22 22 21 21 22 22 19 9 23 22 4 2 4 4 1 4 6 4 3 1 2 1 3 2 2 3 2 3 3 1 2 5 2 6 5 3 4 5 4 3 4 3 1 3
23 23 23 21 21 21 18 13 13 11 3 3 2 4 4 7 4 6 3 2 2 2 1 2 2 4 3 3 4 2 3 3 3 1 2 5 5 4 1 3 2 1 2 8
23 24 24 23 22 20 19 14 13 6 3 2 3 2 2 3 7 9 4 5 3 2 1 2 3 2 2 3 2 3 4 3 2 5 6 5 4 3 1 4 5 10 9 7
24 25 24 24 21 19 21 25 16 12 3 2 2 2 1 1 3 6 5 5 3 2 2 3 3 1 2 1 0 3 5 6 4 4 3 2 4 3 4 6 5 8 13 13
26 26 26 25 22 17 15 2 8 9 5 3 2 1 2 2 4 5 5 3 2 2 2 2 3 2 3 3 3 5 4 2 2 2 1 2 3 4 2 6 5 8 9 11
29 30 32 32 22 13 5 3 2 17 18 3 1 2 1 4 2 2 2 3 2 2 2 3 2 2 3 2 3 5 5 5 5 4 6 3 3 3 6 9 10 14 14 15
32 37 36 25 13 9 7 10 7 7 4 2 1 2 1 5 2 2 3 2 2 3 2 1 2 2 2 4 7 5 2 4 4 5 1 2 7 7 7 9 13 14 13 12
36 35 16 2 3 3 1 9 11 10 4 1 1 3 3 2 1 1 1 1 2 1 2 2 2 3 5 7 6 6 8 7 7 5 5 6 7 10 9 10 10 15 12 11
27 12 5 1 2 18 5 3 4 3 3 2 2 3 2 3 1 1 1 1 1 2 1 2 2 4 9 9 8 5 7 8 12 6 4 5 5 10 12 10 8 11 12 14
9 4 2 11 14 2 0 2 3 2 1 3 2 4 3 1 3 2 2 1 1 2 2 2 2 3 3 5 5 6 7 10 9 1 4 5 11 14 12 10 9 11 13 13
10 14 11 5 3 2 1 2 1 3 5 1 2 3 4 2 1 2 1 1 1 3 2 1 3 4 3 5 5 3 7 9 6 2 6 8 12 12 11 11 12 12 18 21
2 2 3 2 2 3 5 5 2 0 1 1 1 1 2 1 1 2 2 2 3 1 1 3 4 3 4 2 2 3 5 7 7 6 7 11 10 17 18 13 18 22 20 20
2 3 4 2 2 2 2 2 3 3 2 3 1 2 2 1 3 1 3 1 1 2 3 6 3 4 4 3 0 4 5 7 8 8 9 12 13 12 18 21 24 25 21 22
2 1 1 2 2 3 2 3 3 3 2 1 1 1 3 1 3 1 2 1 4 5 5 3 3 3 3 2 1 5 7 7 7 8 9 11 14 14 15 19 23 25 26 25
1 0 2 3 1 3 1 2 3 2 5 1 2 1 1 3 4 4 7 5 6 4 4 3 2 2 1 1 1 4 5 7 10 9 12 15 16 15 19 22 22 23 26 25
1 1 1 2 4 4 2 3 3 4 3 1 0 4 6 2 1 3 5 5 3 3 3 2 3 2 2 3 4 5 6 8 9 12 16 17 22 25 23 14 16 24 24 26

GFSNW_925_spd_006.txt.gz
Wind_Speed
30 29 31 32 33 36 16 3 1 11 12 3 2 2 3 5 6 0 4 9 10 14 14 11 10 9 5 8 11 11 12 5 7 15 13 13 16 16 19 7 8 6 9 20
30 30 31 32 35 35 20 1 0 3 4 2 3 6 3 3 4 2 3 4 3 5 9 6 9 5 3 10 12 12 11 4 4 4 2 6 9 18 20 12 8 17 10 17
30 30 31 33 37 44 12 2 2 3 2 1 8 10 4 4 5 5 7 7 5 6 5 1 7 7 3 10 13 6 10 6 7 10 14 6 7 13 17 16 10 17 20 29
30 30 32 34 40 41 13 2 2 1 3 5 8 4 4 9 4 3 4 3 3 5 4 5 4 6 2 3 8 8 7 6 11 20 22 21 23 23 17 20 26 16 26 21
28 29 31 35 38 34 7 4 3 3 4 7 11 3 4 5 5 4 4 3 7 6 4 5 5 5 6 5 10 11 6 5 3 13 20 22 22 21 17 20 25 26 26 28
27 27 30 32 34 32 5 7 5 3 3 4 6 4 5 5 6 3 5 5 5 7 7 6 9 7 5 3 5 12 5 1 3 8 13 19 8 7 12 8 19 22 20 26
24 26 27 28 29 29 13 5 4 3 2 2 4 5 3 9 6 4 4 2 2 2 2 2 2 8 7 10 14 10 5 3 3 7 11 4 6 6 10 12 17 19 23 23
23 24 25 26 26 26 17 10 5 3 2 4 7 4 5 5 5 2 3 3 2 2 1 2 3 2 3 8 13 16 15 8 3 3 4 10 4 5 4 3 4 5 19 19
23 22 23 24 25 25 23 10 19 3 3 6 7 6 7 6 4 3 3 3 2 1 2 3 3 3 2 2 4 3 9 11 5 1 4 3 3 5 1 1 3 11 11 14
22 21 22 22 24 24 21 5 16 3 2 3 8 7 8 4 4 2 2 2 1 2 2 2 4 3 1 2 3 4 4 2 6 5 5 7 3 4 2 5 6 15 12 1
20 21 21 21 22 22 22 10 10 5 3 7 3 4 4 3 4 3 4 3 1 2 2 3 3 3 2 2 2 4 7 6 5 4 4 4 3 2 3 4 7 6 5 2
19 20 20 19 18 18 18 6 12 13 4 4 6 6 2 2 4 3 4 1 2 2 3 2 2 3 3 2 2 3 4 5 2 5 3 2 3 7 5 5 6 2 1 3
18 19 20 19 19 17 14 10 11 10 3 3 2 4 3 5 3 4 3 1 3 2 0 1 2 4 2 3 4 2 5 4 3 2 3 5 5 4 2 5 4 1 2 9
19 20 20 19 19 18 15 11 11 2 3 3 1 2 1 2 5 5 2 4 3 3 1 2 2 3 2 2 2 3 1 6 5 5 8 8 5 3 3 5 5 8 9 10
21 21 21 19 19 19 19 23 17 15 3 2 3 2 1 1 2 5 4 5 4 2 2 3 3 2 1 2 1 5 5 5 3 2 1 3 3 4 4 7 6 8 13 14
23 23 22 21 21 17 10 2 6 8 6 2 2 2 1 2 2 4 4 3 2 2 2 2 2 2 2 3 4 6 10 5 5 2 2 1 3 5 5 9 7 9 14 13
26 27 26 26 20 14 6 2 5 5 5 2 2 2 1 3 2 2 2 3 2 2 1 2 2 2 3 3 7 4 5 7 6 3 6 2 4 3 8 11 12 13 15 16
29 31 27 18 5 5 6 12 11 6 4 3 1 0 1 5 2 2 3 3 2 3 2 2 2 1 2 5 12 11 4 3 5 7 2 3 9 11 11 12 13 14 14 14
32 22 4 4 3 2 1 5 5 10 5 2 1 2 2 2 1 1 2 0 2 1 2 2 1 3 6 10 10 8 7 6 5 6 5 7 9 12 12 13 13 15 12 13
17 9 5 2 2 13 3 5 2 3 3 3 2 1 1 3 1 1 0 1 1 2 1 2 3 4 12 12 8 6 4 7 12 6 4 5 5 11 14 14 12 13 14 14
6 5 2 8 12 2 1 2 4 3 3 3 1 4 3 2 3 3 0 1 0 2 0 2 2 4 3 2 6 6 8 9 11 1 2 10 13 15 15 13 11 12 16 14
8 9 6 4 3 1 1 1 2 2 2 1 2 1 2 1 1 1 1 1 1 3 2 2 3 4 2 4 5 7 5 9 9 3 4 8 12 14 14 14 14 16 19 21
2 0 2 1 0 2 3 5 2 1 3 3 1 1 1 2 1 2 2 3 3 0 1 4 5 3 5 4 4 3 2 7 8 6 6 11 11 18 19 15 19 22 21 20
2 2 3 2 3 3 3 2 3 2 2 3 1 1 1 0 2 1 2 1 0 2 3 6 3 3 4 5 2 1 4 6 8 9 10 11 12 12 17 20 24 23 19 20
1 0 2 2 1 2 1 2 2 2 2 3 1 1 1 1 1 2 2 2 4 5 5 3 2 2 3 3 1 2 5 5 6 8 10 11 13 13 16 18 21 23 24 21
1 1 1 1 1 1 2 3 3 2 5 1 1 1 2 4 2 3 6 3 5 3 3 2 3 3 2 2 1 3 5 6 7 7 10 14 15 14 18 21 20 21 22 22
2 2 2 1 2 3 2 2 2 4 4 1 1 3 1 1 1 3 4 4 3 6 5 4 5 5 4 2 2 4 6 8 8 10 13 15 19 23 22 15 18 21 21 23

GFSNW_925_spd_009.txt.gz
Wind_Speed
28 28 29 29 31 34 10 2 2 8 8 1 2 0 1 8 10 3 3 4 4 15 18 11 12 9 3 7 10 11 9 2 5 12 12 12 14 15 17 8 8 8 13 21
29 30 30 32 34 32 7 2 1 3 3 2 2 1 2 4 9 6 5 4 2 6 12 6 7 6 6 9 12 11 10 4 3 3 2 8 11 18 17 18 15 21 14 14
28 29 30 32 36 26 4 3 3 2 2 4 6 3 3 5 2 5 4 8 8 10 10 3 9 6 4 10 11 9 7 5 8 8 8 11 8 15 17 15 10 19 22 29
27 29 31 33 38 24 4 2 2 1 3 2 4 5 8 6 3 2 2 4 3 5 4 5 4 6 5 5 8 6 5 5 9 18 22 20 20 23 23 19 18 16 28 23
27 28 30 34 37 21 6 3 3 4 1 7 6 1 7 7 5 2 2 2 6 4 4 1 5 6 7 6 9 11 4 4 2 14 20 21 18 23 18 18 18 15 24 29
25 27 29 31 33 25 6 6 3 3 3 6 5 2 5 4 5 3 4 2 5 4 3 3 3 2 3 1 3 10 3 1 2 6 11 20 9 5 6 7 10 11 12 19
24 24 26 27 28 27 7 7 3 3 2 4 3 3 1 5 4 5 3 2 2 6 4 1 2 4 8 7 8 6 5 4 2 6 13 3 6 2 6 10 15 12 16 18
24 22 23 24 25 26 11 9 3 2 3 4 4 6 4 5 4 4 4 3 4 4 3 2 3 1 2 8 11 12 13 5 2 3 6 17 6 3 2 3 8 9 12 13
20 23 22 23 23 23 15 11 14 2 3 5 1 5 4 3 3 3 3 4 3 1 1 1 2 2 1 4 3 1 10 10 4 2 4 5 5 6 3 2 2 14 9 7
17 19 21 20 22 23 18 4 14 2 2 2 5 5 5 3 4 3 2 1 1 1 3 2 2 3 2 3 5 5 4 2 8 7 4 10 7 4 1 4 7 10 5 2
16 18 20 19 18 20 18 10 8 5 3 7 5 9 4 2 5 3 4 3 1 2 1 1 2 2 1 3 2 5 8 6 4 4 4 6 2 2 4 6 7 5 3 2
15 16 18 20 17 16 15 6 10 6 2 4 9 17 12 7 6 1 3 3 2 1 2 3 1 2 3 4 3 4 5 7 2 6 3 5 7 8 9 6 8 6 4 3
16 17 18 18 18 15 14 11 10 5 3 4 3 6 6 5 3 1 3 2 1 3 2 1 1 5 1 3 6 4 6 5 4 4 3 6 9 5 2 5 5 3 1 5
17 18 20 19 18 17 15 13 10 8 2 3 0 1 2 2 4 3 1 4 5 3 1 2 2 3 4 3 4 5 3 4 4 9 14 9 4 5 3 3 3 5 6 6
18 20 21 21 19 18 19 17 15 15 4 2 3 5 1 1 2 6 4 5 4 2 2 3 3 2 4 6 4 9 8 8 6 6 5 5 5 4 2 5 6 6 9 9
20 22 24 22 19 17 12 3 2 8 13 2 2 2 2 2 3 3 3 3 2 2 2 2 2 4 2 3 5 11 11 14 12 9 3 3 2 3 3 7 8 9 11 11
23 26 28 26 21 15 7 1 4 4 7 2 2 1 2 3 3 2 1 3 1 1 2 3 2 2 2 3 9 6 4 5 7 4 3 3 6 2 6 9 11 13 13 13
27 30 24 14 5 4 8 13 12 7 4 2 2 1 3 5 2 3 3 2 2 3 2 2 3 2 2 5 12 13 14 13 5 6 5 2 8 9 10 10 12 14 13 12
28 20 2 2 1 3 2 5 1 6 3 2 1 3 2 3 2 1 2 2 3 2 2 3 1 3 6 10 7 7 6 6 5 5 5 6 9 10 12 12 12 14 13 12
17 6 3 1 3 10 1 3 3 4 3 3 2 2 2 4 2 3 2 2 2 2 1 2 3 5 14 15 13 8 5 4 8 6 3 2 3 9 12 13 11 12 13 12
5 4 2 5 8 1 2 2 3 3 2 3 2 3 1 2 2 2 1 1 0 2 0 2 2 4 3 4 6 5 5 9 11 7 3 11 10 13 13 12 11 11 14 12
6 9 6 3 2 2 3 2 1 3 1 1 1 2 1 2 1 1 1 1 1 3 2 2 3 4 3 5 8 8 7 7 9 7 5 8 9 12 12 12 12 14 17 19
2 2 2 2 2 1 1 1 1 1 4 4 3 0 1 2 1 1 1 2 2 1 2 3 4 4 5 5 5 6 4 2 5 4 4 6 8 14 15 14 18 21 20 19
1 2 2 2 1 1 1 1 1 1 1 4 3 1 0 1 1 0 1 1 2 2 3 4 3 7 9 8 5 5 2 2 3 5 7 9 10 10 14 17 22 23 20 21
2 2 2 2 1 1 0 1 1 0 2 2 1 1 1 1 1 1 1 1 4 4 3 3 7 11 9 10 8 7 2 2 4 4 6 8 10 11 13 16 18 20 23 21
2 2 2 1 2 1 0 1 2 1 4 1 1 1 1 3 2 3 6 3 5 0 3 6 9 11 12 11 10 8 5 1 3 4 7 10 10 11 15 18 18 19 21 21
3 3 2 2 1 2 1 3 2 4 3 0 0 3 3 1 3 3 4 4 2 5 6 6 7 9 11 10 8 6 5 2 3 7 9 10 14 19 19 13 16 19 20 21

GFSNW_925_spd_012.txt.gz
Wind_Speed
28 29 31 32 37 42 10 4 2 7 5 1 2 2 3 3 2 4 3 2 11 11 14 9 8 10 3 12 11 11 7 2 3 10 8 13 9 8 13 3 6 4 5 14
29 30 33 36 37 30 6 2 2 3 4 1 3 3 4 2 3 4 2 3 4 15 11 6 9 8 5 4 6 10 8 3 2 2 3 7 6 9 10 14 9 16 9 12
29 30 32 37 40 27 4 1 2 2 1 2 1 2 1 4 5 5 7 7 4 6 9 5 7 6 2 5 5 6 9 3 5 3 2 2 4 6 9 9 5 11 21 30
28 29 32 37 42 21 4 1 2 3 2 2 7 3 3 6 4 4 4 2 2 5 6 4 4 7 7 5 4 4 2 3 4 7 13 12 14 17 16 16 18 13 25 25
26 28 31 37 40 19 4 3 3 5 2 11 11 5 1 1 5 5 2 2 5 3 4 6 8 6 6 6 8 5 3 3 3 5 15 16 15 16 18 18 18 18 21 25
24 26 28 33 35 30 5 7 4 3 1 4 2 3 3 3 2 4 7 3 4 6 8 6 5 5 2 3 6 9 5 2 2 4 10 12 6 5 5 9 11 11 11 18
23 24 24 26 29 29 11 7 4 3 2 3 2 3 2 5 7 6 4 4 4 3 3 1 1 1 3 4 5 2 5 4 2 4 9 2 3 6 5 6 12 12 10 14
20 22 23 22 24 26 22 12 5 3 4 3 1 4 3 6 4 5 6 5 3 3 2 2 2 2 2 6 8 9 6 3 2 2 2 8 4 4 2 1 5 6 8 9
17 19 20 21 20 22 18 8 15 3 3 3 9 5 4 2 4 4 3 3 4 2 1 1 1 1 3 4 3 4 8 8 2 1 3 3 3 3 5 3 3 2 4 8
17 16 18 19 20 20 18 5 16 4 3 3 6 2 1 2 2 3 2 3 1 2 1 1 1 2 3 2 5 5 3 3 9 7 3 7 6 4 6 2 4 4 4 4
17 17 17 17 17 16 16 10 8 5 3 7 6 8 5 2 2 3 3 3 1 2 1 1 1 2 3 3 3 5 7 6 3 3 4 7 1 1 2 3 3 4 4 3
17 17 18 17 15 15 13 6 12 13 3 5 8 20 22 11 5 1 3 1 3 2 2 2 1 2 3 5 3 0 3 5 4 6 6 6 4 7 1 3 2 5 2 6
18 18 18 17 15 13 11 9 10 10 2 5 4 4 10 9 8 2 2 1 3 3 2 2 1 3 2 2 4 4 4 5 2 2 4 5 4 5 5 4 3 2 2 8
18 18 19 19 17 13 11 12 11 9 3 3 3 3 2 4 5 2 2 5 5 4 2 2 2 2 3 3 4 3 2 2 4 5 9 3 5 5 4 4 3 5 5 5
19 20 21 20 19 15 13 18 17 16 4 3 4 11 4 3 3 6 5 5 4 2 2 2 3 2 2 3 4 7 4 5 4 4 2 2 2 4 2 5 5 6 8 8
22 23 23 23 21 14 6 3 1 16 18 3 3 2 3 3 2 4 4 3 1 2 2 2 2 3 3 3 4 6 10 9 8 4 4 3 5 5 5 6 6 7 7 8
23 25 25 22 14 9 5 1 3 5 17 3 3 2 3 6 4 2 2 2 1 2 1 2 2 3 5 3 7 9 12 8 8 0 5 2 4 3 7 8 8 11 9 11
25 26 21 9 3 4 6 16 12 5 4 3 2 1 3 4 3 3 3 3 2 3 2 1 2 2 3 5 10 8 11 13 8 4 4 3 7 8 7 7 8 8 8 9
28 19 1 2 2 1 2 5 5 5 4 3 2 3 2 2 2 2 1 1 2 3 3 2 2 2 4 6 7 7 5 3 2 5 6 6 6 8 8 8 8 10 8 9
12 5 1 2 3 8 2 3 2 2 2 3 3 2 2 2 2 2 3 2 0 0 0 1 2 3 10 10 9 7 7 2 7 3 2 1 2 8 9 8 7 9 10 9
6 3 1 4 7 1 1 2 2 2 2 3 3 2 3 1 1 1 2 1 1 1 1 1 2 2 3 7 7 7 7 7 6 6 5 8 8 9 9 8 10 10 12 10
8 10 6 2 1 1 2 3 1 3 1 2 1 1 2 2 2 1 1 2 1 2 2 1 2 1 7 10 11 10 8 8 7 6 4 6 7 7 8 7 10 13 18 21
3 3 2 1 2 3 3 3 1 1 3 3 3 1 1 1 0 2 1 2 3 1 1 2 3 4 10 11 10 10 8 7 5 5 3 3 7 13 11 11 16 19 19 20
1 2 3 3 3 2 1 2 2 2 2 3 2 0 1 1 2 1 2 1 1 2 2 4 2 7 10 9 9 9 9 8 6 5 5 4 7 9 15 17 20 22 19 20
2 2 3 4 2 0 1 1 1 1 2 2 1 1 0 1 2 1 2 1 3 4 3 2 5 7 8 9 10 10 9 6 5 3 3 5 7 9 10 18 21 20 22 23
2 3 3 1 1 3 1 1 1 2 1 1 1 1 2 2 2 2 5 3 5 2 1 2 4 8 9 9 8 8 7 6 4 3 2 5 7 9 11 17 18 20 22 22
3 3 3 1 1 1 1 1 1 1 1 0 1 3 3 1 3 3 4 4 2 3 3 2 5 6 9 7 7 6 7 5 5 3 1 4 9 15 15 10 14 21 21 23

GFSNW_925_spd_018.txt.gz
Wind_Speed
30 31 34 37 32 22 10 3 3 3 6 2 1 2 3 5 2 3 3 3 6 5 4 4 4 8 4 9 6 7 2 4 3 7 2 5 4 6 6 4 4 3 3 7
29 31 33 35 32 21 6 2 1 1 1 3 3 4 1 3 2 4 3 3 4 5 6 5 3 4 4 10 6 8 4 2 2 3 3 2 4 5 5 1 2 6 1 6
27 30 32 34 32 16 6 2 3 3 2 0 2 4 3 4 4 3 4 4 12 4 3 3 4 3 4 4 6 9 7 3 5 5 5 3 3 5 7 7 3 4 12 20
25 28 31 32 30 13 3 3 3 2 4 4 3 2 4 4 6 6 6 4 3 4 4 4 4 3 3 5 4 3 4 4 1 4 7 5 6 7 8 9 15 8 20 17
22 24 28 31 33 10 6 2 3 5 4 3 4 3 2 5 4 6 5 6 3 4 4 3 6 6 3 4 0 3 1 2 1 5 6 7 6 10 12 15 15 18 22 25
20 22 24 27 29 18 8 7 4 1 5 5 3 2 2 3 2 3 4 2 5 9 3 3 3 4 6 7 7 3 5 4 1 5 4 6 5 8 11 5 6 7 7 10
17 18 20 22 24 24 4 4 3 2 3 2 2 2 2 3 3 2 3 5 4 1 1 3 4 7 7 5 4 5 5 4 3 3 5 2 5 2 6 10 7 9 9 13
14 16 16 18 19 20 10 8 3 2 3 4 4 8 1 1 3 2 2 3 1 2 3 3 2 1 2 1 3 5 4 4 0 1 2 6 3 2 3 4 6 5 6 8
13 13 13 14 14 17 16 9 13 2 3 3 4 3 3 4 1 3 1 1 3 3 2 2 4 4 3 3 2 3 5 3 2 2 2 3 4 2 3 3 4 5 5 7
13 13 12 11 12 11 14 2 9 2 2 4 4 4 2 1 2 2 2 3 1 3 2 2 3 2 1 4 6 4 4 3 5 4 3 7 8 3 4 2 4 4 3 4
12 12 12 12 10 10 10 9 5 3 2 8 5 5 3 2 1 3 3 3 1 2 3 3 3 1 2 1 3 5 6 6 3 4 4 7 5 3 3 5 3 2 3 4
10 12 11 11 10 10 10 5 10 7 3 5 11 20 26 14 4 2 1 2 3 4 3 2 2 2 2 2 3 3 4 6 4 7 5 5 4 5 6 2 3 3 2 4
10 12 13 12 12 10 10 13 11 6 3 5 3 10 24 29 33 22 2 2 3 2 3 3 2 1 2 2 5 2 4 4 3 0 5 10 8 6 3 2 3 5 3 5
10 15 14 13 13 14 13 14 12 6 3 4 5 8 10 17 18 25 21 5 3 4 2 2 2 2 2 2 3 2 4 3 4 5 9 7 5 4 3 3 3 1 3 5
13 14 15 15 14 14 15 15 17 17 7 3 7 22 21 16 17 21 18 8 4 2 2 2 3 2 2 2 1 3 3 5 4 5 7 4 5 2 2 3 3 3 5 5
16 16 16 16 15 13 6 2 5 8 21 2 4 7 7 11 16 12 7 4 2 2 3 2 2 1 3 2 3 5 5 4 5 5 4 5 5 3 2 3 3 3 4 5
17 18 19 18 11 6 3 3 1 5 16 2 3 3 6 13 8 3 2 3 1 2 2 2 2 2 4 2 3 2 5 9 13 9 5 5 5 5 6 4 4 6 5 7
19 19 10 1 4 3 4 7 8 3 2 2 3 4 4 8 3 3 2 2 2 2 2 1 2 1 3 3 4 7 8 11 6 11 5 3 3 5 4 4 5 6 5 5
16 5 5 2 0 0 1 4 4 8 3 3 3 3 4 2 3 2 1 2 2 1 2 2 3 2 3 2 6 7 8 6 12 13 6 2 3 5 5 5 6 6 5 5
4 1 2 1 1 6 1 5 2 2 2 2 3 4 2 1 2 2 3 2 2 3 3 3 2 2 5 5 7 5 8 8 7 6 5 2 3 6 7 7 5 6 7 6
2 2 1 4 5 3 2 2 2 2 3 3 3 2 1 3 3 2 2 2 1 2 2 2 2 2 2 7 8 8 8 9 9 8 11 9 7 6 7 6 7 8 11 9
4 4 4 3 1 1 2 2 2 4 3 2 3 2 2 1 1 3 1 2 1 1 1 2 2 1 4 8 10 11 10 10 10 8 9 7 7 7 7 7 8 12 14 18
2 1 1 1 1 3 3 3 2 2 3 3 3 2 2 2 3 2 2 2 2 2 2 3 1 2 5 8 8 11 11 11 10 9 12 12 2 5 9 6 11 16 15 15
1 1 2 3 3 4 1 1 1 2 2 3 2 2 2 2 3 1 2 1 2 2 3 4 0 3 6 7 8 9 12 11 11 9 8 6 6 4 8 14 17 15 15 18
1 2 4 4 2 2 1 1 1 1 2 2 1 1 1 2 1 1 2 2 3 4 4 2 1 3 4 6 7 9 9 10 10 9 8 7 6 4 4 9 14 13 15 15
1 3 2 3 0 2 0 2 2 1 2 2 1 1 1 2 2 1 4 2 4 2 2 1 2 4 4 4 5 7 8 9 9 12 11 10 7 1 5 9 12 14 16 16
3 3 3 2 2 3 2 1 1 1 0 1 1 3 4 1 3 3 3 3 2 4 2 2 2 3 5 5 6 7 9 9 11 12 12 12 7 2 5 5 10 14 16 18

GFSNW_925_spd_021.txt.gz
Wind_Speed
28 31 32 33 31 24 11 4 3 10 13 3 2 2 1 3 3 3 2 4 5 4 4 3 2 6 5 6 6 6 3 4 3 5 1 4 3 5 4 4 3 1 3 7
27 29 32 32 32 20 4 2 2 5 6 4 3 1 1 2 2 2 3 2 3 2 4 4 3 5 2 8 6 8 4 1 2 2 2 2 3 4 4 5 3 5 2 6
24 27 30 32 32 18 2 3 3 4 3 1 2 5 4 5 3 3 3 3 5 4 3 2 6 3 4 8 6 7 6 2 4 5 5 4 2 4 6 6 3 4 9 8
23 25 28 31 32 13 1 3 1 1 3 4 5 3 4 4 6 5 5 4 4 5 3 3 3 2 2 4 3 3 4 3 2 4 6 3 5 5 6 7 11 6 3 9
21 22 26 29 33 13 5 2 1 2 2 4 4 4 4 5 4 5 5 4 3 3 4 4 7 6 3 3 3 3 1 2 2 3 5 5 5 8 10 11 12 14 19 22
18 20 21 25 29 17 7 6 4 1 2 4 3 2 3 4 2 3 4 2 4 6 3 1 3 1 5 5 7 3 4 4 2 4 5 6 6 10 13 5 6 9 7 12
15 17 18 20 22 22 7 6 3 2 3 0 2 5 3 3 3 2 3 3 3 2 2 2 5 7 6 5 2 4 4 4 2 3 4 1 5 2 7 12 7 12 9 12
15 13 14 15 16 17 8 9 4 2 3 4 6 3 3 2 3 2 2 2 1 1 3 3 2 2 2 1 2 3 4 4 2 1 3 7 4 3 5 5 6 6 9 9
12 12 12 12 12 12 13 5 9 2 3 4 3 4 2 2 1 3 0 1 1 4 2 2 3 4 3 3 2 2 4 4 2 2 2 4 3 1 1 4 3 4 6 7
11 12 11 11 10 10 13 3 7 1 3 3 1 4 3 2 2 2 2 2 1 2 2 2 3 3 1 5 5 4 3 2 6 5 3 7 7 5 3 0 4 1 4 6
11 11 12 10 10 8 8 8 4 2 3 6 3 3 2 4 2 3 3 3 1 2 3 3 3 3 3 2 3 5 6 5 3 4 2 7 5 3 4 4 2 3 4 4
16 10 10 13 12 11 8 7 8 7 3 5 12 22 23 14 7 3 2 2 4 4 3 1 2 2 3 3 2 1 4 6 4 7 6 5 5 4 5 2 3 3 4 3
16 16 11 14 13 12 10 14 13 8 3 6 4 8 18 18 32 27 3 2 2 3 3 3 2 2 3 3 4 2 3 4 3 0 4 6 8 8 5 4 4 4 5 4
17 16 14 14 15 14 13 15 13 6 3 4 6 8 11 9 14 21 28 11 3 4 2 2 2 2 2 2 3 3 3 3 3 4 7 8 4 4 3 2 2 3 0 4
17 19 16 15 15 13 14 15 16 16 6 3 6 16 36 24 22 22 24 18 8 2 2 2 3 1 2 1 0 3 4 5 3 4 5 5 8 5 3 4 3 4 5 3
18 18 18 17 16 12 8 2 3 4 13 3 3 5 5 5 18 17 12 11 6 2 3 2 2 2 3 2 2 5 3 3 3 4 7 7 8 8 4 4 3 2 5 5
19 19 21 19 12 8 3 3 4 4 11 2 4 4 4 9 8 5 3 7 3 2 2 2 3 2 4 2 3 3 3 5 8 5 7 5 5 6 3 3 2 3 3 4
19 21 12 4 2 4 3 7 8 4 3 2 3 4 3 5 4 4 3 3 3 2 2 1 2 2 2 3 2 3 6 10 9 5 6 9 9 3 3 3 4 3 4 4
20 9 2 2 2 2 2 5 5 11 5 3 2 2 2 4 2 3 2 2 2 1 2 2 3 3 4 2 2 4 5 4 12 14 12 11 6 6 3 4 5 5 5 5
9 2 2 2 1 4 3 2 2 3 2 2 3 2 4 1 2 2 2 2 3 3 3 3 3 3 6 4 2 4 6 6 7 8 7 5 5 4 4 6 5 6 6 5
4 3 2 5 5 2 2 1 2 2 3 3 3 4 3 5 3 2 1 2 1 3 2 3 2 3 2 5 6 5 6 6 8 8 10 11 12 8 7 6 7 7 10 6
6 6 6 4 2 2 2 2 2 4 3 2 3 3 3 2 2 3 1 2 1 2 1 1 3 2 2 4 5 7 7 8 10 11 9 9 8 8 7 5 6 10 13 15
2 2 1 2 2 4 3 3 2 2 2 3 3 2 2 0 3 1 1 2 2 2 2 3 1 1 3 5 5 7 7 10 9 9 12 13 12 6 2 3 9 14 13 15
1 2 3 3 3 4 3 1 2 2 2 4 3 2 2 2 2 1 2 1 2 2 2 4 1 1 2 4 4 5 8 8 8 9 11 10 11 7 5 5 11 13 12 14
1 1 4 4 3 3 2 1 1 1 2 2 3 2 1 1 1 1 2 2 3 4 4 2 2 2 2 4 4 6 7 8 8 9 7 8 9 6 4 2 5 9 14 16
1 3 2 3 1 3 2 0 2 1 2 2 1 2 1 1 1 2 4 2 4 3 2 2 1 0 2 3 5 5 7 9 10 12 11 10 10 8 4 1 3 7 12 15
3 3 3 2 2 3 2 0 1 3 1 2 1 3 2 0 2 2 3 4 2 3 2 2 3 1 2 4 4 6 8 9 11 13 13 13 15 8 3 1 2 5 9 12

GFSNW_925_spd_024.txt.gz
Wind_Speed
25 28 31 33 33 29 8 2 3 10 10 3 1 3 4 5 4 2 3 3 3 3 3 3 2 7 2 5 6 5 2 4 3 2 0 1 2 4 4 4 3 2 2 6
24 27 30 31 31 25 7 2 2 5 4 4 4 2 2 2 4 3 1 2 2 2 4 4 2 4 1 7 4 6 5 2 3 3 3 3 2 3 3 4 3 5 4 5
23 26 28 31 31 18 7 2 3 4 3 1 2 5 4 4 3 3 3 3 3 4 2 4 4 2 3 6 6 6 5 3 4 5 5 3 3 5 5 5 3 3 5 7
22 24 27 30 32 13 3 3 2 1 3 3 4 3 4 4 4 4 4 3 2 5 3 2 3 2 2 3 3 3 4 3 2 3 5 4 4 4 8 8 5 6 3 6
19 22 24 28 32 12 6 2 3 3 2 2 4 3 4 5 4 4 3 5 4 3 4 5 7 6 3 4 2 4 1 3 2 3 2 5 5 9 9 10 7 12 15 19
18 19 22 24 28 16 7 5 4 1 3 3 2 1 3 5 2 2 4 3 3 4 2 2 4 2 4 5 7 3 4 5 2 4 3 6 5 8 13 5 5 9 8 11
19 16 17 20 20 21 7 6 3 2 3 2 2 4 2 2 3 1 2 3 2 2 2 1 5 7 6 7 3 3 5 4 2 2 4 1 4 3 5 12 4 11 6 9
16 15 14 15 16 16 10 9 4 3 3 4 5 6 5 4 2 2 1 2 1 1 3 3 3 2 1 1 2 4 4 4 2 2 3 7 3 2 5 5 3 8 10 12
11 13 14 13 13 12 16 10 9 2 2 2 5 3 3 2 2 2 2 1 1 3 2 2 3 4 5 3 3 3 4 6 3 3 2 3 3 0 1 2 1 3 6 8
15 8 11 10 11 11 12 3 8 2 3 2 2 3 3 3 2 2 2 3 2 2 2 2 3 3 3 5 6 5 4 3 5 3 3 6 7 4 2 2 4 2 3 6
15 16 8 9 9 9 8 7 7 2 2 5 3 3 2 3 2 2 2 2 1 2 3 3 4 3 5 3 5 5 6 7 4 4 4 7 4 4 4 4 2 4 4 4
14 15 20 7 10 8 7 4 5 7 4 6 16 25 25 17 16 5 3 2 3 4 3 1 2 2 2 3 3 1 4 5 4 7 5 3 2 2 4 3 5 4 3 4
14 16 20 8 11 10 10 11 10 6 3 5 7 9 13 17 26 26 3 3 1 2 3 3 2 2 4 4 4 3 3 4 3 1 4 5 6 6 5 4 5 4 5 5
13 14 20 17 13 12 12 10 10 6 4 4 5 5 9 7 10 13 29 17 7 7 1 2 2 2 3 3 2 3 4 4 4 4 5 6 1 2 3 3 4 5 4 3
15 15 18 17 15 14 12 15 17 13 4 3 7 17 33 35 32 24 21 21 8 4 2 2 3 2 3 0 1 3 4 5 4 4 3 4 7 6 3 5 6 6 5 3
14 15 20 18 17 12 5 2 1 3 7 3 4 6 5 9 12 20 18 13 6 5 2 3 2 2 3 3 2 3 2 2 0 3 2 4 10 10 5 6 6 6 5 6
16 20 21 15 9 5 4 2 0 4 4 2 4 5 4 6 6 4 6 11 4 6 3 2 3 2 4 2 3 3 2 4 5 2 3 4 2 5 9 7 4 1 1 2
18 21 14 6 2 3 5 8 9 5 2 2 3 4 4 6 3 5 4 5 3 2 2 2 3 1 2 4 3 2 1 6 3 4 3 6 11 10 7 2 1 3 3 2
19 14 3 1 2 1 2 6 7 10 4 2 2 3 3 4 3 3 3 1 3 1 1 2 3 3 5 4 4 0 2 2 6 8 7 7 5 8 6 3 4 5 4 3
15 4 2 2 2 7 8 2 2 2 2 3 3 2 3 3 4 2 5 3 2 3 2 3 2 3 3 3 2 2 4 4 5 5 5 6 9 7 7 6 6 6 5 5
6 4 1 5 6 3 2 2 3 2 3 3 3 4 3 2 3 2 2 1 1 2 2 2 1 3 3 3 2 3 4 5 5 5 7 8 9 11 10 9 6 6 8 6
6 8 6 4 2 2 3 2 2 3 3 2 3 3 3 3 2 3 2 2 1 2 2 2 3 1 2 3 3 4 5 5 6 6 7 9 9 11 7 7 6 9 11 12
2 2 1 1 1 3 3 3 3 2 2 3 3 3 3 3 3 2 2 2 2 1 1 3 1 3 2 2 3 4 6 8 8 8 10 12 12 12 8 4 3 8 10 12
1 1 4 3 2 3 3 3 2 2 3 5 4 3 2 2 1 1 2 0 2 2 2 4 2 3 3 3 3 4 6 8 8 9 11 9 10 9 12 9 2 6 8 11
0 1 3 4 3 3 3 2 2 2 3 4 3 3 1 1 1 1 2 2 3 3 4 2 2 3 2 3 4 4 5 5 5 8 8 11 12 9 7 5 2 2 7 11
2 2 2 3 1 3 3 2 2 1 2 3 2 3 2 2 1 2 4 3 4 3 2 2 3 4 3 1 3 3 4 5 6 8 8 9 10 9 10 6 2 2 6 9
2 3 3 2 3 4 2 1 2 2 2 2 2 3 3 0 2 3 2 4 2 3 2 2 4 5 4 1 1 3 5 6 7 9 10 10 14 11 12 6 9 4 5 7

GFSNW_925_spd_027.txt.gz
Wind_Speed
25 29 31 32 31 29 9 2 3 11 9 4 2 2 5 6 4 3 3 4 3 3 2 3 2 5 2 5 5 3 2 4 3 1 1 1 1 3 4 3 4 1 1 4
25 28 30 32 32 23 7 2 1 6 5 3 3 3 4 2 5 4 3 2 1 1 4 4 3 3 2 5 4 6 5 1 3 1 1 1 3 3 3 3 2 5 3 3
24 26 29 32 33 19 4 2 3 4 4 2 2 3 4 4 2 2 2 2 2 3 3 4 4 3 2 4 2 7 5 3 4 4 4 3 3 4 4 4 3 3 5 5
23 24 27 31 33 16 4 3 2 0 2 3 4 2 0 2 4 3 3 3 1 3 3 2 2 2 3 3 5 3 3 3 2 2 3 3 3 4 8 7 4 5 3 5
20 22 23 27 31 15 7 2 2 3 1 2 3 2 2 2 2 1 3 4 1 1 4 5 7 5 2 4 1 3 2 3 2 3 1 4 4 7 8 10 7 9 7 16
18 20 19 22 26 16 6 5 3 1 3 4 1 3 3 2 1 1 2 3 3 3 2 2 2 1 3 6 7 3 5 5 2 3 2 4 5 11 13 6 5 9 8 10
15 17 16 18 18 22 6 5 2 2 2 2 1 4 2 4 5 1 1 2 2 4 4 4 6 7 6 6 3 3 5 4 2 2 2 1 3 3 8 15 5 11 6 8
14 15 14 13 13 16 10 8 3 2 2 2 3 5 4 7 5 2 1 1 2 1 2 3 3 1 1 3 4 2 2 4 2 1 3 6 1 3 6 6 3 11 13 13
13 15 12 13 10 12 12 10 7 2 2 2 3 4 3 3 3 5 2 1 1 3 2 2 4 4 4 3 1 4 4 4 3 3 2 3 4 2 3 2 0 4 6 8
13 12 14 8 10 9 9 2 8 2 1 3 1 3 3 2 2 2 4 1 0 2 2 2 3 4 4 5 7 5 3 2 4 4 3 6 7 3 2 3 3 3 4 6
15 13 13 15 5 7 7 5 2 2 1 5 3 2 2 3 3 2 2 1 1 2 3 3 3 3 5 4 5 6 8 7 4 5 3 7 5 4 5 3 2 3 3 4
15 13 13 17 5 7 7 3 2 6 3 5 14 21 21 17 13 3 3 3 2 4 3 1 2 2 2 5 3 2 4 6 5 7 5 4 3 2 4 4 4 4 2 3
14 15 12 17 16 6 6 11 8 3 2 7 6 7 11 17 27 26 4 3 2 2 1 3 2 3 3 4 5 4 3 4 3 2 3 6 7 5 3 1 3 3 4 3
15 14 14 12 18 10 9 11 6 4 3 3 4 5 8 8 12 23 30 13 1 5 4 2 2 3 3 3 2 3 4 6 5 4 5 3 1 4 2 2 3 5 5 4
17 15 10 18 16 15 13 11 12 13 4 3 6 15 15 20 17 17 25 19 8 2 4 2 3 3 3 0 1 3 4 6 4 4 4 2 5 4 3 6 7 7 5 4
14 17 18 19 19 10 4 1 2 5 7 2 4 5 4 4 12 19 19 13 3 3 4 3 3 3 3 3 4 4 4 3 3 3 1 4 7 7 2 2 6 5 5 5
16 17 19 17 9 4 2 1 2 3 2 1 4 5 4 3 4 4 3 11 4 3 3 3 3 3 4 3 3 4 6 5 2 1 1 4 3 3 7 6 7 5 1 2
17 21 19 10 3 2 4 1 2 3 1 1 3 4 4 7 3 4 3 5 4 5 3 2 2 2 2 3 4 4 3 2 0 4 3 5 7 7 7 5 2 3 4 2
19 18 8 3 1 1 1 3 4 9 2 1 2 3 3 2 2 1 2 2 4 3 3 3 3 2 4 4 4 5 3 2 2 6 6 6 4 6 6 5 4 5 4 4
13 5 2 1 1 7 8 3 1 2 2 2 3 2 3 3 1 0 4 4 2 2 3 3 2 3 1 3 3 3 1 0 1 3 4 4 3 5 6 6 6 6 5 4
5 4 1 5 6 2 1 1 2 2 3 3 3 4 3 3 3 2 1 1 2 1 1 1 2 3 3 2 2 1 2 2 4 5 6 6 8 8 8 9 7 8 9 6
7 8 6 4 2 1 1 2 2 3 2 2 4 4 3 4 2 2 2 2 1 1 1 1 2 1 1 2 3 3 4 4 4 3 4 6 6 8 6 6 6 8 10 9
2 0 2 1 1 2 0 2 2 2 3 3 3 5 3 3 2 1 0 2 2 1 2 3 2 3 2 2 1 2 5 6 5 5 7 8 10 10 8 8 9 3 4 7
2 2 5 1 2 2 1 2 2 3 3 7 6 3 2 2 2 1 1 1 1 0 2 4 3 5 5 3 2 3 4 5 5 5 6 7 8 9 10 10 8 6 2 4
1 3 2 3 2 3 3 2 3 3 3 5 5 4 3 2 2 1 1 1 3 3 3 2 3 5 4 3 2 3 4 4 4 5 6 8 10 9 8 11 9 7 4 3
2 2 2 2 1 3 2 1 3 1 3 2 2 3 3 3 1 2 4 2 4 3 3 2 5 5 5 3 2 1 1 3 4 5 7 7 9 9 8 8 10 8 4 3
1 3 2 2 3 4 3 2 2 3 2 2 2 3 2 2 1 2 2 4 3 2 2 2 5 6 6 5 3 2 3 4 6 6 8 10 10 10 12 8 14 10 6 4

GFSNW_925_spd_030.txt.gz
Wind_Speed
26 29 31 32 33 32 10 3 0 4 2 2 2 2 2 2 2 1 2 2 3 4 3 4 2 3 1 3 3 3 2 4 5 2 2 2 2 3 5 3 4 0 2 3
24 27 30 32 32 26 8 3 2 5 2 3 3 2 2 1 5 4 2 2 1 1 3 2 2 3 2 4 3 4 5 3 5 2 2 2 5 6 3 4 1 5 3 4
24 27 28 31 32 24 6 2 0 3 3 3 2 1 1 1 1 1 1 2 2 3 3 3 4 3 2 1 1 3 3 2 1 3 3 4 5 10 10 5 4 4 5 1
22 25 26 30 33 20 2 3 2 1 1 3 2 1 2 2 2 1 1 1 1 3 3 3 4 3 3 3 5 2 1 2 1 1 2 3 3 7 13 10 7 6 2 6
19 22 24 28 33 18 5 2 2 2 1 2 1 1 1 2 1 2 1 2 4 2 2 1 6 7 5 3 4 3 1 3 1 1 2 6 7 11 12 15 16 14 15 17
18 20 21 23 27 20 6 5 3 2 2 0 2 1 1 2 3 2 2 0 3 3 2 2 1 2 4 5 7 5 5 5 2 1 1 5 7 16 18 11 9 14 11 9
16 18 18 19 20 23 6 5 4 2 1 2 1 2 3 3 5 3 2 1 2 4 6 8 8 9 7 5 3 4 6 4 1 0 2 4 3 3 4 17 12 16 11 12
14 17 17 16 15 16 12 9 3 3 2 2 1 3 3 8 4 2 2 1 2 2 1 2 4 3 3 2 2 3 2 4 2 2 3 7 3 3 6 8 2 16 16 15
14 15 16 13 12 14 12 10 9 2 3 2 2 2 3 2 3 2 0 2 1 1 0 1 3 4 4 4 4 2 3 3 4 3 3 3 3 3 4 3 3 4 11 11
14 16 14 16 13 10 11 4 7 2 2 2 2 2 1 2 1 3 3 2 2 1 3 4 4 3 1 5 7 5 5 3 9 7 5 6 5 3 4 4 4 6 6 7
13 16 14 14 7 8 8 8 4 2 2 6 4 2 4 3 3 3 3 2 2 1 5 3 3 4 5 4 4 6 9 7 5 6 4 8 6 5 4 4 1 1 3 4
12 13 17 12 13 10 6 4 4 5 4 5 7 14 16 15 8 1 2 3 3 2 4 2 2 3 4 5 4 5 7 6 4 8 5 1 6 1 2 2 4 3 2 2
12 11 13 17 11 10 8 10 8 4 3 6 6 5 8 12 24 18 4 3 4 1 4 2 1 5 4 6 6 7 8 7 3 4 8 11 6 7 3 2 2 1 3 4
13 14 13 11 12 19 8 9 9 5 2 4 4 4 6 5 13 15 24 15 1 4 3 3 4 4 5 3 0 6 3 9 9 7 6 3 6 7 4 1 4 6 5 6
13 13 16 12 18 18 13 10 9 12 4 3 6 17 9 10 13 15 16 19 12 3 3 3 4 3 3 1 1 4 7 6 7 4 4 6 3 6 1 4 5 6 7 7
12 12 15 16 17 11 4 1 1 4 7 2 4 4 3 3 6 11 12 10 5 3 3 3 5 2 5 5 4 4 10 6 4 3 5 3 3 4 3 2 6 8 7 6
12 13 18 18 11 5 2 2 1 5 7 2 4 5 2 1 3 2 3 6 3 4 3 3 5 4 6 2 4 3 8 8 6 3 2 4 2 1 3 9 11 11 8 6
14 15 16 8 3 3 3 4 4 7 2 2 2 4 3 7 2 3 4 3 5 6 4 3 4 2 2 4 5 3 6 6 4 4 1 2 5 7 7 7 7 7 6 5
16 15 6 1 0 0 1 5 6 10 2 1 2 3 3 4 3 2 5 5 5 4 4 5 4 3 5 5 6 9 7 3 4 1 4 6 4 6 7 7 8 7 6 5
15 3 2 0 2 7 9 1 1 2 2 2 3 2 3 3 2 5 3 4 3 3 5 3 4 3 2 2 4 6 5 4 3 1 2 2 4 5 8 8 8 9 9 6
5 4 1 5 6 3 2 2 2 2 3 3 3 4 4 3 4 3 4 2 2 3 3 3 4 3 3 4 5 4 3 1 1 3 5 6 8 9 9 10 10 11 11 9
4 5 4 3 2 1 1 2 1 3 2 2 3 4 3 4 4 2 1 1 1 0 2 1 2 2 3 4 3 3 2 1 2 4 4 4 5 6 7 8 8 9 8 6
1 2 1 1 1 2 3 5 2 4 4 3 4 6 3 3 2 1 2 2 1 2 0 2 1 3 3 3 3 3 3 2 0 0 2 3 4 6 6 7 8 7 5 2
1 2 3 1 1 2 3 2 2 2 3 7 7 4 3 2 2 2 1 0 1 1 2 3 2 6 6 4 3 3 3 2 3 3 4 5 6 6 7 7 7 6 5 2
1 1 1 3 2 3 2 2 3 3 4 4 4 4 3 3 3 1 1 2 3 3 3 1 3 7 6 5 4 3 2 2 3 4 5 6 7 6 6 8 8 6 5 3
0 1 1 3 1 2 1 2 3 1 3 3 2 3 3 3 2 2 3 2 4 2 2 1 7 8 6 5 4 4 3 1 3 3 5 5 7 7 7 7 9 8 7 5
2 3 3 2 3 4 2 2 2 1 2 2 3 3 2 4 3 2 2 3 1 1 1 3 6 8 7 6 4 3 2 2 3 2 4 5 6 6 8 8 12 11 8 6

GFSNW_925_spd_033.txt.gz
Wind_Speed
24 28 30 31 32 35 10 4 2 0 2 0 2 3 0 2 1 0 0 1 2 4 4 3 2 3 3 3 2 3 3 5 4 2 3 4 4 5 10 3 4 1 3 3
23 26 28 30 31 27 8 5 3 2 1 1 5 5 3 2 1 1 1 1 2 1 4 3 3 2 3 2 0 2 5 4 5 2 3 3 6 9 6 1 3 4 3 5
21 24 27 30 32 25 3 3 2 1 2 4 1 4 3 3 1 0 1 2 3 5 4 1 6 4 2 1 2 4 1 3 2 1 3 3 6 11 12 8 3 5 8 6
20 22 25 28 33 17 4 3 2 2 2 2 3 2 0 1 1 0 2 3 3 3 4 4 4 6 4 2 3 2 1 2 1 0 3 2 4 8 14 13 11 6 1 7
19 21 24 26 33 14 6 3 3 5 4 4 4 1 2 3 2 2 1 3 3 4 1 1 5 8 6 5 7 5 2 2 1 2 3 6 8 10 11 16 16 16 13 12
16 21 21 23 29 18 7 7 3 3 2 2 4 2 3 4 4 2 1 4 1 4 2 2 2 2 2 3 6 9 6 5 2 1 2 4 9 17 18 15 10 16 14 11
16 17 19 18 21 21 9 6 3 3 1 3 3 4 5 4 5 4 2 3 5 3 3 4 4 4 4 5 4 6 7 5 2 1 3 4 2 3 4 18 13 15 11 10
15 15 15 15 15 17 10 9 5 4 4 6 3 4 4 8 3 2 2 3 3 3 2 3 4 3 4 4 4 7 7 7 2 3 5 10 7 6 5 8 9 18 18 13
14 18 14 12 13 12 9 6 7 2 4 4 6 8 5 4 4 3 1 2 1 2 3 2 3 4 3 4 5 4 6 7 4 2 3 3 4 5 3 5 3 6 14 10
13 14 16 12 11 10 8 3 8 2 3 2 6 3 5 4 3 4 2 2 2 2 3 5 4 5 1 4 5 6 7 7 9 7 4 6 4 6 6 4 5 8 7 5
12 12 14 10 11 8 6 6 4 3 2 8 5 4 6 6 5 4 5 3 4 2 5 4 3 5 6 4 5 6 9 6 6 7 6 7 8 6 4 6 5 4 2 2
11 11 10 15 13 11 2 3 3 4 5 4 10 16 17 16 12 5 3 4 4 4 4 6 3 5 3 8 4 9 6 7 3 7 4 4 6 5 4 2 1 1 1 4
12 12 13 15 10 7 13 4 5 4 3 7 5 1 5 9 15 19 3 2 6 4 5 4 3 6 4 6 9 7 8 8 4 4 8 9 6 7 1 3 4 3 1 1
11 12 13 14 10 13 13 8 7 4 3 3 3 2 5 5 6 13 21 14 5 6 3 3 4 4 5 8 6 8 5 10 10 9 9 1 8 9 7 6 1 2 3 5
10 11 11 14 13 15 9 5 3 5 2 3 6 20 6 1 9 10 11 13 9 5 2 3 3 6 4 3 3 8 7 8 9 5 8 9 2 10 7 4 3 2 5 6
11 11 12 15 16 11 3 1 4 2 3 2 4 5 3 1 2 8 9 9 5 5 4 4 4 4 6 6 11 13 10 14 12 9 3 1 7 4 1 3 1 5 8 8
11 13 13 17 9 3 2 2 1 2 2 1 4 3 0 1 3 1 3 7 3 3 3 6 6 4 6 5 10 5 9 9 7 4 5 4 4 2 2 3 6 9 11 11
11 14 17 8 3 1 0 2 2 1 1 1 3 4 3 6 3 3 3 4 4 5 4 5 8 2 2 5 12 5 5 6 7 6 2 4 2 2 4 5 7 8 9 8
15 15 4 1 1 1 1 4 4 5 1 2 2 3 3 4 2 1 4 4 4 4 6 6 5 5 5 6 7 7 9 8 7 6 2 0 3 3 5 6 7 9 8 7
12 4 1 1 1 8 9 2 1 1 1 2 3 2 3 2 3 3 2 4 3 4 7 5 5 3 8 2 5 2 5 5 6 4 2 1 1 2 5 7 8 9 10 9
5 5 2 4 7 2 1 1 2 2 2 3 3 3 4 2 3 2 4 2 2 3 3 3 3 3 4 7 6 1 2 3 2 2 2 1 3 5 7 8 8 10 11 9
5 4 4 3 2 1 2 1 2 2 2 2 3 6 6 3 3 4 3 3 2 2 1 2 2 2 4 5 4 2 2 2 2 2 0 1 3 5 6 6 8 11 12 10
3 2 2 2 0 1 1 3 0 3 3 1 5 6 4 3 2 3 2 3 2 2 2 2 1 4 3 4 4 3 2 2 3 3 1 2 3 3 4 6 6 8 9 8
2 2 2 2 1 2 2 2 2 2 3 6 7 5 3 3 3 2 3 1 3 2 2 2 2 5 6 4 3 3 4 4 4 4 3 3 4 4 5 6 7 7 7 8
1 2 1 2 3 3 3 1 3 2 3 4 5 4 3 3 4 2 2 2 3 3 2 3 1 5 5 5 4 4 3 3 4 3 3 4 5 6 4 8 9 8 8 6
1 2 2 3 1 2 2 3 3 1 3 3 2 3 3 4 3 3 3 2 2 2 2 2 3 6 5 5 4 3 3 3 3 2 4 4 5 6 6 5 8 8 8 8
2 2 3 4 2 4 2 3 3 1 3 2 2 4 2 5 3 3 2 2 3 4 4 2 1 4 4 4 4 3 2 2 2 1 2 3 4 4 5 6 9 10 9 8

GFSNW_925_spd_036.txt.gz
Wind_Speed
24 26 29 31 33 38 15 5 1 7 9 2 1 2 3 2 1 3 1 3 5 3 3 1 3 7 6 4 4 3 3 4 3 2 5 3 6 5 2 1 3 1 2 2
24 26 30 32 32 27 10 5 2 5 5 1 3 2 3 1 2 1 2 1 3 4 0 1 4 6 1 3 4 2 5 3 3 2 4 4 5 5 8 3 3 3 2 2
23 25 27 31 34 23 5 2 3 1 3 2 5 3 5 4 1 2 2 1 2 2 2 3 3 5 2 2 4 4 3 3 3 3 2 4 5 8 8 5 3 3 4 5
20 23 26 30 35 14 4 3 2 2 3 4 5 3 3 1 2 3 2 3 5 4 3 3 3 5 5 3 3 1 2 2 2 1 4 3 2 5 11 8 6 5 2 6
19 22 24 27 34 15 7 3 3 4 5 4 5 4 2 5 4 4 3 3 1 2 3 3 4 5 4 3 5 3 2 2 2 2 3 2 4 7 7 12 12 11 10 5
18 20 21 23 28 21 8 8 5 2 5 3 3 3 6 4 7 3 3 7 5 2 5 8 7 4 2 4 5 5 4 3 2 1 3 3 7 13 15 10 7 13 11 7
16 20 19 19 20 19 10 6 4 3 3 3 5 5 4 5 5 4 6 6 4 2 4 4 2 2 3 5 3 4 4 3 2 0 2 2 4 3 6 16 11 9 10 6
15 18 19 15 17 14 10 10 5 3 4 7 6 10 5 6 5 3 3 6 4 5 5 0 2 2 2 4 3 4 3 3 2 2 3 7 5 4 4 9 10 13 11 7
14 15 18 15 15 15 9 10 10 2 2 5 7 7 7 3 6 2 3 3 4 3 2 2 3 4 5 4 5 3 4 3 2 3 2 3 3 4 0 4 3 5 11 9
12 12 14 16 15 13 11 5 11 4 2 1 5 4 3 4 4 3 3 4 1 2 2 1 2 3 2 4 5 5 3 3 4 4 4 6 5 6 3 1 1 4 7 6
11 11 11 15 18 12 10 6 7 4 3 6 4 3 4 4 2 3 5 3 2 2 2 2 3 3 4 2 4 6 6 5 3 4 3 6 6 4 1 3 5 5 5 4
11 11 11 14 16 10 11 2 5 4 4 4 12 13 16 11 7 3 4 4 3 4 3 3 3 2 2 3 3 6 4 5 4 7 5 3 5 3 4 3 4 3 5 5
10 11 11 12 12 10 12 6 8 6 2 5 3 1 5 2 6 10 2 1 4 3 2 3 3 4 2 3 5 5 4 3 3 2 4 4 7 5 5 4 5 5 6 6
10 10 10 12 13 12 12 7 9 4 3 2 1 1 2 8 6 5 13 9 6 4 2 2 3 3 3 3 4 2 4 7 5 4 6 1 4 7 8 7 6 4 4 4
9 11 10 12 14 15 7 4 3 2 1 3 5 16 0 6 6 6 7 9 4 1 1 3 3 3 4 4 3 4 4 5 4 4 7 6 3 7 7 7 6 5 2 2
10 11 11 12 16 9 3 2 5 6 1 2 3 4 2 1 1 4 5 4 3 2 2 3 3 5 0 4 7 10 8 6 8 5 4 7 7 8 5 4 5 3 1 3
10 12 12 15 8 3 3 2 3 4 4 1 3 3 1 1 2 1 1 4 1 2 2 3 3 3 1 3 5 7 12 9 7 6 7 4 4 4 6 4 3 3 5 8
12 13 13 4 3 4 4 5 4 5 2 1 2 3 2 2 1 2 3 2 2 3 3 3 3 3 5 5 7 8 16 5 8 8 7 5 6 5 4 2 2 4 5 5
15 7 2 2 2 2 2 6 6 4 3 2 1 3 3 1 2 1 1 3 3 3 3 3 3 4 5 8 12 3 16 2 5 8 6 3 4 5 3 2 4 4 5 5
7 2 2 1 1 8 2 3 0 0 1 0 1 1 3 1 2 2 2 3 3 3 5 3 4 5 11 6 4 6 3 6 5 4 2 2 1 2 4 4 4 4 5 5
3 3 1 3 5 1 1 1 1 1 1 2 2 3 4 1 3 3 3 2 2 2 2 2 3 2 1 4 5 4 6 5 4 4 4 5 5 3 3 4 5 6 8 6
7 2 2 2 1 1 2 1 1 1 2 1 2 3 4 3 2 3 3 3 2 3 2 3 2 1 1 2 4 4 3 1 2 2 4 5 5 4 2 3 5 6 8 9
2 0 1 1 2 4 3 3 3 3 2 1 3 5 3 3 3 4 3 3 3 1 2 2 1 1 1 3 3 3 2 2 5 5 3 5 5 5 6 5 7 9 7 8
1 2 4 2 0 2 2 2 2 1 1 4 5 3 2 2 3 2 3 2 2 2 2 2 3 2 2 3 2 3 4 4 4 4 5 6 6 5 7 8 8 9 8 8
2 2 3 3 1 0 1 2 0 2 1 2 4 3 2 3 4 3 3 3 2 1 2 2 3 1 1 2 2 4 4 4 4 4 4 5 7 6 5 7 8 8 8 9
1 1 1 1 2 1 1 1 2 2 1 1 1 2 3 3 4 3 4 3 1 2 2 3 3 1 3 1 3 4 4 4 4 5 5 5 5 5 5 4 8 8 8 9
3 3 2 1 1 3 1 1 1 1 1 1 1 3 3 4 3 3 2 2 3 4 3 1 4 1 2 1 2 3 3 3 4 4 4 4 4 4 4 5 9 8 8 8

GFSNW_925_spd_039.txt.gz
Wind_Speed
23 25 27 30 35 33 16 7 1 8 9 0 1 2 2 3 1 1 2 1 4 2 3 4 5 3 3 8 11 6 3 4 3 2 5 5 1 6 5 4 4 3 3 5
22 26 28 31 32 23 11 3 2 5 3 2 2 1 1 2 3 2 4 2 2 3 3 3 5 4 3 6 3 5 5 2 4 3 1 4 5 4 4 3 1 4 4 4
23 26 28 31 33 19 4 2 3 2 0 2 2 1 2 2 0 1 2 1 3 2 2 2 3 3 2 2 2 1 2 3 5 6 5 5 5 8 9 5 2 2 4 3
23 25 27 31 34 16 5 4 2 3 2 4 4 2 4 1 1 2 1 2 2 3 2 2 4 3 2 1 0 2 3 3 2 0 3 3 4 7 12 12 5 6 4 8
21 24 24 28 34 14 8 3 3 5 5 4 3 4 5 5 4 5 1 3 1 3 4 3 1 5 3 3 1 3 2 2 3 3 3 3 3 6 7 12 10 7 5 6
19 24 22 24 26 24 9 7 5 2 6 5 2 2 3 6 4 1 4 5 3 5 2 2 2 1 3 7 7 4 4 4 2 3 1 1 6 14 14 7 11 14 11 7
17 21 21 22 21 20 10 5 1 2 3 5 5 8 6 6 5 2 4 6 3 3 6 4 1 5 4 5 3 5 5 4 3 3 2 1 6 2 9 18 9 10 5 7
15 17 17 19 20 17 14 14 4 2 2 5 7 11 4 7 6 3 1 3 2 5 4 2 2 0 1 4 4 2 4 4 2 3 3 6 2 3 5 7 9 12 12 8
14 14 16 18 18 15 10 13 11 2 2 3 5 4 4 3 4 4 2 1 3 3 1 1 3 3 4 3 4 2 1 3 3 3 2 4 2 2 1 3 4 6 15 12
13 14 14 16 18 14 10 5 13 3 1 1 4 3 3 4 3 3 3 6 5 3 2 1 2 2 2 4 6 5 2 1 4 4 2 6 5 3 2 3 4 4 10 10
12 12 13 15 16 12 11 5 8 4 1 4 2 4 3 4 3 1 4 2 3 3 1 2 3 2 3 1 4 6 6 5 4 4 3 6 3 3 3 2 3 3 4 4
10 11 12 13 14 12 11 2 10 4 3 5 13 14 13 12 1 2 3 2 2 2 2 3 3 3 2 3 2 1 3 6 4 7 5 5 6 3 3 4 3 1 4 4
8 10 12 11 13 13 12 8 8 5 2 4 3 2 4 3 2 7 2 1 3 3 1 2 2 4 1 2 5 4 3 5 3 1 2 4 6 4 4 3 4 3 4 5
6 10 11 11 13 16 9 5 7 3 1 1 4 1 4 7 5 5 8 3 3 2 1 1 2 3 3 3 4 2 5 4 6 4 5 4 3 6 7 6 6 6 5 4
5 9 11 12 13 15 4 5 5 3 2 1 4 12 3 6 3 2 2 3 2 1 1 1 3 3 3 3 3 7 3 5 4 5 7 5 5 7 8 8 7 6 5 2
6 9 12 13 15 7 1 1 6 8 6 0 2 3 2 2 0 3 3 3 2 2 2 2 3 3 1 4 4 5 12 7 3 5 5 5 3 5 5 6 7 5 4 1
4 8 12 13 5 4 4 2 4 8 5 2 3 4 2 1 2 1 1 3 2 2 2 2 2 2 2 3 9 10 13 9 14 9 7 3 4 4 5 8 5 4 1 3
8 10 7 5 6 5 3 6 6 7 3 2 2 3 3 4 2 2 2 2 1 2 2 2 3 1 3 5 6 13 19 11 13 5 4 5 7 7 6 5 3 3 2 3
9 7 8 4 3 3 3 8 4 4 4 2 1 2 3 1 2 1 0 1 1 2 3 3 2 2 4 8 9 10 5 4 13 5 6 7 6 6 5 4 4 2 2 3
7 5 3 2 3 7 1 0 1 2 2 1 1 1 3 2 1 2 1 2 2 2 4 2 2 4 13 9 7 3 6 7 5 8 3 2 3 4 3 2 1 1 2 3
4 3 2 4 5 1 1 2 2 2 2 1 2 2 4 2 2 2 2 2 2 3 3 4 3 2 4 11 5 5 3 6 4 2 3 4 5 4 2 2 2 3 4 4
3 5 4 3 2 2 4 2 2 1 2 2 2 3 3 3 2 2 3 3 2 4 4 3 2 2 4 4 5 5 5 4 4 3 3 5 6 5 3 3 4 6 7 8
6 4 3 3 2 5 4 2 4 3 2 2 3 3 1 3 2 3 3 3 3 0 2 2 2 5 4 2 2 2 2 2 1 2 4 5 5 6 3 3 5 6 6 7
3 3 3 3 3 3 4 4 4 4 1 2 2 3 0 2 2 3 4 3 2 2 2 3 3 7 6 4 3 0 1 2 2 2 4 4 4 4 5 7 7 7 7 7
3 3 2 2 3 2 3 0 2 2 1 1 3 3 1 2 3 3 4 3 3 1 5 3 6 7 5 5 4 3 4 3 3 3 4 5 5 4 5 6 7 7 7 7
3 3 2 1 3 4 3 0 2 2 1 1 1 3 2 3 2 3 4 4 3 4 5 4 4 6 3 3 5 4 3 3 3 5 6 4 5 4 3 4 8 7 7 8
2 2 2 2 2 4 3 2 2 1 2 1 1 2 5 3 3 3 3 2 2 3 4 2 4 5 4 3 3 4 3 2 3 3 4 3 4 2 4 5 8 7 8 8

GFSNW_925_spd_042.txt.gz
Wind_Speed
21 24 24 27 29 25 12 2 3 6 8 2 1 2 2 2 0 1 2 2 2 1 2 4 3 5 4 8 7 5 2 4 3 3 3 4 2 6 5 3 4 3 3 6
21 23 24 27 29 19 4 1 2 5 3 2 3 1 1 1 2 2 3 2 3 2 2 4 3 3 3 8 6 7 6 1 3 2 1 2 6 5 3 4 3 6 5 5
20 23 24 28 29 16 2 1 2 2 1 2 3 1 1 1 1 1 2 2 3 3 4 4 3 2 3 3 3 4 4 3 5 5 4 5 6 11 8 6 4 4 6 4
19 23 24 28 28 14 2 4 2 2 2 2 3 3 1 2 1 3 1 2 0 1 1 2 3 2 2 3 2 2 4 4 3 1 2 3 3 11 16 13 16 9 11 11
18 21 23 28 30 10 9 3 3 4 4 4 4 5 6 4 3 4 2 2 5 4 4 2 3 4 2 3 1 2 2 1 2 3 2 1 3 6 14 18 13 12 4 8
16 18 22 25 28 18 7 6 4 1 6 5 2 4 4 4 5 2 4 3 2 5 2 2 3 3 4 5 6 3 2 4 3 3 1 2 6 15 13 10 10 16 13 16
13 16 19 21 22 23 11 5 1 2 2 3 4 7 6 7 5 2 4 5 3 2 6 3 1 4 6 6 3 4 4 4 2 2 2 1 6 2 9 17 8 16 8 7
10 13 16 18 16 15 18 14 3 2 1 2 4 11 5 6 6 2 2 5 2 4 4 3 3 4 1 3 5 4 4 4 2 3 3 7 4 3 6 7 9 16 18 10
11 12 13 16 15 12 9 17 11 3 2 2 3 4 4 3 4 5 3 4 7 4 2 2 3 3 4 2 3 4 4 3 3 2 2 4 2 0 3 4 5 3 14 11
10 10 11 14 15 13 11 9 14 5 2 2 4 3 3 3 3 3 3 6 7 3 2 1 2 3 4 4 6 4 3 1 4 4 3 6 6 3 3 2 4 5 7 11
8 10 9 12 13 12 11 5 11 5 1 4 3 4 3 4 3 2 5 2 1 3 1 1 2 1 3 1 4 6 6 5 4 3 3 7 3 2 4 4 3 3 1 6
6 8 8 10 12 12 10 4 6 4 4 3 8 7 6 7 4 1 3 2 3 3 2 2 2 2 1 1 3 1 2 6 4 7 5 5 5 5 4 3 2 2 2 3
4 6 7 8 11 14 10 4 6 3 2 3 4 3 6 4 2 3 2 1 3 2 2 1 2 4 3 2 4 3 3 3 3 2 4 7 6 5 4 4 4 1 2 4
4 5 6 8 10 12 6 4 5 2 4 2 3 6 4 6 3 4 6 1 3 2 2 1 2 2 2 3 3 2 4 1 3 5 5 6 7 7 6 3 3 3 3 2
4 3 6 9 10 6 7 11 10 7 3 2 2 7 3 4 2 0 2 3 2 1 2 1 2 2 3 3 2 8 4 6 4 5 6 5 7 6 5 7 7 6 6 4
2 3 6 9 7 2 3 1 5 8 3 2 2 2 3 2 1 2 2 2 2 1 1 2 3 3 1 2 3 6 6 9 4 4 9 8 9 3 5 7 6 5 5 3
1 4 6 5 7 5 5 1 4 8 0 2 2 2 2 1 1 0 1 2 1 2 2 2 2 2 2 2 3 6 10 16 14 8 12 6 5 5 6 8 7 7 4 2
2 4 10 10 8 8 3 10 8 7 2 2 2 3 2 2 1 0 2 1 1 1 2 2 2 2 1 4 10 10 9 10 14 5 11 14 5 6 5 6 5 4 2 1
6 12 11 4 2 3 1 5 5 7 3 2 2 1 3 2 1 1 2 1 2 1 2 2 2 2 3 7 9 11 9 10 2 6 10 13 5 6 4 5 5 4 1 2
10 4 2 2 2 3 3 1 2 1 2 2 2 1 3 2 1 2 1 2 2 2 3 2 2 3 8 8 10 10 11 5 3 4 8 6 8 2 1 3 3 3 0 2
3 3 1 1 2 0 3 3 3 3 4 0 1 2 4 3 2 2 1 1 2 2 2 2 2 2 4 7 7 8 7 7 3 3 2 5 7 4 2 3 3 3 3 2
7 10 6 2 2 3 5 2 3 2 2 3 3 3 2 3 1 2 2 2 2 4 4 2 1 4 10 10 9 7 9 8 8 6 2 3 2 3 3 3 3 2 2 5
7 5 4 3 3 6 5 2 4 3 3 3 3 4 2 3 2 3 3 3 3 4 3 2 2 10 10 9 9 6 7 8 6 4 3 4 3 4 4 3 4 3 5 7
3 3 4 3 3 1 3 4 4 4 1 2 2 3 1 2 2 2 3 3 3 2 5 3 5 11 11 8 8 7 6 5 5 5 5 5 4 4 4 4 5 4 6 6
3 3 1 1 3 1 1 2 2 2 2 2 3 3 0 2 3 2 3 3 2 5 1 3 5 9 8 7 5 7 6 5 4 4 4 5 5 4 3 5 5 5 6 7
3 4 3 2 2 3 2 0 2 2 1 1 1 1 3 3 3 3 4 3 3 3 3 4 5 7 7 5 4 4 8 6 4 4 3 3 3 4 4 3 5 5 6 5
3 0 0 2 1 3 3 3 3 3 2 1 2 2 6 3 3 3 3 3 3 3 3 3 4 5 7 6 5 5 6 6 5 6 5 5 6 7 6 3 5 3 4 4

GFSNW_925_spd_045.txt.gz
Wind_Speed
19 23 23 26 28 22 4 1 3 5 10 2 1 1 3 2 2 1 2 1 3 2 3 5 4 7 4 7 7 7 3 4 2 3 1 2 1 4 5 4 4 2 2 6
19 24 24 27 27 14 2 2 1 3 2 2 2 4 3 2 4 3 3 3 3 2 2 4 2 3 2 9 6 7 6 2 4 4 1 2 5 5 3 3 3 6 4 5
19 22 24 28 28 10 1 2 1 2 2 2 1 3 3 2 3 3 3 2 3 2 3 5 3 3 3 2 0 4 3 3 5 6 4 4 8 12 10 6 4 6 12 7
18 20 25 28 30 9 0 3 1 1 1 1 2 1 5 3 2 5 5 3 4 1 2 2 3 3 3 3 5 4 3 5 4 4 3 4 5 9 19 17 19 10 10 12
16 21 25 28 31 8 7 2 2 2 2 2 1 5 5 6 4 6 4 3 5 3 3 2 5 4 3 3 2 3 1 2 2 3 2 4 4 8 15 20 19 18 10 15
14 19 23 25 28 14 6 4 2 0 4 4 1 2 2 4 4 3 4 6 2 4 2 3 2 2 2 5 7 3 3 4 2 3 4 4 6 12 14 10 11 17 12 27
12 16 18 20 20 21 8 4 1 2 2 3 3 5 3 4 3 2 4 6 3 3 6 3 1 5 5 5 3 4 5 4 2 2 3 2 6 2 6 14 11 15 13 4
11 13 15 17 16 12 18 10 2 2 2 2 4 8 4 5 4 3 2 4 2 6 4 3 3 4 2 2 4 4 3 4 2 3 3 7 5 1 4 5 7 14 18 17
11 11 13 16 15 14 9 17 8 3 4 2 3 3 4 3 4 4 4 4 8 5 3 3 1 3 3 2 2 2 4 4 4 1 1 4 4 3 3 3 5 2 6 14
10 10 12 14 13 14 9 10 14 4 3 2 4 4 2 2 3 1 2 7 7 4 3 2 1 3 2 3 5 4 3 2 4 4 3 7 6 4 3 1 5 4 3 7
7 8 8 10 12 13 8 6 10 5 2 3 4 4 2 3 2 2 4 1 3 4 3 1 1 1 2 1 2 4 6 4 3 3 3 7 3 1 4 5 5 4 5 5
6 6 6 7 10 13 5 4 7 5 5 2 2 3 5 3 2 2 3 1 1 2 2 3 2 2 2 0 2 1 2 5 4 7 5 5 4 6 5 3 4 5 5 3
8 6 6 6 9 11 6 5 8 4 3 3 4 3 5 4 0 1 2 1 1 2 1 0 1 2 1 2 4 3 3 1 3 1 4 7 7 6 6 3 4 4 3 1
9 7 5 5 9 8 6 8 9 5 4 3 3 5 2 4 2 1 2 3 3 2 2 2 1 2 3 2 4 2 3 3 2 6 7 8 7 6 7 7 4 2 1 1
10 6 5 5 7 9 13 15 14 12 3 3 2 6 2 3 2 2 2 3 2 0 2 1 2 2 3 2 3 3 2 3 2 7 4 4 8 11 13 8 6 6 6 4
9 5 4 5 8 9 5 2 10 14 6 2 1 3 2 1 1 1 1 3 2 1 1 1 1 2 0 1 2 5 3 3 1 4 11 9 13 16 6 7 6 5 5 5
7 5 10 12 9 6 6 4 3 10 4 2 3 3 2 2 2 2 1 2 1 1 0 0 0 2 1 1 3 5 7 9 12 10 9 7 3 6 20 11 4 6 6 5
7 14 17 17 12 9 7 11 10 5 4 4 2 3 3 4 2 0 1 1 1 0 0 0 1 1 1 3 7 12 13 14 15 6 4 5 8 12 12 4 3 4 3 2
18 18 15 8 4 3 3 3 6 8 6 2 3 2 3 5 2 1 1 1 0 1 1 2 2 1 1 6 12 13 13 9 15 12 9 8 8 11 8 5 1 2 3 2
20 8 3 2 2 5 4 2 2 3 2 3 2 1 3 3 3 3 1 2 1 1 2 2 1 2 5 5 11 11 10 10 12 11 10 6 7 8 6 2 2 2 0 1
5 3 2 5 5 3 3 2 3 2 3 1 1 2 3 2 3 3 1 2 2 1 2 2 1 1 6 9 11 11 8 10 11 12 10 7 7 8 5 4 5 2 1 2
8 13 9 4 3 3 5 1 3 3 2 2 1 2 2 3 2 3 2 2 1 3 4 2 2 4 6 7 10 11 11 10 10 13 8 8 7 8 5 1 2 3 3 4
9 4 4 3 3 6 5 0 4 1 1 1 3 3 2 3 2 3 3 3 2 3 2 2 4 3 7 7 6 9 11 10 10 10 12 11 8 7 9 7 8 7 6 7
3 4 4 3 3 1 3 3 4 3 2 1 1 2 1 1 2 2 3 3 1 2 2 3 2 6 8 8 4 6 8 7 7 7 10 10 10 7 7 9 9 9 8 8
3 3 3 2 3 1 1 1 2 2 2 3 2 1 0 1 2 2 3 3 3 3 4 3 3 5 6 6 6 5 6 6 5 7 5 7 9 9 9 9 9 8 7 6
3 4 4 1 3 3 1 2 2 2 2 2 2 1 1 2 2 3 4 3 4 4 3 3 4 6 6 6 6 6 8 8 7 5 5 4 7 8 11 11 8 7 7 6
3 1 1 3 2 3 3 3 3 6 2 2 3 2 6 1 2 3 4 4 3 3 4 3 4 6 10 8 10 12 11 9 9 9 8 8 6 6 7 6 9 9 7 6

GFSNW_925_spd_048.txt.gz
Wind_Speed
13 16 17 21 22 14 4 2 1 4 8 2 1 2 3 2 3 1 1 1 3 4 6 4 5 7 1 6 7 5 2 4 3 1 2 3 2 3 4 4 3 1 2 7
12 15 17 21 20 10 3 2 1 2 3 1 2 4 1 0 4 4 4 4 4 3 3 4 1 2 2 7 4 6 6 3 4 2 2 2 3 4 3 3 3 7 4 6
11 14 17 20 18 8 6 2 1 1 1 1 2 1 2 2 1 2 3 2 3 3 5 6 3 2 2 1 3 9 4 3 5 6 4 3 5 8 10 4 5 6 15 10
10 14 17 20 18 8 5 2 1 1 1 2 3 1 1 1 2 3 7 4 4 1 3 3 3 3 4 6 4 4 2 3 3 4 4 5 3 5 12 14 16 12 13 18
9 13 16 19 21 6 7 2 2 2 1 2 1 4 5 4 4 5 4 4 5 3 4 2 4 4 2 4 2 3 2 1 2 4 3 2 4 7 9 19 21 15 23 24
8 11 15 18 21 8 5 2 1 1 4 3 1 2 3 4 4 4 4 3 3 6 3 2 2 3 1 3 7 3 3 4 3 3 3 3 7 13 12 5 7 15 14 26
8 10 13 17 19 21 9 3 2 2 2 3 3 3 2 5 6 2 3 6 3 1 4 2 2 6 6 5 4 4 5 4 2 2 2 0 6 2 6 12 14 14 13 17
7 10 13 15 16 15 22 9 3 2 3 1 4 7 4 3 4 4 2 4 2 5 2 3 3 4 2 1 2 2 3 4 2 3 2 7 3 1 4 5 5 5 15 16
8 10 12 14 14 13 11 17 6 3 4 2 3 2 3 2 3 2 3 3 8 3 2 3 2 2 3 1 1 3 3 4 3 2 1 4 4 2 3 4 4 3 4 9
8 8 11 12 12 10 12 10 11 4 4 2 3 3 1 2 2 1 3 6 7 4 2 2 1 1 2 2 4 3 3 2 4 4 3 6 6 4 4 2 4 5 3 7
8 6 8 10 11 8 8 10 13 4 3 2 5 4 4 3 3 2 5 2 3 4 3 2 1 1 1 2 2 4 6 4 4 1 2 6 3 1 2 5 4 4 5 4
7 6 6 8 9 8 8 6 10 10 7 3 2 6 7 0 0 2 1 3 2 1 1 2 1 2 2 1 2 1 2 4 1 6 5 3 3 5 6 3 5 6 5 6
10 8 6 7 8 10 15 13 9 6 4 3 4 4 8 6 5 5 3 2 1 2 2 2 0 1 1 1 3 3 2 2 2 3 3 5 8 5 4 8 11 14 7 5
11 9 7 6 8 11 15 19 10 7 5 4 2 5 4 7 6 4 2 1 3 3 2 1 1 1 2 1 2 2 3 5 4 5 5 12 3 8 9 18 13 14 9 5
12 10 9 7 12 17 20 23 17 9 3 3 2 1 4 5 5 6 3 2 2 2 2 2 0 0 2 1 1 2 2 2 3 4 4 4 9 12 19 16 9 12 11 7
13 10 9 12 17 13 0 3 10 9 4 3 2 2 2 4 4 4 5 4 2 2 2 1 1 1 1 2 1 3 2 4 3 6 9 14 18 16 13 10 16 14 10 8
13 10 14 14 12 4 3 4 3 6 5 3 2 3 4 5 3 3 3 4 1 1 2 2 2 2 2 1 2 4 9 10 15 14 9 7 4 7 13 12 19 20 11 7
15 16 19 20 19 11 9 13 9 6 8 5 3 3 2 6 2 2 2 1 1 2 1 1 1 1 1 2 6 10 14 14 12 8 10 13 14 12 12 17 14 8 5 4
24 22 16 5 4 3 5 7 9 12 5 3 3 1 3 5 2 1 2 0 1 0 1 0 1 2 2 6 12 10 11 9 12 14 12 12 13 14 13 14 10 7 2 4
25 11 2 2 3 9 6 2 3 4 3 3 2 2 2 1 2 2 1 1 1 1 1 2 1 3 5 8 10 9 10 12 12 12 12 13 13 12 12 13 8 3 3 5
5 3 2 7 7 3 4 3 4 2 3 1 2 3 1 1 2 2 1 1 1 2 2 1 2 2 2 4 8 9 8 12 12 10 10 10 9 9 9 11 5 5 4 4
9 12 10 5 3 3 5 1 3 2 3 1 2 1 2 2 1 2 1 1 0 2 3 1 2 3 3 7 9 12 10 10 9 14 10 11 11 10 9 7 7 9 8 9
11 4 4 3 3 6 4 2 3 1 2 1 1 1 1 1 0 2 1 3 2 3 2 3 3 2 5 5 6 9 13 12 12 11 12 11 10 11 9 9 11 11 8 7
2 4 4 3 3 2 4 4 4 3 3 3 2 0 1 0 2 2 2 3 1 2 1 4 2 4 5 5 5 7 11 8 8 10 10 10 9 8 10 9 10 12 10 12
3 3 3 2 2 3 1 2 1 2 3 2 2 2 1 1 1 2 2 2 3 5 4 3 4 5 5 5 6 7 8 8 7 12 9 9 10 8 7 9 13 11 11 11
3 4 5 1 3 3 1 1 2 2 2 2 2 1 1 2 2 3 5 3 6 4 3 3 3 6 7 7 9 9 13 13 14 14 13 11 11 11 11 10 11 10 9 11
4 1 2 3 2 4 3 4 2 8 3 2 2 2 7 1 2 4 4 5 3 3 3 2 4 6 7 8 11 12 13 14 15 16 15 15 14 13 12 8 9 11 12 11

GFSNW_925_spd_051.txt.gz
Wind_Speed
5 7 9 13 11 4 8 3 2 2 7 1 1 2 4 2 0 3 2 2 4 2 3 5 0 5 1 5 5 4 3 4 4 2 1 3 3 3 4 3 4 1 1 6
3 6 9 12 7 5 7 3 2 3 2 1 2 4 3 0 3 3 3 2 2 6 5 4 3 2 2 6 5 6 5 2 4 2 3 2 3 4 3 3 3 5 3 4
2 6 8 12 6 6 4 3 2 1 1 1 1 3 3 1 2 3 2 2 3 3 3 4 4 2 2 3 2 5 5 3 4 5 4 4 5 5 5 3 2 4 13 11
1 5 7 11 3 7 3 3 1 1 3 2 1 1 2 2 3 3 7 5 5 2 3 3 3 2 3 5 4 4 3 3 2 1 1 2 3 4 9 12 13 10 13 16
1 4 7 9 3 6 5 4 4 2 1 1 1 3 4 3 4 4 3 5 6 5 4 2 4 5 2 3 4 3 4 1 2 4 3 1 4 7 7 13 17 13 18 21
2 4 6 9 7 6 4 3 2 3 3 1 2 0 1 2 2 4 4 2 3 7 2 2 2 1 2 5 6 4 4 4 2 2 2 3 6 9 12 4 5 8 13 19
5 5 7 9 12 4 7 5 5 3 1 3 2 1 2 3 3 2 3 5 3 1 5 0 0 6 6 7 5 3 5 4 2 2 2 2 4 2 1 8 6 7 9 14
8 8 8 9 8 12 13 8 3 3 3 1 3 5 3 2 4 4 3 5 0 3 2 2 3 4 2 3 3 3 3 4 3 3 2 6 2 1 2 2 3 3 5 10
11 9 9 8 7 9 16 12 7 4 6 2 3 2 4 3 3 1 3 3 7 1 3 2 2 3 3 1 2 3 4 5 3 2 1 3 4 2 2 2 2 3 5 8
12 10 8 6 7 10 9 10 6 6 4 2 1 3 2 0 0 1 1 5 6 2 1 2 2 1 2 3 5 3 2 2 3 3 3 6 5 4 5 2 3 6 3 8
13 11 7 6 6 7 6 11 8 5 3 1 4 3 3 2 3 1 3 1 3 4 3 2 1 1 1 2 1 3 5 4 3 1 3 4 5 2 3 4 6 7 10 7
13 10 7 6 7 6 8 7 14 15 8 4 4 10 8 4 1 2 2 3 3 1 1 2 2 2 3 1 1 3 0 2 1 6 4 1 5 4 4 2 4 6 9 16
14 12 8 6 8 5 14 17 19 17 4 4 4 3 6 7 2 3 3 2 1 3 1 2 1 1 2 1 2 3 2 4 1 5 3 8 5 2 4 3 8 13 9 13
15 12 9 9 11 9 18 10 9 8 6 4 2 4 4 6 5 5 5 7 3 4 2 2 2 2 2 1 1 2 2 5 5 5 5 14 2 16 13 18 14 9 14 12
16 13 10 11 15 18 20 17 8 6 3 4 3 2 4 4 6 8 6 6 3 3 2 2 1 0 2 1 1 1 2 2 1 4 7 9 14 14 19 15 13 13 13 18
17 14 11 15 16 6 3 3 8 5 5 4 3 1 2 4 5 8 8 5 3 2 2 1 1 1 2 1 0 2 2 2 6 5 11 15 17 16 16 9 15 14 14 15
17 13 14 16 11 1 4 2 3 5 4 3 3 2 3 4 2 2 3 4 2 2 1 3 2 3 2 1 1 2 6 9 12 10 8 11 6 10 17 16 19 22 25 21
16 18 18 13 15 9 5 9 5 6 6 4 3 2 3 7 2 2 3 2 2 4 2 1 1 1 1 2 4 6 11 9 10 7 11 14 18 18 13 17 15 16 15 9
23 23 24 7 2 3 4 7 8 8 2 3 3 3 2 5 2 1 1 1 3 1 1 3 2 2 3 4 4 9 9 5 10 11 11 11 14 15 14 12 13 13 10 6
31 15 3 2 3 9 4 1 3 4 3 3 3 2 1 2 2 2 0 0 1 1 1 1 1 2 4 4 5 5 5 7 8 11 10 13 13 13 15 12 12 12 6 6
7 3 2 7 7 1 4 3 4 3 4 2 2 3 1 1 2 1 1 1 1 2 3 3 2 3 3 5 5 4 4 7 7 7 9 11 11 10 11 11 11 12 13 8
10 14 10 5 3 3 6 1 3 3 3 0 3 2 2 1 1 1 2 2 2 4 3 2 2 3 5 4 4 6 7 7 7 10 9 11 13 13 10 10 10 12 14 13
12 5 4 3 3 6 5 2 3 1 2 2 1 1 1 1 1 1 1 2 3 4 3 4 3 1 2 5 5 6 10 11 10 11 11 12 11 11 10 10 9 10 13 14
3 4 4 2 2 1 3 4 4 2 3 5 3 1 1 1 2 1 2 4 2 3 2 4 2 4 4 5 4 4 8 7 7 10 15 13 13 12 11 12 9 7 10 14
3 3 3 2 3 3 2 2 2 2 4 3 3 2 2 1 1 2 2 3 4 4 3 3 4 4 5 6 5 6 7 6 6 13 12 15 16 13 12 14 12 8 6 12
3 4 5 2 3 1 1 2 1 3 3 2 2 2 3 1 1 3 5 3 4 4 3 3 3 4 6 6 7 9 12 12 13 15 16 17 16 14 14 14 15 15 8 7
3 1 2 3 3 4 3 3 3 8 3 2 3 3 6 2 2 3 4 4 3 3 3 2 4 5 7 8 12 13 13 14 17 18 18 19 20 19 14 10 14 12 9 8

GFSNW_925_spd_054.txt.gz
Wind_Speed
5 4 4 5 5 6 10 2 1 1 4 2 0 1 2 2 4 5 4 2 2 2 3 4 2 2 2 3 6 5 1 5 5 3 3 2 1 8 12 6 5 1 3 3
6 4 3 3 2 12 4 3 2 0 1 1 1 1 2 2 3 2 5 4 2 3 2 3 1 1 2 3 3 2 4 4 5 3 1 2 6 6 6 5 2 6 6 2
7 5 3 3 2 11 6 3 3 1 1 1 1 1 1 2 1 3 2 3 6 4 2 1 5 3 2 3 1 4 1 3 3 5 3 6 8 13 10 9 7 14 14 15
8 5 2 2 4 14 7 0 2 1 4 4 3 1 1 2 2 2 3 4 1 2 3 3 4 4 6 3 2 2 2 2 2 3 4 2 3 9 15 12 16 14 15 18
9 6 3 1 8 15 3 4 3 2 3 2 4 0 1 2 2 4 4 6 6 3 3 3 4 7 3 3 2 2 1 3 1 2 1 2 4 8 8 13 17 17 18 21
11 7 5 2 9 15 4 3 2 2 2 3 3 2 2 2 0 4 5 1 5 9 4 2 3 3 2 3 6 3 2 4 2 2 2 2 6 6 10 7 7 8 13 15
12 9 8 5 5 15 5 5 4 3 4 3 2 2 2 3 3 2 4 5 1 3 3 3 5 7 7 5 5 2 5 4 1 1 1 3 3 2 2 6 6 8 12 12
14 11 9 8 6 6 8 10 3 3 5 4 4 5 3 2 3 3 3 5 4 4 2 2 4 3 4 4 4 2 2 3 2 2 4 3 3 2 1 1 5 4 8 12
16 13 11 9 10 10 12 10 7 3 7 3 2 3 3 3 2 1 3 2 5 1 1 0 1 2 2 3 4 2 3 4 1 2 2 1 3 3 1 2 6 13 13 15
19 15 11 10 9 8 7 7 9 6 5 3 1 2 3 1 2 1 3 6 5 3 1 2 2 2 1 3 3 3 3 2 4 4 3 2 8 6 1 4 4 13 13 14
21 16 12 12 12 4 8 8 7 5 4 4 2 2 3 2 1 2 2 2 1 1 2 2 3 3 2 1 1 1 3 2 2 2 4 4 12 2 5 6 8 12 14 14
22 17 13 13 14 11 13 8 17 16 8 6 7 9 7 4 2 1 2 2 2 2 1 1 1 1 1 1 3 1 2 3 2 2 2 4 7 2 5 9 12 13 16 16
23 18 14 14 11 12 19 22 25 19 5 5 2 4 6 7 2 2 0 1 0 1 3 2 2 1 2 1 2 1 2 6 1 5 3 6 13 6 9 12 12 13 13 16
23 19 17 16 15 23 28 18 7 6 7 4 3 3 4 6 4 3 4 5 3 3 1 1 1 2 2 1 1 2 3 3 5 5 5 14 5 12 16 19 15 13 15 16
24 20 19 16 20 27 13 12 7 6 2 4 4 2 6 6 5 6 6 4 2 2 1 2 1 1 3 2 2 3 1 2 1 4 10 9 16 18 21 18 15 17 17 20
25 22 22 23 24 21 9 2 5 7 7 5 4 1 4 6 6 7 9 6 3 2 1 2 1 1 1 2 1 4 4 5 5 5 9 13 15 17 18 15 18 17 16 17
26 22 22 21 7 4 4 2 6 7 6 3 4 3 2 3 2 2 3 4 2 1 2 1 1 1 2 1 3 7 4 5 8 7 5 8 7 9 16 18 19 19 21 23
26 25 21 14 13 12 6 9 8 6 8 4 4 2 2 3 1 1 2 1 1 2 2 1 1 0 1 3 2 2 6 8 8 5 9 11 15 15 12 15 16 13 13 13
31 28 24 11 4 3 6 11 10 9 3 3 3 3 3 2 1 1 2 1 1 1 1 1 1 2 3 1 2 5 4 5 10 11 11 12 11 12 12 13 10 9 10 10
36 21 4 3 3 15 9 2 2 3 3 3 3 1 3 0 1 2 2 1 1 1 2 2 2 3 4 5 2 4 7 7 8 10 9 9 12 13 14 14 11 10 9 13
8 3 2 8 10 3 3 3 3 2 3 3 2 1 3 1 2 2 1 2 1 0 2 2 1 3 3 3 2 3 5 8 11 11 14 14 13 13 14 14 15 15 14 13
13 16 12 6 2 2 5 2 1 2 3 2 3 2 2 2 1 1 2 1 2 2 4 2 2 2 1 1 3 7 9 11 12 14 14 16 16 16 15 16 17 17 16 15
12 4 4 2 2 4 4 3 1 2 4 4 3 3 2 2 1 2 1 2 2 5 3 3 2 1 1 2 4 7 8 11 13 15 14 16 18 17 17 17 17 18 17 15
2 4 6 2 1 2 2 2 3 2 4 5 3 3 2 2 2 2 2 2 3 3 4 3 2 2 3 5 5 5 10 13 11 12 13 14 15 17 18 18 18 16 17 16
2 3 4 3 3 3 2 3 4 3 5 4 4 4 2 2 2 2 1 2 4 4 2 2 2 4 5 7 7 9 9 9 10 12 12 14 16 16 19 19 18 17 17 16
3 4 6 3 3 2 3 2 3 4 4 3 3 3 3 2 1 4 5 3 5 2 2 2 2 4 6 6 8 12 13 13 14 14 15 16 17 17 19 22 21 20 19 17
4 3 3 3 3 4 4 3 3 7 2 2 2 3 2 3 2 3 3 4 1 1 2 2 5 6 7 9 14 15 14 13 14 15 15 17 19 20 17 15 18 18 19 16

GFSNW_925_spd_057.txt.gz
Wind_Speed
18 13 11 8 5 13 15 2 2 1 2 2 1 1 3 1 5 7 3 3 4 1 3 4 1 5 3 6 9 5 1 4 5 6 3 3 8 9 11 5 4 3 4 1
19 15 13 11 10 20 9 3 3 2 2 2 4 4 3 0 3 4 4 3 4 3 2 3 3 3 2 3 3 2 3 4 5 2 4 4 6 10 7 9 3 5 4 2
20 17 15 12 11 22 6 4 3 2 3 3 2 5 5 6 2 2 1 2 5 3 2 2 5 5 2 4 1 3 3 6 2 3 3 7 8 14 12 11 5 9 12 13
22 18 15 13 11 21 8 4 3 4 4 5 7 2 3 7 5 2 1 2 4 1 2 4 4 4 6 3 2 2 2 2 3 4 5 3 3 11 15 14 16 12 12 14
23 19 16 13 15 24 5 3 4 3 5 6 8 4 3 5 5 2 3 1 0 2 3 4 4 5 2 2 3 2 1 2 2 1 2 2 4 6 7 12 15 15 15 16
23 19 17 14 21 23 6 3 1 3 5 8 9 4 5 5 3 6 6 3 5 7 6 4 4 4 3 1 3 6 2 4 2 1 1 3 6 6 9 7 7 8 11 8
23 19 17 15 23 22 4 6 5 4 6 8 5 6 5 7 4 6 4 3 2 5 3 1 5 6 5 5 4 2 4 3 1 1 2 3 4 2 2 2 2 2 3 5
23 20 17 14 18 27 6 6 4 3 7 7 6 9 7 8 6 7 7 6 3 2 2 2 3 2 3 4 4 2 2 3 2 3 4 1 4 3 1 2 6 7 7 9
25 21 18 14 15 21 10 8 6 0 7 3 5 8 3 7 5 5 3 4 1 4 3 3 3 2 1 2 1 4 2 3 3 1 2 3 8 5 4 3 7 7 9 10
28 23 20 17 14 17 12 7 11 4 5 3 1 3 5 2 1 2 3 2 1 1 3 2 2 1 2 3 5 4 3 3 6 6 4 1 5 7 2 4 3 9 10 10
29 25 21 19 17 17 9 9 9 4 4 5 3 2 4 2 1 3 3 3 2 2 3 0 1 1 2 2 2 2 5 4 4 4 4 6 5 4 3 3 5 10 11 10
28 25 21 22 13 17 16 7 12 14 7 6 8 11 10 7 6 2 3 2 2 2 2 2 1 2 2 1 4 2 3 2 2 2 2 5 2 3 3 4 8 10 12 13
28 24 23 21 18 18 16 18 21 17 6 6 4 5 9 9 7 4 0 2 1 1 3 1 1 1 3 3 1 0 2 3 3 4 5 2 8 1 3 10 12 14 12 13
27 24 24 21 19 25 29 16 12 7 6 4 4 2 5 6 5 5 6 6 3 3 1 1 1 1 1 1 2 3 4 3 3 7 6 10 2 3 13 16 15 15 12 14
27 26 25 25 29 28 21 17 10 7 2 4 5 5 6 6 6 6 7 7 1 1 2 1 2 1 2 0 1 4 3 3 2 2 10 8 12 13 18 16 15 16 16 17
30 28 29 32 30 22 8 3 4 8 7 5 4 2 4 5 7 9 10 7 3 2 1 2 2 1 2 2 2 2 2 1 4 4 10 12 14 14 14 14 16 17 15 16
33 32 32 32 21 10 5 3 5 8 6 4 5 3 2 1 1 2 4 6 3 2 1 1 1 2 2 2 3 7 3 3 5 6 9 9 5 10 17 17 20 21 21 22
34 35 29 24 18 13 7 10 9 7 6 3 4 3 3 2 2 2 2 2 1 2 1 2 2 2 2 4 4 5 1 3 5 3 5 10 14 15 14 17 16 15 14 15
37 32 27 18 6 3 4 11 11 10 5 3 2 4 3 2 2 2 1 1 2 1 2 2 2 3 4 4 5 1 3 3 5 8 11 12 11 13 13 13 14 14 13 12
40 24 6 3 3 19 10 2 1 3 2 3 3 1 3 1 2 2 2 0 1 2 2 2 3 4 3 4 3 2 3 3 4 7 8 10 10 13 15 14 12 13 13 18
9 3 3 8 13 3 1 2 2 1 3 2 3 2 4 1 2 3 1 1 1 2 2 2 2 2 4 7 5 2 1 4 6 8 11 13 13 13 14 15 18 19 18 16
11 21 15 7 2 1 4 1 1 1 3 3 3 3 3 3 1 2 2 1 2 2 2 2 2 2 4 4 2 3 5 7 8 10 12 14 15 16 16 17 18 19 20 20
11 6 4 3 1 3 5 6 2 3 5 5 4 4 2 3 2 3 2 4 2 3 2 2 1 5 2 2 3 5 5 6 9 13 13 13 15 15 14 16 19 21 21 22
3 4 5 2 3 2 2 3 4 4 5 7 5 4 2 1 2 2 3 2 3 2 3 2 4 3 1 4 4 6 9 10 8 10 13 13 14 15 19 18 18 19 20 23
3 2 4 2 4 5 4 6 5 4 6 6 5 4 2 2 2 1 0 3 3 3 2 2 3 2 4 6 6 8 9 9 10 14 12 13 14 14 18 18 19 20 21 22
3 4 5 4 5 3 3 3 5 4 5 3 2 3 3 2 2 2 4 2 5 1 0 2 1 5 5 6 7 10 13 14 15 15 15 15 15 15 18 24 24 23 19 21
3 2 3 2 6 5 4 3 4 8 4 2 2 3 2 3 2 3 4 4 1 2 1 3 6 6 7 7 12 13 12 13 15 15 15 17 20 20 19 17 24 21 21 21

GFSNW_925_spd_060.txt.gz
Wind_Speed
28 24 22 19 17 22 17 4 2 3 5 1 3 2 3 1 8 2 2 2 3 4 3 3 3 5 3 5 4 2 4 3 4 2 3 3 5 4 4 3 4 1 3 2
30 26 24 22 21 32 10 4 3 3 2 2 3 3 5 1 7 8 7 4 3 4 3 2 4 5 2 4 3 4 0 3 3 2 2 4 4 5 3 2 2 2 2 3
31 28 25 24 24 27 8 4 4 3 2 3 5 6 5 5 0 4 1 8 5 3 3 3 4 7 3 3 4 5 3 2 2 2 1 6 5 6 6 3 2 4 5 5
32 29 27 26 26 27 8 3 4 5 4 5 8 2 7 8 4 2 4 4 2 0 3 5 4 3 5 2 2 2 4 3 3 5 6 6 3 6 8 6 7 2 5 7
32 30 29 27 26 31 3 3 3 2 4 8 10 4 5 7 6 3 3 2 4 2 7 3 6 6 4 1 2 1 2 1 3 1 1 1 1 5 4 10 12 12 10 11
33 31 29 28 27 33 7 2 0 1 5 8 8 6 6 7 6 3 6 3 8 9 6 6 6 3 4 2 3 2 1 3 1 1 2 3 3 2 8 4 1 1 5 2
32 32 30 28 31 30 3 6 4 2 4 7 5 7 7 8 1 5 4 6 5 1 3 4 2 5 5 6 5 2 3 2 3 1 3 1 3 3 2 4 6 7 5 8
34 31 28 26 31 22 5 8 1 2 5 5 6 9 8 7 4 8 6 4 3 2 4 4 5 3 3 4 4 1 2 4 2 2 4 4 3 2 1 0 3 6 6 6
32 28 27 25 31 31 9 10 4 3 6 1 3 7 7 6 4 4 3 3 1 1 2 1 1 2 3 5 5 1 3 2 1 2 2 2 4 4 3 2 4 5 6 5
28 26 25 23 27 31 15 7 5 4 4 4 6 3 2 4 2 3 4 1 2 1 1 1 0 2 4 3 4 3 2 1 2 3 2 2 3 5 2 3 1 2 4 5
28 25 24 22 25 28 16 10 6 4 4 4 7 5 3 3 2 2 2 2 1 1 1 1 1 2 1 2 2 1 4 3 3 3 3 3 5 0 1 2 5 7 6 7
28 26 25 23 27 25 19 8 13 16 7 5 15 17 13 8 8 2 1 2 4 2 2 1 1 1 1 2 2 2 1 2 1 4 2 3 4 4 6 8 6 8 9 9
28 25 25 25 25 23 13 19 21 15 4 4 3 5 10 13 10 7 2 1 1 2 1 2 2 2 2 1 1 2 3 3 0 4 4 5 5 9 12 10 8 9 10 10
26 25 24 22 24 20 24 17 11 7 4 4 3 2 5 8 8 8 6 5 2 3 1 2 1 2 1 2 1 1 1 3 3 3 7 5 9 11 11 10 10 12 12 12
25 26 24 23 25 25 27 20 12 8 5 4 4 10 10 8 8 9 8 5 1 0 2 2 1 2 1 1 1 2 3 2 2 2 4 1 3 7 8 8 10 10 11 12
27 27 26 28 30 32 15 3 7 14 11 4 3 1 4 7 9 11 10 6 3 2 2 2 2 1 0 1 2 3 5 4 4 2 4 3 6 6 7 7 7 10 10 13
29 29 31 31 23 7 5 4 12 12 10 3 4 2 2 2 2 3 2 5 2 2 1 2 2 1 1 1 2 8 7 5 5 5 3 1 2 4 7 7 9 12 12 13
32 33 30 22 14 15 11 16 13 10 9 4 4 2 2 0 2 2 3 1 1 4 1 1 1 1 1 2 3 6 5 5 6 4 2 3 6 7 6 11 9 6 7 9
38 35 27 12 5 4 6 16 14 14 7 3 2 4 3 1 2 2 1 2 1 1 0 2 2 2 3 5 6 6 6 4 3 2 2 5 5 6 7 6 7 6 7 6
40 28 5 3 3 19 8 2 3 4 3 3 3 0 3 1 2 2 2 2 2 1 1 2 1 3 3 6 6 6 5 4 3 4 5 5 4 6 7 6 7 7 8 14
9 3 3 7 9 3 3 3 3 0 3 2 2 3 3 0 3 3 2 2 1 2 1 2 2 2 1 7 6 4 4 3 2 2 5 7 7 7 6 8 13 16 18 17
10 19 13 5 2 3 5 1 1 1 3 2 3 2 3 2 1 3 2 2 2 2 2 1 2 1 4 6 4 4 4 4 4 6 7 10 11 11 10 11 13 16 19 22
12 5 4 3 1 3 5 6 1 2 3 4 3 3 3 2 2 3 2 3 2 3 2 3 1 4 3 3 2 2 3 5 6 9 12 13 13 14 14 14 18 21 20 22
3 4 5 3 2 3 2 2 4 2 5 7 4 3 3 2 2 2 3 2 3 2 2 4 3 5 3 2 1 2 6 7 7 10 12 14 15 16 19 19 21 20 19 25
3 2 4 2 3 3 3 3 3 3 4 4 3 3 3 2 3 0 2 3 2 4 4 2 2 4 3 1 2 5 6 6 6 11 11 16 18 17 21 24 21 22 24 25
3 4 5 3 4 3 2 5 5 0 3 2 3 3 4 1 3 3 3 4 5 3 2 2 3 2 1 2 4 7 11 12 12 14 16 17 17 17 21 28 24 27 23 25
4 2 4 3 5 4 3 4 3 5 2 3 3 4 3 2 3 0 2 4 3 3 2 2 2 2 3 4 8 11 12 13 15 17 19 21 22 25 23 17 26 26 26 27

GFSNW_925_spd_063.txt.gz
Wind_Speed
44 38 32 28 24 28 19 7 3 7 8 2 2 2 3 4 4 2 1 0 2 1 2 6 4 3 2 2 2 2 2 4 3 2 5 4 0 1 1 3 3 1 3 3
37 40 35 32 30 35 11 4 3 5 4 3 3 3 3 3 5 2 4 2 0 2 3 4 6 4 5 5 4 2 3 2 3 3 5 2 2 2 1 2 2 2 4 3
42 41 37 34 31 36 9 3 4 2 2 2 2 5 4 3 2 4 3 3 3 1 3 5 4 3 2 4 3 4 3 3 5 5 3 5 4 4 4 4 2 1 4 2
46 42 37 35 35 35 4 3 4 5 6 4 5 1 8 6 4 3 4 3 5 1 3 5 4 4 3 4 3 4 3 3 3 3 4 3 2 5 7 6 5 5 3 2
43 39 36 37 33 36 4 4 4 2 4 4 6 1 4 7 4 3 4 4 4 8 4 4 6 5 2 2 0 2 3 1 2 3 3 3 1 3 4 7 4 5 4 5
37 41 38 34 32 29 6 4 3 4 6 5 5 4 3 7 7 3 6 7 7 7 2 3 5 5 4 4 5 3 3 4 3 2 3 3 4 5 4 1 2 7 7 2
40 40 39 34 34 35 2 4 4 3 3 6 5 6 6 7 2 5 3 6 5 3 1 3 5 6 6 7 5 3 4 3 2 2 2 1 4 1 2 8 6 7 8 4
33 36 38 32 33 40 2 4 3 3 3 3 5 9 7 7 7 5 4 3 1 3 3 4 4 3 3 4 5 5 3 4 2 3 2 2 2 1 2 1 2 5 4 6
27 30 32 30 33 38 7 6 3 3 6 2 5 7 6 5 4 3 2 2 1 2 2 2 4 3 4 2 1 3 2 3 3 2 2 3 1 3 5 3 1 6 7 7
35 30 28 22 25 34 9 5 3 6 4 4 4 4 4 2 3 4 3 3 1 1 2 2 2 1 4 4 5 3 1 2 3 1 1 1 3 7 4 3 2 5 8 6
31 26 22 20 25 32 14 4 4 5 3 4 6 5 4 3 3 4 3 3 2 2 2 2 1 2 3 3 6 5 5 4 3 1 2 3 4 2 1 3 3 4 4 4
25 23 19 20 27 28 16 6 17 18 7 3 17 20 15 8 3 4 2 2 2 2 3 1 2 2 1 4 3 1 2 3 4 3 4 3 5 11 5 5 3 1 3 4
26 22 18 22 26 25 13 20 18 17 4 4 6 4 11 13 10 5 3 1 2 2 1 3 2 3 2 3 3 3 1 2 3 4 3 6 9 6 5 4 3 2 4 7
27 23 18 21 24 19 19 19 12 11 4 4 2 3 4 8 8 8 4 5 3 4 2 2 2 2 0 2 2 3 4 3 4 3 2 8 6 5 4 4 3 1 3 5
27 25 21 21 20 19 20 18 10 8 7 4 3 1 12 10 10 13 14 9 3 3 3 3 1 0 2 1 2 2 4 5 4 4 5 2 2 2 4 2 2 2 3 5
28 25 22 23 22 24 20 3 5 15 10 4 3 0 5 10 11 14 13 9 4 3 3 1 1 1 2 2 2 2 3 4 3 4 3 4 2 2 2 2 3 3 3 6
26 24 24 24 29 14 3 4 14 15 9 3 4 2 3 3 3 4 3 6 2 3 1 2 2 1 2 2 3 3 5 6 6 5 4 3 2 1 6 3 7 8 9 10
28 26 26 24 15 13 7 16 15 10 9 4 4 0 2 3 2 2 3 2 3 4 1 2 2 2 2 2 4 5 6 7 6 5 4 2 3 4 5 8 7 6 6 7
33 31 27 8 5 3 5 14 14 11 4 4 3 4 3 1 2 2 3 2 2 1 1 0 2 1 2 4 4 6 5 5 5 3 3 2 2 5 6 6 7 6 7 6
38 22 2 2 2 13 10 2 3 4 3 3 3 1 2 2 3 2 2 2 2 1 1 1 0 3 1 3 6 6 6 6 5 2 3 3 3 5 6 6 6 6 8 14
14 3 2 8 9 3 2 2 3 1 4 2 2 3 4 1 3 3 1 2 0 2 1 1 2 2 1 3 6 5 5 5 3 1 2 4 6 6 6 7 8 12 15 13
12 14 11 4 3 3 5 2 2 3 4 1 4 3 3 1 2 3 2 2 1 2 1 2 2 2 3 5 5 4 2 0 2 3 5 9 11 13 11 10 12 17 20 22
17 4 4 3 3 5 6 5 2 2 4 4 3 3 3 2 2 2 3 3 2 3 1 3 3 4 4 5 3 2 1 4 5 7 9 12 13 16 15 14 19 19 22 25
3 4 4 4 2 4 3 3 4 3 4 8 5 3 3 2 2 2 4 2 3 2 1 4 3 6 6 4 2 1 3 5 6 9 11 13 14 17 20 19 21 21 20 25
3 4 4 3 2 3 1 1 3 2 4 3 4 3 3 2 3 1 3 3 1 5 4 3 3 6 5 4 2 3 4 4 5 8 9 14 18 19 22 26 25 26 27 25
3 4 4 3 4 2 3 4 7 0 4 2 3 4 4 1 4 3 4 6 5 4 3 3 4 5 4 3 3 4 6 6 9 11 13 16 18 18 22 28 24 25 23 24
4 2 3 2 4 3 3 3 3 4 3 3 3 4 3 2 3 0 3 5 3 3 2 2 5 4 3 4 4 5 6 8 10 12 16 20 23 23 21 15 25 25 27 29

GFSNW_925_spd_066.txt.gz
Wind_Speed
40 40 43 38 38 40 23 7 3 12 11 2 3 3 3 5 5 2 2 3 2 3 3 3 3 3 1 2 1 3 2 4 4 2 4 3 1 1 3 4 1 2 3 4
43 32 31 40 42 43 18 4 3 7 3 3 3 2 4 3 4 4 5 4 3 1 3 5 6 2 4 2 4 2 1 3 3 6 5 2 2 2 3 4 3 1 3 3
42 32 30 34 47 40 16 4 4 2 2 1 3 4 3 4 4 4 4 3 1 0 4 5 4 3 2 3 2 1 3 3 4 5 5 3 3 4 3 4 3 3 3 4
40 22 39 40 39 37 11 3 4 5 7 5 4 4 6 4 4 1 3 1 2 2 3 4 3 3 3 5 5 3 3 3 3 3 4 2 3 4 6 6 4 4 3 4
34 17 43 42 42 30 5 4 4 2 4 3 6 4 7 7 3 4 3 2 1 4 4 3 6 4 2 2 3 2 3 1 3 4 6 6 2 2 3 2 3 2 4 3
37 37 42 44 43 29 4 4 2 4 6 5 5 5 7 7 7 2 2 8 5 6 2 2 3 5 4 4 5 2 3 3 3 1 4 4 4 3 1 1 3 1 5 3
41 15 44 42 36 25 2 4 4 4 3 4 5 6 4 9 4 6 3 5 5 3 2 3 6 8 8 7 6 3 4 3 2 1 4 3 4 4 2 10 6 7 7 5
31 37 39 37 32 23 5 5 2 3 3 2 3 8 7 7 6 4 4 3 1 4 4 5 4 4 4 4 5 5 4 4 3 3 2 4 2 2 1 1 1 4 4 4
20 7 32 30 29 31 4 7 5 3 6 2 2 3 8 5 3 3 3 4 2 4 2 2 3 4 3 2 1 3 5 5 4 2 3 6 4 2 2 2 3 1 4 2
24 17 31 32 24 22 7 4 5 6 4 3 3 2 5 5 4 4 3 2 2 3 2 2 2 1 3 4 6 4 2 1 4 2 2 4 4 3 3 4 4 3 1 3
9 28 31 32 21 21 16 5 4 4 3 3 5 5 3 3 2 5 4 4 2 2 2 2 3 3 3 3 4 5 5 5 3 1 1 6 2 2 5 3 3 2 1 2
23 27 28 24 21 27 15 6 18 17 6 3 11 18 16 7 1 4 3 2 2 3 3 1 2 2 1 3 3 1 2 5 4 6 3 2 3 3 2 3 3 2 1 2
24 23 26 17 23 31 10 16 15 12 4 3 5 4 10 13 9 4 4 1 3 1 2 3 2 2 2 3 4 2 2 1 3 3 2 3 4 3 3 2 2 2 1 4
24 25 20 19 21 24 17 15 10 9 4 4 3 5 4 9 9 7 5 6 4 4 2 3 2 2 1 2 1 2 4 4 4 2 4 5 1 1 4 3 1 1 3 4
27 25 19 23 19 20 21 14 7 7 6 4 2 3 11 11 11 16 13 9 4 3 3 3 1 0 2 1 2 2 3 4 4 4 8 3 3 5 4 2 2 3 3 4
30 24 22 22 19 22 22 2 2 11 10 4 3 2 5 9 11 16 14 8 4 3 3 2 1 1 2 2 2 2 1 2 2 4 4 4 5 6 3 1 3 4 5 8
28 24 23 20 22 21 3 3 9 15 8 3 3 2 3 4 4 4 4 6 2 3 2 2 2 1 3 2 2 1 4 5 5 4 6 3 3 4 2 3 5 6 8 10
25 23 23 19 12 8 5 11 17 10 10 4 4 2 2 3 2 2 3 2 2 4 2 1 1 1 1 2 3 4 5 6 5 4 3 3 3 2 3 4 4 4 6 7
28 28 26 12 1 3 6 11 9 7 4 4 3 5 4 1 1 2 2 1 3 2 2 0 1 0 2 3 4 6 6 5 7 4 4 3 1 4 5 4 5 4 6 6
33 24 5 2 3 14 13 3 3 4 3 3 3 0 3 3 2 2 2 2 1 1 1 1 0 3 1 2 6 6 6 7 7 4 1 2 3 4 4 5 6 7 7 10
9 3 2 7 15 4 2 2 3 0 3 2 2 3 5 1 3 3 1 2 1 1 3 2 2 2 3 3 4 4 5 5 3 2 1 3 4 5 6 7 8 11 13 11
11 12 10 6 3 3 4 0 2 3 4 2 4 3 3 2 2 3 1 3 1 2 1 2 2 3 5 6 5 5 4 3 1 1 3 7 8 10 9 10 13 16 19 21
12 3 4 2 2 3 6 5 2 3 5 4 3 3 3 2 3 3 3 3 2 2 2 3 4 3 5 6 5 4 3 1 3 5 7 8 11 13 13 15 19 19 21 24
2 4 4 4 2 4 3 3 4 3 5 7 5 3 3 2 3 2 4 2 3 2 1 5 3 6 6 6 4 3 2 2 4 7 10 11 12 15 18 17 18 19 19 22
2 2 4 3 2 2 1 2 3 2 5 4 4 4 3 2 4 1 3 3 2 4 4 3 3 6 6 5 4 3 3 3 4 7 7 11 13 15 20 21 19 20 22 22
3 4 4 1 3 1 3 4 6 1 4 2 3 4 4 2 4 3 4 6 5 4 3 3 3 6 6 4 3 4 5 6 7 7 8 12 15 17 20 23 22 19 19 22
3 1 2 2 1 3 3 3 3 4 3 3 3 5 4 3 3 1 3 5 3 3 3 2 5 6 6 5 5 6 6 7 8 9 11 15 19 19 20 15 22 24 24 25

GFSNW_925_spd_069.txt.gz
Wind_Speed
41 43 41 36 42 42 25 4 4 16 18 3 3 3 4 5 5 1 1 2 1 4 3 2 1 2 1 5 2 3 0 4 5 2 2 2 1 1 3 4 2 2 2 2
38 33 35 8 45 42 9 3 3 9 2 3 3 2 4 3 4 4 3 2 3 1 2 3 2 2 4 4 3 2 2 2 3 6 5 3 1 1 2 4 3 1 4 3
36 34 28 7 31 26 6 2 4 2 1 1 2 4 4 4 4 4 3 3 2 0 4 4 3 3 5 4 4 7 4 4 4 5 4 2 2 3 3 4 3 3 3 4
33 34 36 36 38 30 1 1 3 4 6 5 4 1 5 7 5 1 5 2 2 4 2 3 1 3 3 5 7 4 4 4 3 5 3 2 2 2 5 3 4 4 5 7
28 28 34 40 46 38 1 2 3 2 4 5 7 3 5 5 4 4 3 5 3 4 5 3 6 3 3 1 5 3 4 1 3 4 5 5 3 3 3 2 1 3 6 3
30 29 30 15 26 40 3 3 3 4 8 5 5 4 6 7 8 1 3 6 5 4 3 1 3 5 4 2 2 2 3 4 3 2 5 5 4 1 1 3 5 1 5 2
30 35 34 19 36 35 5 4 2 3 4 4 5 6 4 7 3 6 3 5 5 3 4 4 5 9 8 7 7 2 4 3 2 2 3 1 3 2 2 8 3 4 5 4
28 34 8 25 45 20 3 3 1 3 3 2 2 6 6 7 5 4 4 5 1 4 4 5 4 4 4 5 6 7 4 4 3 3 2 4 3 4 4 4 4 3 6 3
28 24 9 33 34 20 4 8 5 1 6 1 4 3 5 5 3 3 3 3 1 4 3 3 3 3 2 1 2 4 5 6 4 1 3 5 3 2 1 2 4 6 5 3
28 10 13 30 33 24 5 7 9 5 4 3 4 3 3 4 4 4 2 1 3 3 2 2 2 1 4 3 5 3 2 3 3 2 2 6 4 3 0 4 4 5 4 3
22 13 19 29 32 20 8 4 9 3 3 3 4 4 2 3 2 5 4 3 3 3 3 2 2 2 3 2 3 5 5 4 2 2 0 6 2 2 5 2 3 4 3 2
2 17 26 29 24 17 11 4 16 17 6 3 5 13 14 5 1 4 3 3 2 3 4 1 2 1 1 3 2 2 2 5 4 6 4 1 2 1 3 2 4 3 1 2
20 23 26 25 18 16 9 8 9 11 4 3 5 4 10 13 8 2 4 1 3 2 1 3 2 2 2 3 4 2 1 2 2 2 1 1 1 2 2 2 3 3 3 2
25 24 25 15 20 19 6 7 5 8 3 4 2 6 4 11 7 3 2 8 5 5 3 2 2 2 1 3 1 2 3 3 4 1 1 1 5 3 3 3 3 2 0 1
24 20 22 14 21 23 6 4 2 4 4 3 2 3 9 13 11 11 11 11 4 2 3 3 1 1 2 1 1 2 3 5 4 5 4 3 3 6 4 4 2 3 2 3
21 26 22 20 17 17 11 3 2 3 6 4 2 3 4 10 10 16 13 7 4 3 3 2 1 1 2 2 2 3 3 2 3 2 4 2 4 5 3 1 3 4 5 7
27 23 22 19 17 17 2 3 5 11 5 3 3 2 4 4 4 4 3 6 2 3 2 2 2 1 2 2 3 2 2 3 4 4 6 3 3 3 5 3 4 6 6 8
24 23 21 15 11 5 2 5 14 7 11 4 3 1 2 3 2 2 3 2 2 4 2 1 1 1 2 2 4 3 4 4 4 3 2 2 5 4 1 2 3 4 6 7
25 24 19 11 1 1 5 10 6 7 6 4 2 4 4 1 2 1 2 1 3 1 2 1 2 1 3 4 5 6 6 5 6 4 4 4 2 2 4 3 5 5 6 6
27 21 3 2 4 14 13 3 3 4 3 3 3 1 3 2 1 1 2 2 1 1 1 0 1 3 3 4 4 6 7 5 7 4 1 2 2 3 3 4 6 7 7 12
7 2 1 3 14 2 3 2 2 0 2 1 2 3 4 1 3 2 1 2 0 2 3 2 2 3 3 3 4 6 6 7 5 3 3 3 4 4 5 6 9 11 13 12
8 9 8 5 2 2 4 1 2 1 5 2 4 4 3 2 2 3 1 3 2 2 1 1 3 3 4 6 5 5 6 7 5 4 3 3 6 7 7 9 11 14 17 19
13 1 3 2 2 3 6 6 3 2 5 5 3 3 3 2 2 3 3 4 1 1 2 3 4 2 4 6 5 5 5 5 3 2 2 5 8 8 7 11 15 17 18 21
2 4 3 5 3 5 4 4 4 2 4 8 4 3 3 2 3 2 5 2 3 1 1 5 3 5 6 6 3 5 6 5 2 4 6 8 8 12 14 15 17 16 17 20
2 3 4 5 2 2 2 1 2 1 7 5 3 3 3 2 4 1 4 3 2 5 4 3 4 5 6 6 5 5 4 3 3 4 5 8 10 11 17 18 17 18 18 19
2 2 3 2 2 1 1 0 3 1 4 2 3 4 4 2 4 3 4 6 6 4 3 3 2 4 5 4 5 4 5 5 6 8 8 9 11 13 17 22 21 17 15 19
2 1 0 1 1 3 2 3 3 4 2 2 3 5 3 3 3 1 3 5 3 4 3 2 4 5 5 4 4 5 6 7 9 11 10 13 16 18 20 14 23 20 18 19

GFSNW_925_spd_072.txt.gz
Wind_Speed
36 38 36 35 7 36 21 4 3 18 19 4 2 3 5 5 4 1 3 3 3 4 3 2 2 3 2 5 1 3 1 5 4 2 1 2 1 2 2 4 2 2 2 3
33 34 34 36 4 32 10 2 2 7 3 3 4 4 4 4 4 2 3 3 2 2 3 3 1 2 3 5 3 2 3 2 3 6 5 3 2 1 3 4 3 0 4 3
30 30 32 35 21 11 5 3 3 2 2 1 3 4 4 4 2 3 3 3 3 2 2 3 3 2 4 5 4 8 5 4 3 5 4 3 3 3 2 4 3 5 4 5
28 27 30 36 29 13 6 2 1 1 5 4 3 2 4 7 4 3 2 3 1 4 2 2 4 2 2 3 7 3 3 4 3 4 3 2 3 3 4 3 4 4 6 8
26 24 25 15 35 18 5 2 1 2 2 4 3 1 4 6 4 4 1 4 1 3 4 2 4 4 2 1 5 3 4 1 2 5 5 4 2 2 3 2 3 5 6 2
23 25 23 16 9 19 2 2 2 2 4 2 2 3 3 6 7 4 4 7 4 4 2 2 3 6 5 4 2 2 3 4 3 2 5 4 4 2 1 2 2 4 5 5
21 25 27 22 17 25 1 3 3 2 3 2 3 5 3 7 3 6 3 3 4 1 4 2 4 7 9 8 7 2 4 3 2 2 3 2 3 2 3 2 1 1 2 4
23 25 24 3 27 25 3 3 1 2 4 2 1 7 6 7 6 5 4 5 1 4 4 4 4 5 5 6 6 7 4 4 3 3 1 4 1 2 4 3 4 4 5 4
22 25 6 23 31 30 9 11 2 2 4 2 4 3 4 4 4 4 3 3 2 5 3 3 2 2 2 1 2 3 5 6 4 1 3 4 1 1 2 1 4 5 4 3
21 13 14 26 34 25 6 8 8 3 4 3 3 2 4 4 4 4 2 1 3 3 2 2 2 1 1 2 3 2 2 3 3 2 1 5 3 1 0 4 4 3 4 3
21 4 26 26 22 21 4 10 12 2 3 3 4 5 4 3 3 4 3 3 3 3 3 2 2 2 2 2 2 3 4 4 2 2 1 5 4 1 4 2 2 3 3 2
16 14 20 26 21 16 5 4 10 14 6 3 3 12 14 5 2 4 3 3 2 3 4 1 2 1 1 3 2 1 2 4 3 6 4 2 1 1 1 2 3 3 3 2
12 15 23 23 27 16 3 2 4 7 4 3 4 4 9 16 8 2 4 1 3 2 1 3 2 2 2 3 4 2 2 3 2 1 2 3 2 1 2 2 3 3 4 5
5 18 19 19 18 15 12 3 4 5 3 3 2 8 5 14 8 4 2 5 5 6 3 3 2 2 1 2 1 2 3 3 3 3 4 3 6 5 5 4 4 4 3 3
16 18 20 21 20 13 12 8 3 4 4 3 1 3 10 14 14 15 13 9 4 3 3 3 1 1 2 1 1 3 4 5 4 4 4 3 3 7 6 6 4 4 1 2
14 17 16 22 20 14 9 3 0 4 5 4 2 2 5 10 11 17 14 8 4 3 3 2 1 1 2 2 3 3 3 3 4 3 3 1 1 5 4 3 2 1 3 4
20 20 18 17 18 13 5 3 1 6 4 3 3 2 4 5 5 4 3 6 3 3 2 2 2 1 2 2 4 4 5 4 2 4 6 2 3 3 5 1 1 3 4 8
25 23 21 19 16 9 3 3 9 4 9 3 3 1 2 3 2 2 3 2 2 4 2 1 1 0 1 3 5 3 4 4 3 5 0 1 4 5 3 0 2 3 6 7
26 22 22 16 5 3 2 7 6 7 5 3 2 4 3 2 1 1 2 2 3 1 1 0 1 1 4 5 5 6 6 6 6 4 4 4 2 3 1 3 4 4 6 6
27 19 4 2 3 12 8 1 3 4 3 3 2 0 2 2 0 1 2 2 1 1 1 1 2 3 4 3 3 5 7 5 7 5 1 2 2 4 3 5 5 5 6 10
5 2 2 4 12 3 3 1 2 1 2 1 2 2 4 2 3 2 0 2 0 2 3 2 2 3 3 2 3 4 6 6 6 3 3 3 3 3 4 7 8 11 12 10
5 14 10 5 3 3 4 2 2 2 4 2 4 4 3 2 2 3 0 3 2 2 1 1 3 4 2 4 4 4 6 7 5 3 3 3 5 6 8 9 10 13 15 18
7 4 4 3 2 4 5 6 4 3 5 5 4 3 3 2 2 3 3 4 1 1 1 3 4 3 2 5 4 4 3 4 4 3 3 5 7 7 8 11 13 15 17 20
2 4 2 5 2 5 5 4 3 2 3 8 4 3 3 2 3 2 5 2 2 2 1 5 3 5 4 6 3 5 5 5 3 4 5 7 8 11 11 11 13 14 18 21
2 3 5 6 2 1 1 2 2 1 7 5 4 3 3 2 4 1 4 3 2 5 5 3 3 3 5 6 5 5 5 4 4 5 5 8 10 11 15 17 16 18 22 22
3 2 2 2 0 2 1 1 2 2 3 2 2 3 4 2 4 3 5 7 6 4 3 3 2 2 4 4 5 5 5 5 7 8 9 11 11 12 15 20 24 24 20 20
2 3 2 3 1 3 3 4 4 6 3 3 3 4 4 3 3 1 3 5 3 3 3 2 3 3 4 4 5 4 4 6 9 9 11 13 15 17 20 14 22 24 21 19

GFSNW_925_spd_075.txt.gz
Wind_Speed
36 36 35 35 47 10 14 5 4 15 23 3 2 2 4 4 3 1 2 5 5 4 2 3 2 0 2 4 2 2 2 4 4 1 3 3 2 1 2 3 1 3 2 0
35 33 31 33 29 6 5 3 3 8 3 2 3 2 1 2 3 1 1 4 3 2 4 3 2 1 2 4 2 2 2 2 3 7 4 1 3 3 4 4 3 0 3 2
34 32 29 37 10 12 7 2 3 2 2 1 3 2 3 3 2 3 4 5 4 4 4 3 4 2 3 3 2 8 4 4 2 5 3 1 3 3 4 4 3 3 1 4
30 28 27 34 19 11 8 3 3 2 3 2 1 3 4 5 3 3 4 5 4 4 3 2 3 2 4 3 7 3 3 4 3 5 6 4 3 3 2 4 2 3 4 7
28 24 26 22 8 6 6 2 2 1 2 3 2 3 2 4 2 2 3 7 2 4 4 1 2 3 3 1 5 4 4 2 2 5 6 5 3 5 2 3 2 2 5 2
23 22 24 20 11 11 3 3 3 1 3 3 0 2 3 4 6 5 5 8 6 6 1 3 3 6 5 4 3 3 3 4 2 1 4 1 4 1 1 2 2 2 3 3
21 23 25 21 7 11 5 4 0 1 3 2 2 2 4 3 3 7 3 4 5 1 5 4 4 7 8 9 8 3 4 3 2 1 3 3 3 2 3 2 3 2 3 2
23 27 25 8 19 21 11 4 1 2 3 2 2 3 6 4 6 5 5 6 1 4 4 4 4 4 3 6 6 7 4 4 3 3 1 3 2 1 2 1 2 2 4 3
26 28 16 10 25 30 7 13 3 3 4 1 3 2 2 4 3 5 4 3 1 5 3 3 3 1 1 3 4 2 5 6 4 1 2 1 3 2 2 1 3 4 5 5
24 21 9 24 24 17 5 7 4 5 4 2 4 2 2 2 4 4 2 3 3 3 3 3 2 0 1 2 2 2 3 3 3 1 1 5 3 2 2 2 3 4 5 5
21 4 19 23 26 11 7 11 9 3 3 2 3 4 3 3 2 4 3 3 3 3 3 2 1 2 1 2 1 2 3 3 2 2 1 4 1 0 4 2 1 4 4 4
18 14 20 27 23 5 8 8 12 14 4 3 3 11 14 4 2 4 3 3 2 3 4 1 3 2 1 2 1 1 1 4 3 6 4 2 3 2 1 3 4 4 4 4
10 14 16 19 21 8 9 8 8 7 4 2 3 3 7 14 5 1 4 1 3 2 1 3 2 3 2 2 3 1 2 3 2 1 3 5 4 2 3 3 3 4 3 4
4 10 13 16 16 17 2 6 9 5 3 3 2 7 4 13 6 1 1 7 5 5 2 3 2 2 2 3 2 3 3 4 4 4 5 4 6 6 5 4 3 3 3 3
5 9 10 13 11 9 4 5 9 8 3 3 1 3 8 13 12 12 10 9 4 2 2 3 1 1 3 1 1 3 5 6 5 5 3 3 3 3 6 6 5 6 5 3
5 10 13 16 12 16 7 3 5 7 3 4 2 2 5 9 8 14 13 7 4 3 3 2 1 1 2 2 3 5 4 3 3 1 1 1 2 3 4 4 4 3 4 6
14 12 14 15 11 2 5 3 0 3 3 3 2 3 4 5 4 4 3 6 3 3 2 2 2 1 2 1 3 3 4 3 2 2 5 1 3 3 6 3 2 2 4 6
18 13 13 11 10 2 3 7 7 4 7 4 3 2 3 5 2 2 3 2 2 4 2 1 1 1 1 3 7 2 4 5 4 6 1 1 2 4 4 2 1 3 5 5
20 17 14 13 3 1 3 7 7 6 3 3 2 4 3 3 1 1 2 2 2 1 1 1 2 1 4 6 4 5 6 5 6 5 3 3 2 3 2 2 3 4 6 4
19 18 1 0 4 10 6 1 3 4 3 3 2 0 1 2 0 1 2 2 1 0 1 0 2 4 4 4 4 4 8 6 8 5 0 2 2 4 3 4 3 3 5 8
6 1 1 1 9 2 3 2 2 1 2 2 2 3 3 1 2 2 0 2 0 1 3 3 2 3 3 1 3 2 6 7 5 3 2 4 4 2 3 5 5 9 10 9
3 6 6 3 3 3 4 2 2 2 4 2 4 3 3 2 1 3 1 3 2 3 1 1 3 4 3 2 3 4 6 8 6 5 4 2 1 3 5 6 7 10 13 19
5 1 3 2 2 4 6 6 4 2 5 5 4 3 3 2 1 3 2 3 3 2 0 3 4 3 2 4 4 5 5 7 6 4 2 2 4 5 5 8 9 11 16 21
1 3 4 5 3 6 6 4 4 3 3 8 3 3 2 2 3 2 4 2 3 1 2 5 3 4 4 6 4 5 6 5 4 2 2 4 6 9 9 9 12 14 18 24
3 2 5 6 3 1 1 2 2 1 5 6 4 3 2 1 3 2 3 3 3 5 5 3 3 3 5 6 5 5 5 5 3 2 4 6 7 9 14 17 16 19 24 24
0 2 1 1 2 1 3 3 2 2 6 2 3 3 3 2 4 3 7 7 6 4 3 3 2 3 4 5 5 5 6 6 4 5 6 6 7 10 14 19 22 19 18 20
2 3 3 2 1 3 3 4 4 6 3 3 3 5 7 3 2 2 4 5 4 3 2 2 4 4 6 6 6 7 6 4 3 4 5 7 10 12 13 11 19 18 19 17

GFSNW_925_spd_081.txt.gz
Wind_Speed
34 35 22 28 20 6 14 7 5 21 20 3 1 2 3 4 7 2 3 2 2 4 3 4 4 4 2 5 3 4 5 4 4 3 1 1 4 10 7 4 4 4 8 4
32 31 22 24 23 15 8 4 4 9 6 1 1 3 6 7 4 5 2 2 2 1 3 4 7 5 4 4 4 6 5 4 1 2 3 2 6 11 11 3 3 5 3 7
28 25 25 22 19 11 5 3 3 3 2 2 3 7 8 6 7 7 3 3 4 5 7 6 7 7 4 3 3 4 5 5 6 6 5 5 6 12 14 7 6 8 7 12
24 22 22 17 15 14 3 4 4 2 3 2 9 4 7 8 5 3 4 3 2 2 4 10 7 6 6 5 1 1 3 4 4 8 6 5 7 10 12 12 11 8 7 10
22 22 19 12 8 9 8 3 3 2 7 5 4 3 9 7 5 7 5 7 6 7 9 7 6 4 6 5 4 2 3 2 1 4 6 5 9 9 7 9 8 7 8 9
20 20 14 6 5 5 5 2 2 1 4 6 3 6 5 5 1 7 9 7 9 12 11 11 11 11 8 6 6 5 3 2 3 2 4 2 2 9 7 3 6 6 2 4
23 19 7 1 8 10 6 3 2 4 7 6 4 5 7 4 5 7 7 8 6 4 4 3 7 9 9 10 9 5 3 2 1 2 4 1 2 2 2 4 2 2 4 3
22 9 5 10 9 7 5 3 2 4 7 7 10 8 7 9 10 7 8 6 6 1 4 1 3 2 3 5 6 8 6 2 1 2 3 2 4 3 1 2 3 4 4 4
17 13 21 17 10 16 7 7 3 0 6 4 2 3 3 7 5 6 4 2 3 4 2 1 2 3 2 2 2 3 4 3 3 1 1 2 4 3 1 2 2 5 4 7
13 12 14 9 7 13 6 5 6 1 5 3 3 3 3 1 1 4 3 2 2 2 2 3 3 2 2 1 2 2 2 2 3 2 2 1 3 4 1 3 3 3 2 3
9 8 8 8 10 9 7 6 8 3 4 4 3 3 3 1 2 3 3 2 2 1 1 1 1 1 1 2 0 2 2 2 1 1 2 2 8 4 3 3 2 1 1 1
8 10 10 12 21 17 6 5 9 12 6 4 4 5 5 3 3 3 1 3 1 2 0 1 1 2 1 2 1 2 2 3 3 3 3 2 7 2 3 3 2 1 2 1
7 9 7 3 10 19 14 5 5 5 4 3 3 1 2 3 4 2 3 1 3 1 3 2 1 2 1 2 2 2 3 3 3 4 4 6 5 4 3 1 1 1 1 0
7 6 9 11 10 12 15 6 6 2 2 2 2 1 1 5 4 3 4 5 2 2 2 1 1 2 0 1 3 3 3 5 4 6 9 3 6 5 2 4 2 2 2 0
5 6 4 4 5 6 7 10 11 6 3 2 3 2 1 4 5 3 1 2 2 2 1 1 1 1 2 1 2 6 7 6 5 2 5 2 4 2 2 5 5 3 3 2
6 6 5 4 3 3 4 1 7 9 4 1 3 2 1 3 3 3 5 4 2 2 2 1 1 2 2 2 3 3 7 3 2 1 3 3 3 2 1 4 3 2 1 1
9 6 6 4 1 1 2 2 3 7 3 1 2 2 1 2 2 1 1 2 2 2 0 1 1 2 2 3 4 3 3 5 5 3 4 2 2 1 4 3 3 3 1 1
14 11 9 5 5 3 2 5 4 4 2 2 2 1 2 0 2 2 1 0 1 1 0 1 2 1 2 5 9 4 3 5 5 5 2 3 4 4 4 3 2 2 2 2
14 14 11 3 3 2 2 3 5 3 0 1 2 3 2 1 1 0 2 1 2 1 2 2 2 3 6 5 5 7 9 7 6 8 5 4 3 4 5 3 3 3 3 4
19 9 2 2 0 3 5 4 2 1 1 0 3 1 2 2 2 2 2 0 1 2 2 1 4 5 12 6 5 4 7 7 10 9 4 4 3 5 5 4 1 2 4 7
1 1 2 1 3 2 1 2 2 1 3 3 2 1 3 1 2 2 1 1 0 2 2 2 3 4 4 6 8 7 8 9 9 3 5 5 5 5 4 2 2 4 6 6
4 6 6 4 2 1 2 3 1 3 2 2 3 3 2 2 1 1 1 2 1 3 2 2 4 4 6 7 8 8 9 9 8 6 7 7 6 4 2 2 3 5 5 7
3 3 3 1 2 4 6 5 3 3 4 4 3 3 2 3 2 2 2 3 4 1 3 4 5 3 6 7 8 7 6 8 8 7 7 6 5 2 1 3 4 5 8 10
2 3 4 4 4 5 3 1 2 2 1 6 5 3 2 1 3 3 4 1 2 3 4 6 3 7 9 8 7 9 9 8 5 4 6 5 3 1 2 3 4 6 9 12
2 3 5 6 2 1 2 2 2 1 3 5 4 2 2 2 2 2 3 3 5 5 5 2 2 8 9 9 8 8 8 7 7 7 6 4 2 1 3 3 5 7 9 10
1 4 3 2 2 2 3 4 3 4 5 1 2 2 2 4 3 4 8 4 6 4 3 1 6 8 7 8 7 6 8 9 8 8 6 4 2 2 4 7 6 6 8 11
4 4 3 2 2 2 2 3 4 11 6 2 2 4 5 3 2 4 5 6 3 0 2 2 3 7 7 7 6 8 9 9 9 7 5 4 2 2 5 5 6 9 11 11

GFSNW_925_spd_084.txt.gz
Wind_Speed
32 29 30 28 28 12 19 7 5 12 13 2 1 2 3 4 3 3 4 6 11 4 4 5 2 2 4 2 5 2 1 3 2 0 2 3 4 5 3 3 5 4 5 3
28 26 26 24 23 16 9 4 4 7 2 1 2 5 7 8 4 8 4 4 5 2 4 3 6 3 2 3 2 4 5 3 2 1 2 2 4 9 8 2 3 7 3 4
27 25 23 20 18 12 5 4 3 1 2 0 4 6 6 4 4 8 5 3 2 3 2 5 5 3 1 1 2 5 3 4 5 3 2 4 6 10 11 5 4 4 5 12
26 25 22 16 14 8 5 3 3 2 2 1 2 1 8 10 5 3 4 3 4 4 5 7 5 4 5 3 3 3 3 3 5 5 4 4 6 7 10 10 7 6 11 11
25 24 17 13 10 7 5 3 3 4 2 3 1 2 8 10 6 8 8 7 12 12 11 9 5 1 5 4 2 3 3 1 3 3 6 7 6 10 8 8 8 7 10 7
27 21 13 12 9 6 3 1 1 1 2 2 6 6 8 7 2 5 9 6 9 8 8 6 3 5 4 3 4 4 3 2 3 1 4 4 3 5 6 4 6 4 4 3
25 12 8 11 16 11 3 2 3 2 4 3 3 8 9 10 11 5 8 10 5 1 8 9 0 4 6 7 7 6 1 3 2 2 2 3 2 3 2 4 3 4 6 5
21 9 12 13 20 11 3 3 4 2 4 6 7 7 6 6 7 4 5 5 4 6 5 2 2 2 2 4 4 6 5 2 2 2 1 4 3 2 3 4 3 4 4 4
11 14 13 14 16 14 4 7 7 3 3 2 3 2 3 3 4 3 1 3 3 3 2 1 3 3 3 3 1 2 3 2 1 3 1 2 1 3 2 3 1 3 3 4
6 7 15 16 15 11 4 6 9 3 4 2 4 2 3 3 3 3 1 2 2 2 3 3 3 1 1 2 4 4 3 2 1 2 1 1 4 3 0 1 4 2 3 4
7 4 13 23 20 11 8 7 11 6 3 2 4 4 3 3 2 0 1 2 2 2 2 2 1 2 1 2 1 3 2 2 1 2 1 4 4 2 0 2 1 3 1 3
4 4 6 15 24 22 6 6 9 12 6 3 3 3 3 2 2 2 1 1 2 3 2 1 1 2 1 1 2 0 2 2 1 1 2 0 4 3 2 2 2 1 2 4
3 3 4 10 18 22 13 6 10 3 3 2 2 1 1 3 3 2 1 2 4 2 1 2 1 2 2 2 3 2 4 3 2 4 1 4 5 3 4 2 1 3 4 5
6 3 7 12 13 15 16 8 9 3 3 2 0 1 0 4 4 3 3 3 4 3 1 1 1 1 1 2 2 2 3 5 4 4 6 4 3 2 5 5 4 3 5 4
4 4 3 6 8 9 11 10 13 8 2 1 1 1 1 3 3 2 4 7 3 1 2 1 2 1 1 2 2 4 6 6 4 5 1 3 4 3 2 5 5 3 4 4
3 4 4 4 4 7 6 2 7 13 5 1 0 1 2 1 2 3 3 3 1 1 0 1 1 1 1 2 3 5 6 3 3 5 4 4 6 4 2 3 5 5 4 5
6 3 3 2 0 3 3 1 7 12 5 1 2 2 1 1 2 1 1 1 0 0 0 2 1 2 2 3 4 4 6 7 6 6 6 2 4 3 5 7 8 6 5 3
11 8 5 3 3 6 1 4 5 6 3 2 1 3 1 1 2 2 0 1 1 1 1 0 2 1 2 5 8 5 6 7 7 7 4 4 7 7 6 7 5 4 3 2
13 8 5 2 2 2 2 4 6 4 1 1 2 3 3 2 0 0 1 1 1 1 2 2 2 3 6 8 8 9 7 7 7 8 6 6 6 7 6 5 4 2 2 1
13 7 2 1 3 3 0 1 2 1 1 0 2 1 0 2 0 2 1 1 2 2 3 2 3 5 10 7 5 6 9 7 11 7 4 4 4 6 6 5 3 3 1 2
5 4 1 3 2 2 2 1 1 1 2 2 0 1 3 1 2 2 0 2 1 1 3 1 3 4 4 7 9 7 8 9 7 4 4 7 6 7 6 5 4 2 1 2
5 4 3 1 2 1 2 2 1 3 3 1 0 1 1 1 1 1 1 1 2 5 1 0 4 4 2 4 6 7 8 9 8 9 7 9 9 9 7 4 2 1 2 5
5 2 2 3 2 2 7 6 3 2 3 4 3 1 1 1 0 2 1 1 4 2 1 4 5 2 3 4 5 6 7 12 9 8 12 11 9 6 4 2 1 2 5 6
2 3 3 5 3 5 4 3 4 3 2 3 3 3 3 1 1 2 3 2 2 3 3 6 3 6 7 6 5 5 7 9 7 6 10 9 7 4 2 1 2 4 6 9
2 3 5 6 3 1 1 2 1 2 3 4 3 2 2 1 1 2 2 2 4 6 5 3 3 4 7 7 6 7 7 7 7 8 8 8 6 3 1 2 3 6 7 8
1 4 2 1 2 1 1 2 2 2 3 2 2 3 3 4 3 2 7 5 7 4 3 3 1 4 5 6 6 6 8 9 10 11 10 8 6 4 2 4 5 4 7 10
4 4 3 2 0 3 3 4 4 9 3 3 3 6 8 1 2 4 5 5 4 1 3 2 2 5 6 6 6 7 10 10 12 11 10 9 6 2 1 2 4 8 11 11

GFSNW_925_spd_087.txt.gz
Wind_Speed
33 32 28 23 12 9 15 6 5 4 3 3 2 1 2 7 6 7 2 4 4 3 4 3 2 3 3 7 3 3 6 2 3 3 4 4 3 6 1 4 5 4 4 3
31 29 23 18 12 10 4 3 3 1 4 2 1 4 4 3 4 4 4 2 3 2 3 4 3 3 2 1 2 2 4 3 3 8 5 6 4 7 4 2 3 4 4 2
30 27 20 15 11 4 2 3 3 2 1 1 2 3 2 2 4 4 3 4 2 1 3 1 3 1 2 1 1 3 1 3 3 4 5 4 5 8 12 4 4 1 1 8
29 24 16 13 10 3 1 2 2 3 2 3 5 2 3 3 4 5 6 6 5 2 4 4 3 1 3 2 2 2 4 2 3 4 1 4 5 5 10 9 2 4 6 3
25 16 15 13 9 7 3 3 3 1 3 2 2 4 4 4 4 6 6 5 6 10 5 4 3 2 3 0 5 2 3 1 2 4 3 5 3 9 8 8 8 8 6 3
20 11 16 16 12 8 6 4 2 3 5 4 4 5 5 5 2 5 4 1 5 7 6 5 6 2 1 2 1 3 2 3 3 3 3 3 5 4 4 3 4 1 2 2
18 15 16 19 15 11 5 4 2 3 3 3 2 3 3 7 5 3 4 7 4 4 7 6 1 1 3 4 5 2 2 3 2 3 3 3 5 1 1 2 3 4 5 5
17 16 16 16 17 11 7 6 3 2 1 1 4 5 5 4 5 4 3 4 2 4 4 3 3 3 2 2 2 4 2 3 2 3 1 2 2 3 2 2 0 3 3 4
11 19 19 17 16 9 6 11 7 2 4 2 3 3 2 2 3 4 3 4 4 3 2 3 2 0 2 4 8 5 4 3 3 2 2 3 3 2 1 0 1 1 3 4
8 16 23 21 15 9 6 8 11 3 3 2 3 2 1 2 2 2 2 4 5 3 3 2 1 2 1 2 3 3 3 3 2 1 1 4 2 4 3 2 4 3 2 5
8 8 13 21 26 11 6 5 11 3 3 3 3 4 3 4 2 2 3 3 4 3 3 2 2 1 2 2 3 2 3 2 2 1 0 4 5 2 5 4 2 4 3 3
1 4 8 15 24 21 5 4 7 7 6 3 1 3 2 2 3 1 3 2 1 2 1 1 1 1 1 2 3 0 2 5 3 6 5 4 5 4 2 3 4 3 4 3
6 4 4 12 17 19 13 4 9 2 3 2 2 1 1 1 0 1 1 2 2 2 2 2 2 2 2 2 4 2 3 3 2 3 1 5 6 3 5 4 4 4 4 4
5 4 4 4 10 14 16 10 14 2 2 2 3 1 2 1 2 3 4 3 4 2 1 1 0 1 2 3 4 3 5 4 4 4 6 1 2 5 6 5 6 7 5 4
4 4 4 2 4 7 9 12 17 11 2 2 3 3 2 0 1 4 4 3 2 1 2 1 2 2 1 2 2 4 5 7 5 5 5 4 2 5 4 7 5 6 6 4
6 5 4 2 1 2 2 3 4 12 4 3 3 3 1 0 2 1 1 1 1 1 2 2 2 1 1 1 3 6 6 4 6 4 3 2 5 5 1 5 6 5 6 5
8 5 2 1 2 2 3 4 4 8 3 3 3 4 3 3 3 2 1 1 1 2 1 1 1 1 3 2 5 5 5 7 5 5 6 3 3 4 4 7 7 9 7 6
11 6 3 1 4 5 2 2 3 5 3 4 1 3 3 3 1 2 2 2 2 1 2 1 2 1 1 5 7 5 3 7 5 7 4 4 6 7 6 6 6 4 3 3
13 8 4 4 3 2 4 2 2 2 2 2 1 3 3 3 2 1 2 2 1 2 2 2 2 3 6 9 7 7 8 8 7 6 6 6 6 7 6 5 5 4 3 2
12 7 1 3 3 2 2 2 2 3 2 2 3 1 2 3 1 1 1 1 1 1 3 1 3 5 11 11 8 6 8 7 11 7 4 4 4 6 6 6 4 4 3 2
3 2 2 2 1 1 4 1 3 0 2 2 2 3 2 1 2 3 2 2 1 1 4 2 3 4 4 6 8 8 9 10 8 3 4 7 7 7 6 5 5 4 3 2
7 4 1 1 3 3 4 2 2 3 5 2 2 3 3 1 2 2 2 1 3 4 1 1 4 4 4 4 1 4 8 9 8 6 7 8 9 11 9 7 6 4 2 2
6 3 3 2 2 2 7 7 4 2 4 3 2 1 1 1 1 2 2 2 4 1 1 4 5 4 3 2 3 4 4 9 9 6 10 13 12 12 9 7 5 4 2 2
3 4 2 5 3 5 5 4 4 4 4 5 4 2 2 1 2 2 3 3 2 2 2 6 3 4 5 5 4 6 7 8 8 7 10 11 11 10 8 6 4 2 1 5
3 4 5 6 4 1 3 1 2 1 4 5 3 3 2 0 2 2 2 3 4 6 5 3 3 5 4 5 5 7 7 7 7 9 8 10 11 10 8 6 4 1 2 4
4 3 1 3 2 2 2 1 1 2 4 2 3 3 3 4 4 3 7 5 7 4 4 4 3 3 4 5 5 5 7 9 9 13 13 13 12 10 8 5 2 2 2 5
5 5 3 3 3 4 4 4 4 7 3 3 3 6 9 2 2 4 5 6 4 4 4 3 4 5 6 5 5 6 9 9 12 14 14 13 11 9 7 4 4 1 3 4

GFSNW_925_spd_090.txt.gz
Wind_Speed
24 19 15 11 4 2 7 4 3 10 18 4 2 2 2 4 5 4 4 2 4 5 7 4 3 2 3 6 3 3 5 1 3 5 4 3 3 5 3 3 1 2 3 2
20 16 12 8 5 5 3 2 0 5 8 4 3 3 3 4 3 2 0 2 1 4 5 4 2 3 4 6 4 2 2 2 4 8 5 5 4 6 4 2 3 1 4 3
17 12 11 9 4 5 3 2 3 4 3 1 2 4 4 5 6 3 3 2 1 2 3 1 3 1 1 2 1 4 2 2 3 4 4 3 6 9 10 3 4 1 2 4
13 14 12 10 5 1 2 3 1 2 3 4 2 2 3 5 7 6 9 7 6 1 3 3 3 2 2 1 3 1 2 1 3 3 3 2 3 5 10 8 0 3 5 6
15 17 17 14 8 2 4 3 3 2 2 3 2 6 6 6 4 6 5 5 7 9 5 3 4 5 3 1 4 3 3 1 2 3 2 4 3 8 8 6 7 6 3 2
15 16 20 19 16 1 3 2 2 3 4 3 3 3 2 5 2 4 4 2 2 6 3 4 5 4 3 1 1 2 2 3 3 4 5 5 4 3 2 1 3 1 2 4
15 18 17 19 18 13 5 5 2 3 3 2 0 1 2 5 4 3 3 4 2 2 6 4 2 1 3 4 3 1 2 3 2 3 4 3 4 1 1 1 1 1 3 2
17 18 18 17 15 12 9 6 2 2 1 2 4 4 2 2 5 3 1 2 2 3 4 3 4 4 5 3 2 3 2 4 2 2 1 5 3 3 3 2 4 1 5 3
13 16 19 16 13 9 5 12 4 3 3 2 2 3 3 1 2 5 3 3 2 4 3 3 1 2 2 4 8 3 4 4 3 1 1 4 3 2 2 2 4 6 5 5
3 10 16 18 12 8 4 7 6 4 3 2 1 1 2 3 2 0 4 6 5 3 3 2 0 3 1 2 2 2 3 3 2 1 2 6 4 4 2 2 4 3 4 5
2 3 11 16 15 7 7 6 12 2 3 2 1 1 2 3 2 1 4 3 4 3 4 1 2 1 3 2 4 2 3 3 3 1 1 5 5 4 6 4 2 5 4 4
6 5 4 10 13 8 6 4 5 6 5 2 2 3 3 4 3 1 3 2 1 1 2 1 1 2 1 2 3 1 3 5 3 7 5 3 6 3 3 4 4 4 5 3
6 7 8 5 8 9 5 7 4 3 3 2 1 3 4 5 5 5 3 0 0 0 2 2 1 3 3 2 5 2 3 3 3 2 2 6 5 3 4 5 4 3 3 4
4 5 7 5 5 7 5 5 5 6 4 2 4 2 3 3 4 4 3 2 2 3 2 2 2 2 3 3 4 4 5 5 4 5 7 4 5 6 6 4 5 5 4 3
3 4 4 4 3 2 3 9 7 3 3 4 3 3 3 3 2 4 4 3 2 0 0 2 3 2 1 2 1 4 5 7 5 5 6 4 3 6 7 8 6 7 6 4
4 3 5 4 3 5 4 3 1 4 2 3 1 2 1 1 2 2 4 4 2 1 2 3 2 2 2 2 3 7 7 5 6 4 3 2 4 4 5 6 7 6 7 6
5 3 2 6 7 5 3 2 1 2 1 2 3 3 2 1 2 1 2 3 3 3 2 3 2 2 4 3 5 6 7 9 6 4 7 2 4 5 6 7 9 10 9 8
7 4 1 2 4 3 3 3 1 0 3 4 2 4 3 1 1 1 1 1 2 1 2 0 2 1 2 5 10 4 3 3 5 7 0 3 6 6 6 7 7 6 6 5
8 7 3 1 2 1 3 4 7 4 1 3 2 4 4 1 1 1 2 2 1 1 1 2 0 3 6 9 4 5 7 7 8 7 6 7 6 8 7 6 6 6 5 5
12 8 2 2 3 3 2 1 3 3 3 2 2 1 1 3 1 1 1 2 1 1 3 2 3 4 8 11 7 6 5 6 8 5 3 5 5 8 8 7 6 6 5 5
8 5 4 3 1 2 3 1 2 1 3 3 2 3 3 2 3 3 2 2 1 2 4 1 3 3 4 4 7 7 9 10 10 2 2 7 6 8 7 5 6 8 8 4
11 11 6 4 3 3 2 3 3 3 5 2 4 3 2 1 1 3 2 3 2 5 1 1 4 4 5 6 6 6 3 8 8 6 6 7 8 12 9 8 9 8 6 5
8 2 3 3 0 2 6 7 4 2 3 3 2 1 2 1 1 2 3 4 5 1 1 4 5 4 6 7 3 2 4 5 6 5 8 10 10 13 13 9 8 8 6 3
2 4 4 6 4 6 6 5 4 4 4 4 3 2 2 0 2 2 4 2 3 2 2 6 3 5 5 4 2 2 4 5 4 4 8 9 11 10 10 10 10 8 5 2
3 3 6 8 4 2 1 1 2 2 4 4 3 3 3 1 2 1 2 3 4 6 5 3 4 4 5 3 4 6 6 6 6 8 7 10 13 12 9 9 8 5 4 2
2 3 2 3 2 1 2 2 2 2 4 2 2 3 3 3 3 2 7 5 7 4 4 4 3 3 4 5 6 7 7 8 8 12 12 12 12 11 9 8 6 5 4 2
5 4 3 3 2 3 4 4 4 7 3 3 3 5 9 3 2 4 5 6 4 4 4 3 4 6 5 6 6 6 10 10 13 14 15 15 13 12 13 7 9 7 4 3

GFSNW_925_spd_093.txt.gz
Wind_Speed
13 10 6 4 6 11 8 3 3 15 19 4 3 3 2 3 2 2 2 1 3 4 3 3 2 4 4 6 5 4 5 1 4 6 1 2 3 3 3 2 2 1 1 2
11 11 9 5 8 10 3 2 2 6 5 4 4 2 1 1 3 1 3 2 2 2 4 1 4 4 4 7 4 3 2 1 4 7 5 4 3 4 4 2 2 1 2 1
12 12 10 7 5 10 5 2 3 4 4 1 2 4 4 4 3 2 3 4 2 2 2 2 1 1 2 3 3 3 2 1 3 4 4 3 6 9 7 1 3 2 2 2
16 14 13 11 7 5 4 4 1 2 3 4 3 2 3 4 6 5 7 4 5 2 3 3 4 3 4 1 3 2 2 1 0 3 4 2 2 5 9 6 1 2 3 1
14 17 14 13 8 6 6 3 2 3 2 3 4 6 5 4 3 5 5 4 5 5 4 2 2 2 2 1 4 1 2 1 0 3 4 6 4 5 5 4 3 5 3 0
11 12 15 15 11 5 5 2 1 3 5 5 3 4 4 5 2 1 2 2 2 5 2 4 5 5 5 4 1 1 2 2 3 4 4 5 4 3 2 2 1 1 1 1
13 11 12 14 13 11 7 3 2 3 3 3 3 5 4 7 6 3 4 4 3 3 7 3 2 3 6 4 1 1 3 3 2 3 4 3 4 3 4 3 4 3 3 2
13 14 11 10 9 8 11 5 2 3 1 1 4 8 5 5 5 5 3 3 2 4 5 3 4 4 3 1 1 1 1 3 2 2 1 6 1 4 5 5 5 6 4 2
7 13 14 9 5 4 8 11 6 3 4 2 3 1 2 1 3 6 3 3 5 4 3 3 2 2 2 5 8 4 4 4 3 1 0 4 4 2 2 3 5 6 6 5
6 7 13 14 6 2 4 6 5 6 3 2 2 2 2 1 1 1 4 6 6 3 3 3 1 3 2 3 4 3 3 2 3 2 3 7 4 4 2 2 5 5 6 6
7 6 10 12 12 1 2 5 4 2 3 3 6 4 2 1 0 2 3 2 3 3 3 2 1 1 2 3 4 2 2 2 3 1 2 6 5 3 6 4 0 3 2 4
7 8 8 11 12 6 4 3 5 4 4 2 6 8 8 8 4 3 1 2 1 3 3 1 1 2 1 3 4 1 3 5 3 7 5 4 7 4 4 4 4 4 4 4
5 7 8 10 9 11 3 1 6 2 3 2 1 5 10 9 8 8 4 2 2 1 3 2 1 4 3 3 5 2 4 4 4 1 3 7 7 4 4 6 5 4 4 5
6 4 6 7 7 7 5 1 2 2 3 2 4 2 5 7 10 9 6 3 3 4 2 2 3 3 4 4 4 5 5 6 4 6 8 6 8 7 6 5 4 4 3 3
5 4 5 7 7 5 4 3 2 1 2 3 3 2 6 7 8 8 6 5 2 2 2 2 4 2 2 2 2 4 6 7 6 6 7 3 5 2 7 8 7 7 6 4
7 7 9 6 6 7 3 3 2 3 1 2 3 2 2 5 5 5 6 5 1 1 2 3 2 2 1 2 4 7 7 4 5 4 1 2 2 1 3 6 6 6 7 5
8 6 5 4 5 6 3 3 2 3 1 2 3 3 2 2 3 1 1 2 1 2 2 3 1 2 3 2 4 3 6 8 6 2 5 1 4 4 6 5 6 9 6 7
7 7 6 5 4 4 6 7 3 3 2 3 1 4 3 2 2 2 1 2 1 2 3 1 2 1 1 5 7 6 6 5 5 8 6 2 4 6 6 6 7 6 6 5
6 6 5 6 5 3 2 4 5 5 2 2 2 4 4 1 1 1 1 1 1 1 3 3 3 2 5 9 6 5 4 5 3 4 3 3 4 6 7 7 7 7 6 6
6 6 3 2 2 2 2 1 1 2 1 1 3 1 2 2 1 0 1 1 2 2 3 1 3 4 9 11 10 9 10 8 8 6 3 4 4 7 7 7 6 6 6 7
7 4 3 4 2 1 3 2 2 2 2 4 2 3 3 2 3 3 2 2 1 1 3 2 3 4 5 4 6 6 7 8 13 6 4 8 5 8 7 5 6 9 11 7
11 4 3 2 2 3 1 3 3 4 6 4 5 4 3 2 2 2 1 2 2 5 1 1 3 4 7 5 6 6 6 5 7 5 5 7 8 12 10 8 9 12 12 9
9 1 3 2 2 1 7 7 4 2 3 4 4 3 4 2 1 3 2 3 5 1 1 4 5 4 5 6 5 4 1 6 7 5 5 9 8 14 16 12 14 14 11 9
3 5 5 6 4 6 5 5 4 3 2 4 2 3 4 2 3 3 3 3 2 1 2 6 3 6 4 4 3 2 4 7 7 8 9 9 11 11 14 17 18 16 13 10
4 4 6 8 4 1 2 3 2 1 3 3 3 3 2 2 4 3 3 2 5 6 5 3 4 3 3 4 2 5 5 5 5 6 6 9 14 14 14 14 14 13 11 10
2 3 2 3 1 2 2 2 2 3 4 2 2 3 2 3 4 4 8 6 7 4 4 4 2 3 3 4 4 6 6 6 6 9 10 13 15 14 14 14 12 11 10 10
5 5 3 3 0 3 3 4 4 7 3 3 3 4 8 2 2 4 5 6 4 4 3 2 4 4 3 4 5 5 7 7 10 9 12 15 15 13 14 8 13 11 10 8

GFSNW_925_spd_096.txt.gz
Wind_Speed
9 10 10 12 16 21 13 4 4 22 15 5 3 3 3 2 3 1 1 1 3 3 3 2 1 2 4 5 5 3 4 2 4 6 1 2 0 1 2 2 3 1 1 3
9 10 10 11 13 18 5 3 1 11 9 4 3 3 3 3 4 3 1 1 2 2 3 2 2 3 3 6 5 3 3 1 4 6 4 4 3 3 3 2 2 1 1 3
12 10 11 11 11 13 5 3 4 4 4 1 3 4 4 3 1 2 2 3 3 2 3 1 1 1 1 5 4 2 2 1 4 4 5 1 5 5 4 2 2 2 3 2
14 11 12 12 9 11 3 4 0 2 3 4 3 1 4 4 6 6 8 5 6 2 3 2 2 3 4 2 3 2 2 3 2 6 7 3 4 4 5 2 2 3 4 4
15 12 12 11 7 9 9 3 3 2 1 2 5 8 7 7 5 6 5 5 5 6 3 1 2 1 1 2 3 2 0 2 1 4 3 3 5 6 3 1 1 2 3 4
13 14 12 10 7 5 5 3 2 3 4 4 4 3 4 6 3 1 2 2 1 3 1 5 6 5 3 4 3 2 0 1 2 5 4 6 6 5 3 2 4 4 4 3
16 15 13 11 7 8 6 4 4 4 2 3 1 2 1 3 2 1 3 1 1 2 3 3 2 4 6 4 5 3 1 2 2 4 4 3 4 1 2 4 6 5 3 4
10 16 15 11 7 3 2 5 4 3 2 2 2 3 2 3 4 2 2 2 2 3 4 3 4 4 3 1 2 3 3 3 1 1 2 7 1 3 4 4 5 7 5 3
7 11 15 14 9 3 7 4 6 4 5 4 4 1 1 0 2 5 2 3 5 5 3 3 1 3 2 4 7 3 3 3 3 1 0 4 3 2 2 2 5 4 5 5
8 7 11 16 13 7 4 4 3 2 3 4 5 3 4 4 2 2 3 4 5 3 3 3 1 3 1 3 3 2 2 2 3 3 3 8 4 4 3 2 5 4 5 6
9 9 8 13 16 9 5 4 3 3 2 3 8 7 5 2 2 3 2 2 2 2 3 2 2 3 3 2 4 3 3 3 4 2 2 7 6 3 6 5 1 3 4 4
9 9 8 9 13 13 4 2 3 1 1 2 6 11 10 5 3 4 1 2 2 4 3 1 2 3 1 3 4 1 3 6 4 8 6 4 7 6 4 3 4 4 4 5
11 7 8 8 9 10 6 5 3 1 2 3 1 6 6 13 9 5 2 2 2 2 2 3 2 5 4 4 5 3 4 3 4 1 4 8 10 6 6 6 6 4 3 5
9 9 7 8 9 9 9 3 3 1 2 1 4 1 3 4 11 8 4 1 3 4 2 1 2 2 3 3 3 4 4 6 4 7 9 7 10 9 6 7 6 5 3 5
8 8 10 10 9 9 9 9 3 3 2 3 4 3 3 4 9 6 5 3 2 1 1 2 4 2 2 2 1 4 6 7 5 6 6 3 6 5 6 9 9 9 7 4
8 8 9 13 10 8 5 3 2 2 2 2 3 1 2 4 5 5 3 3 1 2 3 3 3 2 2 2 4 8 7 4 5 4 1 4 5 5 1 4 5 5 6 5
8 8 6 7 9 7 4 3 1 4 2 2 4 3 1 3 3 2 2 3 2 2 2 3 1 2 3 3 5 6 8 8 7 7 3 5 4 4 5 4 6 10 7 7
7 7 6 6 9 9 8 11 9 3 1 3 2 4 2 6 3 2 1 2 1 2 2 1 2 0 0 5 10 5 6 7 7 8 9 3 1 4 5 4 5 5 5 4
6 5 5 5 5 4 2 3 4 7 3 2 3 3 4 2 1 2 1 1 1 1 3 3 3 3 6 9 7 7 7 5 4 0 5 6 6 6 6 6 6 7 7 6
7 5 2 3 4 4 3 1 2 3 2 1 3 1 2 3 0 1 3 0 2 2 3 3 3 5 12 12 10 7 6 7 5 4 4 5 5 8 8 10 7 6 6 6
7 5 3 2 3 3 2 1 2 0 3 3 2 4 3 2 3 3 2 3 1 1 3 3 3 4 5 5 4 4 6 7 9 9 5 7 6 8 8 6 7 9 10 7
12 8 4 3 1 2 2 3 1 4 5 1 3 3 3 1 1 2 2 2 2 5 1 0 4 5 6 3 5 6 6 6 8 9 8 7 7 7 7 6 7 10 12 13
8 2 3 3 1 1 7 8 4 3 5 4 3 1 1 1 1 2 2 2 5 2 1 4 5 4 4 5 4 6 4 3 3 5 3 2 2 3 7 7 11 16 16 14
3 5 6 7 5 7 7 4 4 4 4 6 4 3 3 1 2 2 2 2 2 2 3 6 3 5 3 3 2 2 2 3 3 3 4 5 5 6 10 16 16 16 13 12
4 5 7 9 4 2 1 1 1 2 5 6 4 3 2 2 2 1 2 3 4 6 5 3 3 4 2 2 1 4 5 4 4 3 3 5 11 11 10 14 17 15 13 13
3 4 2 1 2 3 2 2 2 3 5 2 3 4 3 4 5 4 8 4 6 4 4 3 2 2 2 3 3 4 4 4 5 8 9 10 12 12 12 14 15 16 15 14
5 5 3 3 1 3 3 5 4 7 4 3 3 6 8 3 1 4 6 6 4 4 4 3 4 4 3 4 3 3 4 5 9 10 12 14 14 14 15 8 18 17 17 15

GFSNW_925_spd_099.txt.gz
Wind_Speed
17 19 20 23 24 27 10 3 4 21 6 5 2 4 3 4 4 2 2 3 3 3 2 2 1 2 4 5 5 3 2 1 4 6 2 1 2 3 3 2 2 2 1 3
18 18 19 20 21 23 9 3 2 11 9 5 3 2 2 2 5 4 5 4 3 1 3 2 0 1 1 6 4 4 3 2 4 5 4 3 2 1 2 1 2 3 2 3
22 20 21 18 16 17 7 3 4 5 4 2 4 4 5 4 4 4 3 3 3 2 3 2 2 3 1 6 4 4 4 2 5 5 5 2 4 2 0 2 2 2 4 3
24 22 21 19 12 14 5 4 0 1 3 5 5 2 4 4 5 4 5 4 4 0 3 2 2 2 4 2 1 3 3 3 3 6 7 3 5 6 3 5 5 4 3 5
23 23 22 21 16 10 8 3 3 2 1 3 3 6 6 6 4 4 5 5 3 3 3 3 2 1 2 2 3 2 0 2 1 5 3 6 6 7 7 6 3 5 4 6
21 23 22 21 19 10 5 4 3 3 4 3 3 2 3 3 1 1 1 1 1 2 2 4 5 5 2 3 1 1 1 1 3 5 3 5 6 7 8 5 4 5 6 6
16 21 22 20 18 16 7 2 4 3 2 2 1 1 1 2 2 1 3 1 2 3 1 1 1 2 5 4 5 3 2 2 2 4 5 2 4 1 2 5 6 8 4 5
10 15 22 22 18 14 12 4 2 3 2 0 2 3 2 4 3 3 3 3 3 3 2 2 3 3 2 1 2 5 4 3 1 0 2 7 2 4 6 5 5 8 7 5
6 9 15 21 21 14 10 7 6 2 5 5 3 3 2 2 2 4 4 2 3 2 2 2 2 3 1 3 6 4 4 2 3 2 1 4 4 2 2 2 4 4 6 6
6 5 8 14 19 17 8 5 6 3 1 3 5 4 5 5 1 2 4 4 2 2 2 1 3 3 3 2 3 4 2 1 4 3 4 8 4 4 4 1 4 4 6 6
8 5 5 9 14 17 8 4 5 2 0 3 6 4 4 2 3 3 2 3 2 2 1 2 2 3 3 1 4 4 6 5 4 2 2 7 6 4 6 5 2 5 6 6
8 7 5 5 10 13 11 3 5 3 3 4 5 10 8 4 5 5 2 4 1 2 3 0 1 3 0 3 4 1 3 6 4 8 6 4 7 6 5 4 5 5 5 6
8 7 5 6 6 10 12 6 6 3 2 4 1 5 5 13 13 7 2 1 2 2 3 3 2 5 4 4 5 2 5 3 4 1 4 7 10 6 6 6 5 2 2 4
11 7 4 5 8 7 8 7 7 3 1 1 5 2 3 4 11 8 5 5 3 5 2 2 2 2 2 3 4 4 5 6 5 6 9 8 9 8 8 7 7 5 4 6
13 9 6 5 5 8 9 9 6 3 1 3 4 5 3 4 9 9 8 7 3 1 2 2 4 2 1 2 2 5 7 7 6 7 9 5 7 3 3 6 7 8 7 4
13 11 9 8 6 4 2 3 1 1 1 2 4 1 1 2 6 7 6 6 2 2 3 3 3 3 3 2 4 8 7 5 6 5 3 5 6 6 4 3 6 6 7 5
11 10 9 7 5 3 3 3 2 1 2 2 4 4 2 2 3 2 2 1 1 2 2 3 2 3 4 3 5 4 8 10 7 7 2 6 5 6 3 4 3 8 6 6
11 9 7 8 7 7 7 10 12 6 2 4 2 4 2 3 2 1 1 1 1 2 2 1 3 1 2 6 10 4 4 3 6 8 8 6 3 1 3 3 5 5 5 5
9 7 7 5 5 4 3 5 5 8 3 3 3 3 4 1 1 2 1 1 1 1 2 3 2 2 7 11 9 7 7 7 3 3 4 5 7 7 6 5 5 5 6 6
8 5 3 3 4 5 4 2 1 2 1 1 4 1 2 3 1 2 3 1 1 1 2 1 3 5 9 15 9 7 5 6 3 1 5 4 6 7 6 7 4 6 6 6
7 5 3 2 5 3 2 1 2 1 3 4 3 5 3 3 3 3 2 2 1 1 3 2 3 4 5 6 4 4 4 6 7 6 5 3 5 5 6 7 8 9 11 9
13 5 3 3 1 2 2 3 2 4 5 3 3 4 2 1 2 3 3 3 2 5 1 1 4 5 6 5 4 3 3 5 6 5 8 8 6 7 6 6 6 11 14 12
10 3 1 2 1 0 7 9 4 3 4 4 4 2 3 1 2 2 2 4 6 3 1 4 5 4 5 4 4 5 3 2 4 4 4 7 4 5 7 6 10 14 13 14
3 5 6 6 5 6 6 5 4 3 3 6 4 3 2 2 1 2 3 3 3 1 3 7 3 5 4 4 3 3 2 2 3 0 2 2 2 4 5 9 13 17 15 16
4 5 7 9 5 2 1 1 2 2 4 5 3 3 2 1 2 3 3 1 5 7 5 4 4 6 5 3 3 5 5 4 4 4 4 5 6 6 7 11 15 17 17 18
4 5 3 2 1 3 2 3 2 3 5 2 2 3 2 5 4 4 8 5 7 4 4 3 2 4 5 5 5 5 5 5 5 7 7 8 10 11 12 13 17 20 21 22
5 6 3 3 1 3 4 5 4 9 5 4 3 6 9 2 0 4 5 6 3 4 3 2 5 6 6 6 5 5 6 6 9 10 14 16 15 14 13 8 20 22 23 22

GFSNW_925_spd_105.txt.gz
Wind_Speed
28 33 33 32 31 20 8 4 4 12 1 4 2 6 4 3 4 2 3 3 6 5 2 3 2 4 4 3 1 2 3 3 3 3 3 2 6 8 5 3 2 5 4 3
25 28 32 32 28 23 7 3 3 9 3 5 7 6 6 6 4 6 4 5 6 3 2 2 4 3 3 2 1 4 2 1 2 2 3 3 6 7 7 5 3 8 4 2
25 27 29 32 29 17 4 2 2 4 3 1 4 6 6 4 2 4 3 3 1 0 3 2 3 3 2 3 1 2 2 3 5 5 5 3 6 7 9 7 4 6 10 11
22 26 27 29 33 15 4 5 3 3 1 5 7 4 1 5 3 3 2 3 5 3 2 2 3 1 3 3 3 3 3 4 5 11 14 13 14 14 11 13 14 6 5 10
18 22 25 26 29 15 6 2 1 0 2 1 1 1 2 3 2 1 3 4 2 3 2 2 2 2 2 1 4 2 1 3 8 5 4 6 13 16 18 18 18 16 19 21
15 19 23 25 24 19 7 4 1 3 2 2 4 2 2 1 2 1 1 0 2 3 1 3 6 6 5 2 2 2 2 3 4 5 2 11 13 18 20 14 13 16 14 11
15 15 19 23 22 16 5 2 3 3 2 2 3 1 1 1 2 3 1 4 3 2 4 7 5 7 8 8 8 6 3 3 2 5 10 4 1 1 2 13 16 16 16 11
16 14 15 18 20 15 5 3 1 3 2 2 2 2 3 3 3 3 3 1 3 5 5 4 4 4 4 5 7 10 9 5 4 3 6 15 10 4 5 5 8 16 18 15
16 14 13 15 17 17 5 5 2 1 2 2 1 2 3 4 3 3 2 1 2 3 2 3 3 2 3 3 4 2 6 8 5 2 4 5 3 5 2 2 6 3 6 9
17 14 12 12 15 17 8 4 5 4 3 4 5 3 0 1 2 4 1 1 1 1 2 3 3 2 1 3 3 4 4 6 12 10 6 9 4 10 6 3 2 3 4 5
12 14 12 11 12 13 12 5 6 5 3 3 7 6 5 4 4 3 3 3 3 2 3 2 1 3 2 3 5 4 7 5 5 6 7 9 12 7 6 3 2 0 3 4
10 12 9 10 11 13 13 2 8 6 5 4 5 10 10 8 5 3 4 1 1 1 3 2 3 4 3 4 4 3 5 9 3 8 5 2 14 6 9 0 2 1 3 4
9 11 11 7 9 10 11 8 9 5 3 5 3 6 8 14 13 11 5 4 2 3 1 2 2 6 2 5 6 6 6 9 5 4 7 14 15 14 14 10 8 7 7 7
9 9 11 9 7 10 9 6 9 4 5 4 1 1 1 4 7 12 9 2 3 3 3 3 4 4 4 5 8 10 9 6 8 14 17 18 16 12 12 11 7 8 10 12
11 9 10 10 8 11 11 11 11 8 3 3 6 1 1 3 4 7 8 9 6 3 3 4 5 4 3 7 6 12 12 10 10 6 4 10 5 5 5 6 6 7 8 10
10 11 10 10 9 8 5 1 4 1 4 2 4 3 2 2 2 5 5 7 4 4 3 4 4 2 3 4 5 5 12 17 15 10 2 5 4 5 7 8 9 8 9 10
11 10 10 9 8 6 3 2 0 1 0 2 4 2 2 5 2 1 2 3 2 3 3 4 6 5 5 4 9 5 10 14 14 13 8 9 13 7 5 5 6 6 8 9
12 10 9 9 7 9 7 9 15 8 3 1 3 4 2 5 3 3 1 2 3 4 3 1 3 2 4 8 15 14 15 9 12 13 11 10 2 4 8 7 6 7 7 7
12 9 5 5 2 3 1 3 4 10 3 2 3 3 2 3 1 1 3 2 4 0 3 3 3 5 9 15 15 15 12 9 5 1 7 8 10 10 7 8 9 10 9 8
13 5 0 2 1 3 1 1 2 2 3 3 4 2 3 4 3 3 2 3 3 3 2 2 5 8 17 19 16 12 9 8 7 5 3 5 6 7 9 9 9 8 7 5
4 4 2 2 1 1 2 2 3 3 4 5 4 4 5 4 3 3 3 2 2 3 2 3 3 5 4 7 8 8 11 10 11 12 6 2 4 6 6 4 6 5 6 6
7 8 4 2 0 1 3 3 2 5 5 4 2 1 3 2 1 3 2 2 1 5 1 2 4 5 5 6 4 3 4 2 4 6 8 6 6 8 6 5 5 9 11 10
9 3 2 2 2 6 6 7 4 4 3 4 3 3 3 2 2 2 2 3 5 1 3 4 6 5 5 3 2 4 4 4 3 3 4 4 6 7 8 5 9 8 9 11
3 4 6 6 6 6 6 6 2 2 2 6 5 3 2 2 3 2 4 2 2 4 4 7 3 4 5 4 3 3 4 4 5 4 2 3 4 4 9 10 8 8 8 9
3 4 6 10 5 2 1 1 1 2 3 5 4 2 3 3 3 3 1 2 5 6 5 3 3 6 6 4 2 4 4 4 4 3 4 4 6 5 6 10 10 9 8 9
4 5 6 1 2 3 3 4 4 5 5 2 2 2 2 6 3 6 9 3 6 4 3 3 5 6 5 5 4 4 4 4 5 5 6 7 8 8 7 7 8 11 12 13
5 6 6 10 9 9 6 5 5 11 6 4 2 6 9 1 3 4 4 6 3 3 3 2 3 7 7 4 5 4 4 5 7 7 9 8 7 7 6 6 6 12 14 17

GFSNW_925_spd_108.txt.gz
Wind_Speed
26 28 30 32 25 8 1 4 3 4 6 2 3 3 4 3 2 3 1 4 8 6 3 5 3 5 5 5 2 2 4 3 1 6 5 4 1 4 4 2 0 4 2 5
27 27 27 30 24 17 6 2 2 1 6 3 1 5 3 5 3 4 3 3 4 3 2 2 4 4 3 3 1 3 3 2 1 1 2 2 4 5 6 2 4 6 1 5
24 27 27 27 21 14 4 2 3 3 3 1 2 2 4 3 2 2 1 3 3 4 4 2 4 5 3 4 0 1 1 2 4 4 1 2 4 6 8 7 3 4 8 8
22 25 28 26 21 12 5 4 1 1 1 4 3 2 2 2 2 1 3 2 3 3 3 3 4 2 5 4 5 2 2 3 3 7 11 10 10 10 10 13 13 5 4 7
20 23 26 27 23 10 8 3 2 2 3 2 6 2 3 4 1 4 2 3 2 6 3 5 3 2 4 3 5 4 4 3 3 5 10 7 10 11 15 17 16 18 17 22
19 20 23 26 24 10 6 3 2 1 1 1 3 3 4 5 4 3 3 6 5 2 5 6 7 7 7 4 2 6 3 1 4 5 6 8 9 15 18 11 8 17 16 15
19 17 20 23 22 15 6 5 3 2 1 1 2 1 1 2 3 3 2 2 3 2 5 7 4 6 6 7 6 3 2 2 0 4 6 3 7 3 2 9 13 11 10 7
18 16 16 19 21 16 8 5 4 3 3 1 4 5 3 4 6 4 3 1 2 4 4 3 3 2 2 5 5 7 6 3 2 1 3 9 7 1 3 4 6 10 13 6
19 16 14 14 17 20 7 8 6 3 2 1 3 3 0 2 2 4 4 2 1 2 2 1 2 2 2 2 3 2 3 4 1 2 3 5 1 3 2 1 5 4 5 6
15 16 14 13 13 16 11 6 10 2 2 2 2 2 2 2 3 3 2 4 3 1 2 2 3 3 3 3 4 5 3 4 8 6 5 8 2 6 3 1 5 1 3 4
12 14 13 13 13 12 12 4 11 5 3 4 4 2 2 1 1 3 1 2 1 1 2 2 3 2 3 1 5 6 8 6 5 4 5 9 7 3 7 4 2 3 4 4
11 12 13 11 11 12 9 1 7 9 3 4 4 8 11 4 3 2 0 2 3 2 2 2 2 3 3 4 4 0 4 7 4 9 6 5 10 7 8 4 4 4 3 5
8 9 11 12 10 11 9 6 9 4 2 4 1 3 2 10 14 4 3 2 4 2 3 3 2 4 2 3 6 4 5 5 4 1 7 13 10 13 10 8 8 7 6 7
9 8 10 11 10 10 11 5 7 3 4 2 3 3 2 2 4 9 6 0 0 0 0 2 3 2 3 3 5 5 5 2 4 8 16 16 19 13 8 9 7 7 5 6
9 9 8 9 12 11 10 7 7 5 1 3 4 3 1 2 3 4 5 5 2 1 1 3 3 3 2 4 4 13 9 15 9 9 8 6 3 3 3 4 3 5 5 6
10 9 9 9 11 11 5 2 3 3 4 1 3 1 2 2 2 4 4 5 3 2 2 3 3 2 1 4 4 6 13 17 14 8 6 2 2 3 2 3 5 5 5 6
10 10 9 8 9 8 3 2 2 4 1 1 4 3 2 2 1 1 1 2 1 2 2 3 3 3 3 3 11 3 5 11 13 12 3 5 3 5 6 6 4 3 4 8
9 11 9 7 8 8 5 5 10 10 4 1 2 4 1 4 1 1 1 2 2 3 3 1 2 1 3 7 9 7 8 11 7 5 6 6 2 1 2 2 2 4 6 4
9 11 6 4 1 2 2 5 3 7 2 2 2 2 2 1 1 2 1 2 3 1 3 3 4 3 8 11 12 12 11 7 5 1 4 6 7 7 7 6 7 7 6 6
7 6 2 1 2 3 4 2 1 1 2 2 3 1 1 2 1 2 1 2 2 3 3 1 3 5 12 16 12 11 11 9 6 3 5 4 6 7 7 8 7 7 6 5
2 3 2 2 1 1 3 1 2 2 3 3 3 2 2 3 2 3 3 2 2 2 2 1 3 4 4 3 6 6 7 5 6 5 6 5 4 4 6 6 6 5 7 6
3 4 2 1 1 0 2 2 2 4 4 2 3 3 3 1 2 1 1 2 0 5 1 1 3 4 6 6 7 6 5 6 7 6 6 5 5 5 5 4 4 5 8 8
4 2 2 1 2 4 5 6 4 3 3 3 2 1 3 1 1 1 0 3 5 1 0 4 5 6 7 8 5 5 4 4 6 6 7 8 7 7 5 4 7 5 4 7
1 2 5 5 5 5 5 4 3 1 3 4 2 1 2 1 2 3 3 3 1 2 4 6 3 4 7 7 4 4 7 5 4 5 5 6 4 6 7 7 6 5 5 6
3 3 6 8 4 1 1 2 2 1 3 4 1 1 2 2 2 3 2 1 4 5 5 3 3 6 6 4 4 5 6 5 5 4 3 3 7 6 9 8 14 11 8 8
3 5 5 2 1 1 1 2 2 3 3 1 1 2 1 5 3 5 8 4 7 5 4 4 3 5 5 4 3 5 4 3 5 5 4 7 8 8 9 10 11 14 7 9
5 6 7 4 2 3 4 5 4 10 4 3 3 6 10 1 3 4 4 6 5 4 4 3 5 6 8 8 6 6 7 5 8 9 9 10 11 9 9 7 16 12 3 12

GFSNW_925_spd_111.txt.gz
Wind_Speed
24 26 27 22 12 5 3 1 3 2 6 4 2 2 0 1 2 2 2 4 6 2 2 4 4 3 2 3 6 2 2 2 3 8 5 6 5 6 5 4 4 3 3 6
23 25 25 24 13 4 2 3 1 2 3 3 2 0 2 2 3 3 4 3 2 1 2 3 3 3 2 3 1 3 2 2 2 6 6 3 4 5 5 3 3 6 4 5
23 25 25 24 14 6 2 3 2 4 3 1 1 2 2 2 1 2 3 1 3 2 0 0 4 3 3 4 1 2 3 2 5 7 4 3 4 6 7 6 3 3 8 7
20 24 26 24 14 6 2 3 2 4 1 3 4 3 3 2 2 3 1 1 4 2 1 1 2 3 2 2 4 1 3 3 3 6 8 5 7 8 8 11 12 7 3 8
19 21 26 27 18 6 6 3 3 3 2 2 3 3 3 4 3 4 3 3 4 3 3 3 1 2 3 4 2 3 1 3 4 5 7 5 7 11 15 15 15 16 16 25
19 19 22 27 25 7 6 3 2 4 3 2 3 1 2 2 2 2 2 1 3 3 3 2 3 3 2 4 5 5 5 2 3 5 6 8 7 9 18 9 8 21 16 24
18 18 19 22 24 17 6 5 1 3 2 2 3 3 2 2 1 2 2 2 1 1 3 4 1 3 5 5 5 4 2 2 2 4 6 2 6 5 7 16 11 19 13 8
18 17 16 18 20 15 12 9 4 2 2 3 2 3 3 2 2 2 3 1 0 2 4 3 4 3 1 3 4 5 4 3 2 1 2 9 8 4 6 7 8 16 20 19
16 16 15 15 16 17 7 14 7 3 2 3 0 3 3 3 2 1 2 1 2 3 1 2 0 3 2 1 1 3 2 3 3 0 3 6 5 2 2 3 6 5 9 11
13 15 15 14 14 15 7 8 12 2 1 4 2 2 3 3 1 2 2 2 2 3 2 0 2 3 2 2 3 4 2 2 6 4 4 9 8 4 3 1 6 2 3 4
11 12 15 14 12 12 9 4 11 5 1 5 1 2 2 2 1 3 3 3 3 2 1 2 2 2 3 1 3 6 7 6 4 4 4 9 7 4 7 5 2 2 3 4
10 10 11 13 13 12 8 2 7 8 3 4 4 6 7 6 4 3 1 4 3 4 2 1 0 2 1 3 4 2 3 7 5 10 8 5 7 5 8 3 4 3 3 4
7 9 10 11 12 11 11 6 8 4 2 4 3 2 2 3 7 6 2 3 1 2 3 3 2 4 3 3 6 3 4 6 5 1 7 15 14 13 7 5 7 6 6 7
7 6 7 9 11 11 11 6 6 4 1 1 4 2 0 1 2 6 5 0 1 3 2 2 3 3 4 4 5 5 6 3 5 8 19 10 13 10 8 9 9 8 7 5
8 9 6 6 8 10 10 3 4 3 1 2 4 6 4 6 2 2 4 3 2 1 1 1 3 3 2 3 2 10 9 10 7 10 16 7 9 5 0 1 3 5 4 4
6 7 9 7 8 9 2 1 6 4 1 2 3 1 2 5 3 2 3 3 2 3 3 3 3 3 2 3 4 7 6 10 16 14 7 7 9 6 4 4 5 3 3 4
7 8 8 7 8 7 2 2 0 4 4 2 4 4 1 2 1 2 2 2 1 2 2 3 3 2 3 3 4 3 4 6 8 9 6 8 5 7 7 7 6 3 3 6
7 7 8 7 7 6 2 2 3 6 3 2 1 4 3 2 1 1 1 1 1 1 2 2 2 2 2 6 11 8 8 9 11 11 8 10 4 3 4 2 1 4 5 4
6 4 6 4 1 1 2 2 1 5 2 2 2 2 3 2 1 1 1 1 2 2 2 3 2 3 6 8 9 11 11 7 12 13 8 6 5 7 6 5 6 6 6 5
2 6 3 1 1 3 2 1 1 3 0 1 3 0 2 3 1 2 1 1 2 2 2 0 2 5 7 14 13 13 13 9 8 8 6 5 6 5 5 6 6 5 6 5
2 2 2 3 2 1 2 1 1 1 2 3 3 3 2 1 2 3 1 2 1 2 1 2 3 4 4 6 8 8 7 6 7 6 6 7 6 4 3 5 4 5 7 4
1 1 2 2 2 2 1 2 1 3 3 2 3 4 4 1 1 2 1 1 1 5 0 1 3 4 7 7 10 8 6 7 8 6 7 7 7 6 4 5 5 5 6 7
1 2 2 1 2 2 4 4 3 2 2 2 1 1 2 1 1 0 2 1 4 1 1 4 5 5 7 7 6 8 6 5 5 6 6 8 7 9 5 5 7 7 7 6
2 1 4 4 4 5 5 4 4 3 3 3 2 1 1 1 2 2 2 3 2 3 3 6 3 7 7 7 6 5 9 7 3 5 6 6 5 8 8 7 8 6 6 5
1 2 5 7 4 1 1 1 3 1 3 3 2 2 1 1 1 3 0 1 4 6 5 3 4 5 3 6 6 7 7 7 7 4 3 4 8 7 9 8 7 9 10 8
2 5 4 3 3 2 0 1 2 2 4 2 2 2 1 4 3 4 7 5 7 5 4 4 3 3 5 6 6 7 7 7 7 11 13 12 11 10 9 9 10 12 12 13
5 5 4 3 2 4 3 4 4 10 3 3 3 5 11 0 3 4 5 6 6 5 5 2 1 4 9 8 7 7 10 9 13 15 17 19 19 13 8 6 19 20 19 20

GFSNW_925_spd_114.txt.gz
Wind_Speed
19 22 22 15 6 6 6 1 3 4 0 4 2 2 2 2 3 1 2 0 3 2 2 2 2 3 4 3 3 1 2 4 4 8 4 6 4 7 5 4 4 3 2 7
16 20 22 20 8 4 3 2 2 1 3 3 3 2 3 2 4 3 4 4 4 3 2 3 2 2 2 3 3 2 1 1 2 6 5 2 4 5 4 3 2 5 4 6
18 19 21 21 11 2 6 3 2 3 3 1 4 2 2 2 1 3 3 3 4 4 4 3 2 2 1 2 2 5 3 0 4 6 4 4 5 6 7 6 3 3 9 8
18 20 21 20 13 3 2 3 2 2 1 2 3 2 1 2 3 3 2 3 3 2 1 2 2 2 1 2 2 2 3 3 2 6 9 6 8 9 9 12 16 9 5 12
18 19 23 21 18 3 4 2 3 2 1 1 2 2 3 3 1 0 1 3 3 3 2 3 5 3 3 5 1 4 2 3 2 5 4 5 8 14 16 17 16 18 17 24
19 19 21 24 19 6 5 4 3 3 2 1 3 3 4 4 4 3 3 3 1 2 2 3 2 2 1 1 5 5 3 1 2 5 3 8 9 15 19 7 6 20 16 26
19 18 19 21 19 14 7 4 2 3 2 0 3 2 2 4 3 2 1 2 3 2 1 1 3 3 4 5 5 4 4 2 2 4 6 2 5 0 4 13 14 17 16 19
18 17 16 17 20 11 13 4 3 3 1 2 3 1 1 2 2 2 2 2 2 1 3 2 3 3 1 0 3 5 3 4 2 1 2 9 6 2 5 6 8 13 20 20
15 17 16 14 16 12 7 14 5 3 4 3 2 2 1 2 1 4 2 2 1 3 2 3 0 3 4 2 1 4 4 4 3 0 2 5 5 1 3 3 6 4 7 9
13 14 16 15 13 13 6 8 8 3 2 3 2 3 4 4 1 1 3 1 1 2 2 2 2 3 1 2 4 5 2 1 5 4 4 9 9 4 0 2 6 4 1 5
10 12 14 15 13 11 6 3 9 3 2 4 1 1 2 1 2 4 3 3 2 2 1 2 3 3 3 1 4 6 7 6 4 3 3 9 7 4 7 6 2 2 3 3
7 9 11 13 13 12 7 1 7 7 3 3 3 5 4 2 1 3 1 3 3 4 3 1 1 3 1 4 3 2 3 7 5 11 7 6 7 6 5 2 4 5 4 6
4 5 8 11 12 12 10 4 7 2 2 3 2 1 2 1 5 4 3 2 1 1 2 3 1 4 3 4 5 2 4 5 4 1 9 14 14 12 8 5 9 8 7 7
6 4 4 7 10 12 12 6 5 1 2 1 3 1 1 3 4 3 6 2 2 4 2 1 2 3 4 3 4 4 6 4 4 6 16 14 11 9 10 9 7 9 8 6
7 7 5 4 6 9 11 2 4 1 1 2 3 4 2 5 3 1 2 3 3 2 1 2 3 2 1 2 1 4 6 7 5 8 7 6 9 6 6 7 6 6 5 4
7 8 7 4 4 6 2 2 4 4 2 1 3 1 2 5 5 5 5 3 2 1 3 3 3 3 1 2 3 7 5 5 6 9 6 8 14 11 7 8 10 7 6 7
7 7 9 6 4 3 1 2 2 3 4 2 4 3 1 2 2 2 2 3 2 2 1 2 2 2 1 3 4 4 3 6 8 9 6 13 4 7 9 8 8 7 6 7
7 5 7 7 4 5 1 1 3 5 1 2 1 3 2 2 1 1 2 1 1 1 1 1 2 2 0 5 6 8 8 12 14 10 5 10 14 9 8 5 4 5 6 6
3 3 5 4 2 1 1 1 2 2 2 2 2 2 2 1 1 1 2 1 0 1 1 2 2 2 6 7 6 10 11 6 14 15 11 12 8 8 7 6 7 6 7 5
4 4 1 2 2 2 1 2 2 3 1 1 2 0 2 3 1 1 1 1 1 2 2 1 2 4 6 13 12 10 11 11 6 7 9 10 8 8 8 7 6 5 6 6
2 1 1 0 1 2 2 0 2 1 2 2 2 3 1 1 2 2 1 2 1 1 1 1 2 4 5 4 5 7 7 7 7 6 8 7 7 7 7 8 6 7 8 4
2 2 1 1 2 1 1 2 1 3 3 2 3 3 3 1 1 2 1 2 1 4 0 2 3 4 7 6 7 8 7 6 8 8 8 9 8 8 7 6 6 6 6 8
1 2 2 1 2 2 4 4 3 3 2 2 2 1 2 1 1 1 2 2 5 2 2 4 5 4 5 6 6 7 9 8 8 8 10 11 13 13 6 7 9 8 9 9
2 2 4 5 4 5 4 4 3 3 2 3 2 2 2 2 2 2 1 3 2 2 3 6 3 3 3 5 5 5 10 9 7 8 10 10 11 13 17 14 12 12 13 13
2 2 4 5 3 1 2 1 1 2 2 3 2 2 2 1 1 3 1 1 4 5 5 3 3 3 2 4 5 7 8 8 8 8 6 10 14 12 17 21 21 21 21 19
2 4 3 2 0 4 1 1 3 2 3 2 2 2 3 4 3 4 7 4 7 5 4 3 1 3 5 8 7 8 11 12 13 15 16 17 15 14 17 25 21 25 25 25
4 3 4 2 1 3 4 4 3 8 3 2 2 3 10 0 3 4 5 6 4 4 5 1 4 8 11 8 7 10 15 15 16 18 20 21 24 23 16 10 25 27 26 29

GFSNW_925_spd_117.txt.gz
Wind_Speed
17 16 17 16 8 5 6 1 2 6 4 4 2 2 1 1 2 2 2 1 3 2 2 2 2 2 1 2 2 2 1 4 3 7 2 5 3 5 5 3 3 2 3 7
15 18 17 14 7 4 2 1 1 2 3 3 2 1 2 1 2 3 2 2 2 1 2 3 2 2 1 2 3 4 2 1 2 6 4 1 4 5 4 4 2 5 4 6
15 17 19 16 5 1 4 2 2 3 3 1 5 3 2 2 0 1 2 2 3 3 3 4 3 2 0 1 2 4 3 2 5 6 4 4 4 5 6 6 3 3 8 8
16 18 21 18 5 6 3 3 2 2 2 3 3 2 1 2 2 0 2 2 2 2 2 2 3 2 1 2 3 2 3 3 3 5 8 6 5 5 7 11 13 8 1 9
17 17 20 20 12 6 3 3 3 2 1 3 2 4 0 3 1 1 2 3 1 1 3 5 7 5 3 4 1 3 2 2 2 5 4 6 8 11 12 14 15 17 18 28
17 17 18 21 18 1 1 3 2 4 3 1 2 2 1 1 1 1 1 1 1 2 2 1 1 1 3 1 6 5 4 2 2 5 3 6 7 8 15 7 7 14 14 26
17 17 18 20 18 16 5 3 2 3 2 2 3 2 2 1 1 1 1 1 1 1 1 3 3 3 2 2 3 2 4 3 1 4 6 3 5 5 7 14 9 16 15 19
15 17 16 17 18 13 14 6 3 2 2 2 1 4 3 1 1 1 2 2 2 1 3 2 3 3 1 1 1 4 1 3 1 1 2 8 4 2 5 6 6 7 17 18
13 15 16 15 15 12 9 14 6 3 3 5 2 4 4 4 3 3 2 0 2 4 3 2 0 2 1 1 2 5 5 4 3 1 2 4 3 1 2 2 5 2 5 8
10 13 14 15 14 12 8 8 11 3 1 3 0 2 4 5 3 2 2 1 1 3 1 2 3 3 3 3 5 5 3 1 5 4 4 9 7 6 2 2 5 2 3 3
8 10 12 14 13 12 6 4 9 4 2 4 2 2 2 2 1 3 3 3 2 2 1 2 2 2 2 1 2 5 6 6 4 3 3 8 7 4 6 4 3 3 3 4
6 8 9 11 13 13 9 3 7 6 3 3 2 3 4 2 1 4 1 3 3 4 3 1 2 2 0 2 3 1 3 6 4 9 7 3 5 5 3 1 3 7 7 10
5 6 8 9 11 12 12 6 7 2 2 3 2 2 2 1 2 4 1 2 1 1 1 3 2 4 4 3 5 1 4 3 4 1 4 7 11 10 8 5 11 11 7 10
4 6 7 7 9 11 12 5 6 2 4 1 2 1 1 3 4 2 3 2 4 5 2 2 2 2 3 3 2 3 4 3 3 7 11 11 5 1 6 7 8 9 8 7
4 5 6 6 7 9 8 5 6 3 2 2 3 2 2 5 3 1 2 3 2 1 1 2 3 2 1 1 1 4 5 5 4 5 2 3 12 7 8 13 13 13 9 8
5 3 4 6 5 6 2 2 4 4 4 2 2 0 2 5 5 7 6 4 3 2 3 2 2 2 1 1 3 7 4 3 2 5 8 13 18 18 5 6 12 13 8 8
6 2 3 6 4 3 1 2 1 2 7 1 3 3 1 1 2 3 3 3 2 2 2 1 1 2 1 2 3 3 3 5 7 7 5 9 3 10 18 16 17 15 11 10
4 5 4 5 4 4 0 0 3 2 2 2 1 3 1 1 1 1 2 2 2 2 1 1 2 1 1 4 6 7 6 9 10 3 4 9 12 13 10 11 8 8 8 7
4 5 4 1 2 1 1 0 1 2 1 2 2 1 3 1 1 2 1 1 1 0 1 2 2 2 5 7 6 7 4 4 13 14 10 8 6 11 11 9 9 7 7 6
9 7 3 0 1 2 0 1 2 3 2 2 2 1 3 2 1 1 2 1 1 1 2 1 2 3 6 9 9 7 7 6 6 6 11 11 12 11 12 10 9 7 7 6
4 3 1 4 3 1 3 1 0 0 3 3 2 4 2 1 2 2 1 2 1 1 2 1 2 3 4 2 4 5 5 5 6 7 8 8 9 9 10 11 8 11 12 7
6 8 5 3 1 2 2 2 1 3 3 1 2 2 3 0 1 1 1 3 2 4 1 1 3 4 4 3 4 5 4 5 6 5 7 10 11 13 10 8 9 13 16 18
5 3 3 2 1 2 4 4 2 2 2 2 1 0 1 2 1 2 1 1 3 2 1 4 5 2 3 5 4 5 6 6 7 9 11 13 15 19 11 14 20 19 20 24
2 4 2 4 4 4 3 4 3 3 2 2 2 2 2 0 2 1 1 2 3 2 3 6 3 4 3 3 3 3 9 10 9 9 15 15 16 19 26 21 21 22 19 27
3 2 4 5 3 1 1 2 2 2 2 2 2 2 2 2 1 2 1 2 4 5 5 3 3 4 3 3 4 6 7 7 9 15 10 15 20 19 20 27 29 25 24 26
2 2 2 2 1 2 2 1 2 2 3 1 2 2 3 3 3 3 6 2 6 4 3 3 2 4 5 7 7 7 10 13 16 18 18 19 18 18 22 29 29 31 28 26
3 4 2 3 0 2 2 2 2 4 2 2 2 2 8 1 2 3 4 5 3 3 3 3 6 7 13 10 11 15 17 17 18 20 20 22 24 27 22 13 27 26 28 28

GFSNW_925_spd_120.txt.gz
Wind_Speed
14 17 19 15 6 3 3 1 3 4 3 4 2 2 1 1 1 1 2 1 3 3 2 3 2 3 2 2 3 3 0 4 3 5 1 3 4 5 5 3 3 1 2 7
14 16 18 18 8 7 2 2 1 4 3 3 3 2 1 1 1 2 2 2 0 1 3 4 2 3 1 3 2 5 4 1 2 5 4 2 3 5 4 4 3 5 4 6
14 16 18 17 12 5 4 3 2 4 4 1 3 3 2 2 3 2 2 2 2 2 2 3 4 3 2 1 2 5 3 2 4 5 3 4 4 5 5 6 3 3 7 9
15 16 19 17 8 4 1 3 2 2 1 2 3 2 3 3 4 4 5 3 4 2 2 2 2 2 2 4 3 3 3 1 1 5 8 4 5 6 9 11 10 8 4 9
16 16 18 17 9 3 3 2 3 2 2 1 2 3 1 1 1 2 3 2 2 3 2 1 3 4 3 3 3 2 3 1 1 5 2 6 6 10 11 10 11 16 16 26
16 16 17 17 13 2 3 2 1 3 2 1 3 3 5 4 3 1 3 3 2 1 1 2 2 4 4 2 5 4 2 2 3 5 3 6 7 9 14 5 5 12 14 19
15 16 16 18 14 6 3 3 4 3 2 1 3 4 4 6 5 4 1 2 3 2 5 4 4 5 4 3 3 2 4 3 2 4 5 2 4 3 4 10 8 14 10 13
13 15 15 15 15 12 7 3 2 3 1 1 2 2 2 2 3 1 1 2 2 3 3 3 2 3 1 2 4 3 2 4 1 1 2 7 2 3 5 6 5 6 11 13
10 12 14 15 14 10 7 11 3 2 5 3 1 2 2 3 2 3 1 2 2 5 3 2 1 3 1 1 1 6 4 4 3 1 3 4 3 1 2 2 4 1 5 5
7 9 12 13 14 11 6 7 6 1 3 3 4 3 4 4 2 2 2 1 1 3 2 2 3 2 3 2 5 4 3 1 4 2 4 8 6 3 1 3 4 4 2 6
5 6 9 12 13 12 4 4 9 4 2 3 3 3 4 2 2 3 3 3 1 2 2 2 3 3 4 1 4 5 6 6 4 4 2 6 6 3 3 3 4 4 6 7
4 4 6 8 11 13 8 2 6 5 2 2 1 1 1 1 2 4 2 3 3 4 3 1 2 2 1 2 3 0 3 5 5 9 6 3 2 4 3 2 4 6 6 11
6 4 4 6 9 11 13 5 8 1 2 2 2 0 1 1 1 3 3 2 2 2 2 3 2 2 4 4 5 2 4 4 3 1 1 3 10 6 5 5 5 10 12 11
6 5 4 6 9 11 11 4 7 3 2 1 1 1 1 2 1 1 3 2 4 4 2 2 2 2 3 3 1 3 4 5 4 5 6 8 2 1 6 12 13 13 9 8
6 4 5 5 6 9 8 6 6 7 2 2 2 0 2 4 3 2 4 4 2 2 1 1 3 1 1 1 1 4 5 5 4 4 3 4 9 7 9 8 13 15 14 15
5 3 4 5 5 6 3 2 3 6 5 2 2 1 3 6 8 8 7 5 2 1 3 2 2 2 2 2 3 5 4 2 3 3 4 7 12 9 2 10 14 13 10 9
7 4 3 5 5 4 0 2 1 5 5 2 3 3 1 1 2 2 2 4 2 1 1 1 1 2 2 2 3 3 2 2 4 4 5 6 1 7 14 12 16 18 16 13
6 7 4 5 4 2 1 1 2 2 2 3 1 3 2 1 1 1 2 2 2 2 2 1 1 2 1 4 6 4 5 7 0 5 4 7 11 11 8 13 12 10 10 8
6 7 5 2 2 1 1 0 1 0 0 2 2 2 3 1 1 1 2 1 1 0 1 2 2 2 5 7 4 2 3 3 7 8 6 5 6 9 9 8 8 7 10 9
11 8 3 2 2 3 1 1 2 3 2 2 2 1 3 2 0 1 2 1 1 1 2 2 2 3 6 6 6 6 6 4 4 5 8 5 6 8 11 8 8 7 9 10
7 4 2 4 5 1 2 1 1 1 2 2 1 3 1 1 2 2 1 3 2 2 3 1 2 3 3 3 2 1 2 2 5 6 8 8 8 9 9 11 9 12 14 9
7 8 5 3 2 1 2 1 2 3 2 2 2 2 2 0 0 2 1 2 1 3 1 2 3 3 3 2 0 0 2 5 6 8 9 12 12 14 11 11 13 17 22 24
8 3 2 2 1 2 6 5 3 2 2 2 2 1 1 1 1 2 2 2 3 1 1 4 4 3 2 3 2 4 5 7 8 9 11 13 15 21 11 14 24 24 23 27
2 3 3 3 3 4 4 4 3 3 2 2 2 2 1 0 2 2 3 1 2 1 3 5 3 2 3 3 3 3 6 7 6 10 17 17 17 19 25 25 26 24 22 31
3 3 3 4 3 2 2 2 0 2 1 2 2 2 1 1 2 2 2 3 3 5 4 3 3 2 3 5 5 7 7 7 7 15 13 16 19 20 22 25 27 30 28 26
2 1 0 2 2 3 1 2 2 2 2 1 2 2 3 3 3 5 7 4 6 4 3 3 3 4 6 7 7 8 14 16 17 17 18 19 19 20 25 29 27 32 27 27
3 2 2 2 1 2 2 2 2 5 2 2 2 3 8 2 3 3 3 5 4 3 3 3 6 8 7 7 9 11 13 13 17 19 19 22 26 26 23 16 30 26 29 30

GFSNW_925_spd_123.txt.gz
Wind_Speed
14 16 18 17 11 1 2 1 2 4 4 4 2 2 2 2 1 1 1 2 3 4 4 3 2 4 2 1 3 3 1 4 3 2 1 2 2 4 4 3 3 1 1 6
15 16 18 17 11 4 0 1 1 3 1 4 2 3 3 2 3 2 0 2 1 1 2 3 2 2 3 2 2 5 4 1 3 5 3 2 3 4 3 4 2 5 4 5
16 17 19 17 8 3 2 2 2 4 4 1 6 4 2 3 4 2 2 2 3 3 3 4 3 2 3 2 2 6 3 2 4 5 3 4 4 5 5 5 3 3 6 7
16 17 19 18 8 5 2 3 1 2 1 2 1 1 5 3 1 3 5 3 3 2 2 2 2 2 1 5 3 3 3 1 1 4 5 2 3 4 8 9 6 7 4 7
17 16 17 16 7 3 2 2 3 2 1 2 1 2 2 5 3 5 1 4 2 1 4 4 5 5 3 2 2 2 2 2 2 3 2 4 5 8 9 11 8 12 13 23
15 16 15 15 13 1 2 2 1 3 2 1 2 2 2 3 3 0 1 3 4 2 3 3 3 3 4 5 6 3 2 3 2 4 3 5 6 7 12 5 5 9 9 11
13 15 14 15 12 7 1 2 3 3 2 2 3 2 2 0 2 1 1 2 2 2 5 6 5 7 7 6 6 2 4 3 2 3 4 2 4 2 5 9 5 11 8 10
10 13 14 14 12 9 4 3 2 3 1 1 1 3 4 3 2 2 1 2 1 4 3 3 3 4 2 4 4 1 2 3 2 1 2 7 1 1 4 3 2 4 6 8
7 10 12 13 13 8 5 8 4 3 4 3 0 3 3 3 3 2 1 2 1 5 3 2 3 4 2 2 1 4 4 4 4 2 1 2 4 2 3 3 1 1 4 6
5 7 9 12 13 10 4 6 5 2 3 2 2 2 3 4 2 3 0 3 2 3 2 2 3 2 3 3 6 4 2 1 4 3 3 7 6 3 3 0 3 2 3 6
4 4 6 9 11 12 4 3 7 3 2 3 3 0 3 2 2 3 3 3 1 2 2 3 3 3 4 2 4 5 6 7 4 4 2 5 6 3 1 2 4 4 5 3
5 4 4 6 9 11 7 2 5 3 2 1 0 1 0 0 2 4 0 2 3 4 3 1 2 2 1 4 2 1 3 5 4 8 5 2 2 2 3 2 5 7 5 13
6 4 3 4 7 10 9 2 7 2 2 2 2 1 0 1 1 1 3 2 2 2 3 4 2 3 3 3 5 2 4 3 2 1 2 4 8 3 3 3 6 7 9 10
7 5 3 2 6 9 9 3 5 2 2 1 2 1 1 1 2 2 3 4 3 4 1 2 3 3 3 3 2 3 3 4 3 4 4 5 2 1 5 6 5 8 8 8
8 6 5 2 4 6 7 5 6 8 2 2 2 1 3 5 1 2 2 5 3 2 1 1 3 2 3 1 0 4 5 4 4 3 3 1 7 6 8 8 10 11 8 13
9 7 5 4 4 5 2 3 2 6 5 3 1 2 2 5 7 10 8 4 2 2 3 2 2 2 2 3 3 2 3 2 5 3 3 6 9 7 3 5 9 11 10 12
10 7 8 5 4 4 0 3 1 6 5 2 2 2 1 1 2 3 2 3 2 2 2 1 1 1 2 2 3 2 5 5 3 2 1 1 3 4 10 9 12 14 14 12
11 10 7 6 3 3 1 0 1 1 3 3 1 3 2 1 1 1 3 1 2 3 2 1 2 1 0 4 5 4 2 3 5 3 4 4 7 9 8 13 11 8 9 9
12 13 8 5 3 2 2 2 1 0 1 3 2 3 3 1 1 1 1 1 1 1 0 1 2 2 5 5 5 3 2 2 2 4 5 5 5 8 8 6 7 6 10 7
17 10 4 1 3 4 1 1 2 3 2 2 2 1 3 2 0 0 2 1 1 1 1 2 2 4 4 6 5 2 1 3 3 1 4 3 5 6 8 7 6 7 8 14
9 4 2 5 7 3 3 1 1 1 2 2 1 2 2 2 3 2 1 2 1 1 3 2 2 3 3 1 3 3 4 2 1 4 5 7 7 7 7 9 9 13 17 13
13 13 9 5 2 2 3 2 1 3 3 1 2 2 3 1 0 3 1 2 1 4 0 2 3 3 3 1 4 4 2 2 5 5 9 13 13 14 12 13 16 19 24 27
15 4 3 3 1 2 6 7 4 3 3 3 2 2 2 1 1 2 2 3 3 1 2 3 4 2 2 0 3 3 3 3 5 7 11 15 17 22 17 17 24 27 25 28
2 5 5 5 4 4 4 4 4 3 3 3 2 2 2 1 2 2 3 1 2 3 3 5 3 3 3 3 3 2 6 7 8 12 16 17 19 19 23 26 26 25 23 27
3 3 4 4 2 1 2 2 2 1 3 3 2 2 1 1 2 2 2 3 3 4 4 3 3 5 4 4 4 6 7 7 6 14 14 17 22 21 22 21 21 26 29 27
3 2 3 1 2 1 2 1 1 3 3 2 2 2 2 2 1 4 5 3 5 4 3 3 3 4 5 6 7 9 13 15 16 18 20 21 19 19 24 28 26 28 28 27
2 0 2 2 2 2 2 3 3 7 3 2 2 2 6 2 2 3 3 5 3 3 3 3 5 5 6 7 10 14 15 14 16 19 19 21 25 28 22 15 29 27 28 29

GFSNW_925_spd_126.txt.gz
Wind_Speed
14 15 17 16 11 1 2 1 1 7 6 2 2 2 1 1 3 3 4 3 2 2 1 3 3 3 3 1 3 3 2 4 4 2 2 1 1 3 5 3 4 1 2 2
15 16 18 16 10 2 1 2 2 5 4 3 3 3 3 1 1 2 2 4 5 4 3 2 3 3 3 2 1 2 4 2 5 3 3 2 5 7 4 3 1 6 3 2
16 17 19 16 8 4 2 0 1 2 3 2 2 3 2 3 1 2 2 2 2 2 3 4 3 3 3 2 2 5 1 2 2 1 3 3 5 8 10 6 4 4 8 5
17 17 19 18 7 7 3 3 2 1 2 3 2 3 2 1 2 1 1 2 2 3 3 2 3 2 2 3 3 3 2 1 1 2 2 2 3 6 13 16 10 7 1 7
16 16 17 16 6 2 3 1 1 1 2 1 1 1 1 0 1 3 1 1 2 1 2 1 5 5 3 1 2 1 1 1 1 2 1 4 7 11 12 15 17 17 18 22
14 15 15 15 12 3 2 1 1 1 1 1 2 1 3 3 3 2 3 2 2 2 3 4 6 4 5 4 3 4 2 3 0 2 0 5 7 13 15 9 7 14 11 6
11 13 14 15 11 7 2 2 1 1 1 2 1 3 2 3 3 3 2 2 1 3 8 8 7 9 7 5 5 1 5 4 2 2 3 3 3 3 3 12 7 14 11 11
8 11 12 13 12 9 5 2 1 0 1 1 2 3 1 3 1 1 2 1 2 9 3 2 3 2 2 2 4 1 3 2 2 2 2 5 2 4 5 5 2 4 7 5
6 6 9 11 12 7 5 7 3 1 1 1 1 3 3 2 2 2 2 2 3 2 1 2 2 2 1 3 3 2 2 1 2 1 2 2 3 3 2 0 5 3 3 8
5 4 5 8 11 8 4 5 4 1 0 2 3 2 2 3 2 1 2 4 3 2 3 3 3 2 0 3 4 5 4 3 6 4 3 6 2 5 3 3 3 3 5 11
6 4 3 5 7 9 3 2 5 1 0 0 2 1 2 2 2 3 4 3 2 2 4 3 3 3 3 2 2 4 6 7 4 3 3 4 4 5 2 3 3 8 10 10
8 6 3 3 5 7 4 0 3 1 1 1 2 1 1 2 1 2 3 1 2 2 2 2 2 2 3 3 2 2 3 3 3 6 2 2 1 5 2 2 7 7 8 12
10 8 5 2 3 6 5 0 3 2 2 1 1 1 1 1 1 2 2 1 1 2 1 2 1 4 3 4 5 3 5 4 3 2 5 6 3 5 1 4 5 8 9 10
12 9 7 4 1 4 5 1 2 2 2 1 2 1 1 2 3 2 2 3 4 4 1 1 2 2 2 2 2 3 0 9 5 5 4 2 2 3 5 6 7 8 8 9
14 12 10 6 3 1 3 4 4 5 1 0 0 0 3 6 2 2 2 3 3 2 2 2 3 1 3 2 1 4 6 4 4 3 4 1 0 3 3 6 6 9 10 9
16 14 11 9 5 3 1 0 3 3 2 2 1 1 2 5 6 7 5 3 1 0 2 2 2 0 2 3 3 2 5 4 2 1 2 2 6 5 5 8 9 9 9 10
16 13 12 9 6 5 3 1 2 2 1 1 1 0 1 1 2 2 2 3 1 1 0 2 1 2 2 2 4 3 5 3 2 1 2 2 1 2 7 7 10 10 11 10
17 14 12 10 6 3 3 2 2 1 3 1 2 1 1 1 0 1 2 1 0 1 0 1 2 1 1 4 4 5 2 2 7 3 1 3 1 3 5 8 7 9 9 11
18 16 13 8 3 3 3 3 2 3 1 2 1 3 2 1 1 1 1 1 1 1 2 2 2 2 6 5 6 7 6 3 6 3 4 4 6 7 8 8 9 10 12 11
22 15 5 2 4 8 6 2 0 1 1 1 2 1 3 2 2 2 1 1 1 2 0 0 3 4 6 6 4 4 4 5 4 4 4 4 5 7 9 9 11 10 11 16
13 5 2 6 10 4 1 1 1 1 2 4 2 3 3 1 2 3 1 2 1 2 2 2 3 4 3 3 6 7 7 7 5 4 2 4 6 7 9 11 14 15 17 17
15 13 10 6 1 2 1 2 2 4 4 3 5 3 2 2 0 2 2 2 1 3 2 3 4 2 2 5 7 6 6 6 4 6 5 5 7 9 11 13 15 17 19 21
16 3 4 4 2 3 6 7 4 4 5 5 4 3 3 2 1 3 2 3 3 0 2 4 4 2 4 6 6 5 4 0 4 7 9 11 12 16 13 14 18 19 20 23
3 5 5 4 4 5 5 3 3 2 4 6 5 4 2 2 2 2 3 2 1 2 4 5 1 5 7 5 2 1 3 5 8 11 14 14 16 17 21 22 22 20 23 26
4 4 6 5 1 1 2 2 3 1 4 4 4 3 1 2 3 2 3 3 4 5 4 2 3 6 3 2 3 5 6 7 9 13 13 16 19 18 20 21 24 24 26 25
3 3 4 2 3 2 2 2 3 3 4 2 2 3 3 2 3 4 6 4 5 2 2 2 4 2 4 5 5 8 11 13 15 15 17 17 18 19 22 23 24 24 23 23
3 2 1 2 3 3 3 3 3 6 3 2 2 4 3 3 2 3 4 4 1 1 1 3 5 5 5 5 9 12 14 14 16 16 17 20 22 22 20 16 26 24 24 23